GFSCGP_sfc_thetae_000.txt.gz
Theta_e
300 296 293 295 297 298 297 294 294 297 299 296 295 295 299 299 299 298 298 299 300 302 305 309 311 313 313 314 312 311 310 311 311 314 314 315 316 318 318 321 323 324 325 324
297 294 298 300 299 297 295 293 292 296 298 295 295 295 296 298 299 299 298 298 300 301 304 308 310 311 311 311 313 312 311 312 312 313 314 315 316 320 320 322 323 325 326 326
295 298 302 300 297 296 294 292 292 293 296 295 292 291 293 297 299 300 298 299 300 301 302 305 307 307 310 309 310 314 312 310 309 313 316 317 319 321 322 322 322 324 327 327
297 301 300 297 297 297 291 298 297 295 292 287 293 283 291 294 296 299 297 297 299 300 303 305 306 304 309 310 312 312 312 311 312 312 317 316 316 317 320 322 323 324 325 327
298 297 297 296 298 298 296 299 296 295 290 287 289 284 289 294 295 296 298 297 299 300 303 304 305 306 309 312 312 313 313 313 313 314 318 319 318 319 320 321 321 323 325 327
300 302 300 300 301 300 301 295 293 291 288 281 288 287 286 290 295 297 299 298 299 300 302 305 306 306 307 311 313 312 314 315 313 315 317 317 314 314 315 317 319 322 324 326
296 296 299 302 297 296 294 289 283 281 280 282 289 287 289 296 298 300 301 299 299 301 302 304 304 304 306 309 312 313 314 313 313 314 316 317 313 314 315 317 319 321 323 325
291 290 297 300 298 295 291 290 284 279 278 282 290 286 292 298 302 304 303 301 300 300 302 304 304 304 306 308 312 314 313 312 312 313 314 314 314 313 313 315 320 320 323 323
290 291 298 300 300 299 292 288 291 286 286 283 286 292 299 302 303 302 299 299 299 300 301 304 304 305 306 307 310 314 314 311 311 312 313 314 314 313 313 313 315 319 322 325
294 289 297 299 299 297 296 296 287 285 280 279 284 288 290 296 299 302 300 298 299 300 301 303 304 305 306 307 309 314 314 311 311 311 312 312 312 313 312 312 313 316 317 318
295 293 292 297 295 293 292 291 291 288 286 281 278 285 296 299 303 304 301 299 299 301 302 303 305 305 306 306 308 313 313 310 310 309 311 312 312 312 312 312 312 314 315 317
296 292 289 294 298 301 297 294 294 287 285 287 285 288 300 303 306 307 305 300 300 302 303 304 304 304 305 306 308 311 312 310 309 309 311 311 311 311 311 312 311 313 314 316
296 289 285 287 296 299 296 298 295 293 291 289 287 288 301 305 305 307 304 300 300 301 302 302 303 304 305 306 308 311 311 310 310 311 311 310 309 309 310 311 311 312 313 315
303 291 290 288 289 297 294 298 298 294 288 290 291 294 299 303 304 305 302 300 300 301 303 303 303 303 305 307 309 311 311 311 311 312 311 310 308 308 309 310 311 312 313 313
296 289 291 292 295 298 296 297 298 294 294 292 294 295 300 301 305 305 302 300 299 300 302 304 304 304 305 307 308 311 311 311 312 312 311 311 308 308 309 310 309 310 311 312
295 290 291 290 295 295 294 297 299 299 296 296 297 295 303 306 309 308 303 300 301 301 303 304 306 306 306 308 308 310 309 310 312 312 311 311 307 307 308 308 308 308 308 309
292 293 290 286 295 294 291 295 298 298 299 298 294 299 303 305 307 307 306 302 302 303 304 305 306 307 308 309 310 309 308 310 312 312 313 311 308 308 308 307 306 306 306 307
292 293 292 290 293 284 294 301 302 301 301 300 300 301 304 304 307 309 309 304 303 304 305 306 307 308 309 310 309 309 307 310 312 312 313 312 309 307 308 307 305 304 304 305
298 294 290 289 284 293 296 300 299 299 298 303 302 302 304 306 307 307 311 309 308 306 307 307 309 309 310 310 310 308 307 310 312 312 313 313 309 307 307 306 304 303 302 302
298 298 293 285 286 286 294 302 305 303 294 303 305 302 304 305 300 305 309 311 310 310 308 308 309 310 310 311 310 307 306 309 311 313 315 314 310 308 307 307 305 305 303 304
291 291 292 285 283 290 299 304 305 293 295 304 306 305 303 304 308 309 310 311 312 312 309 309 309 309 310 311 310 308 307 308 312 315 316 315 311 308 308 307 306 306 305 304
292 288 288 285 285 287 303 303 299 302 303 306 306 306 306 309 308 309 309 311 312 310 310 308 308 309 310 311 311 309 307 310 312 315 316 316 313 311 308 307 306 307 305 304
292 295 292 293 292 299 306 305 307 304 305 306 305 305 308 308 307 309 309 310 311 310 309 308 308 309 310 311 312 310 310 310 311 314 315 316 314 313 309 307 306 307 306 305
297 298 295 296 298 300 305 305 306 306 306 309 308 308 308 308 309 309 310 310 310 311 310 309 308 308 309 311 312 312 313 312 312 313 314 316 315 314 311 309 308 308 307 306
298 299 296 295 298 300 303 306 306 308 309 310 311 310 310 310 311 311 311 311 311 311 312 310 308 308 309 311 312 313 313 313 311 312 314 315 316 314 315 313 310 309 310 309
299 297 297 295 299 301 302 307 307 308 309 311 311 311 313 312 311 313 311 311 312 312 311 311 310 310 310 310 311 312 314 314 312 312 313 314 315 315 316 315 314 301 300 299

GFSCGP_sfc_thetae_003.txt.gz
Theta_e
308 304 301 304 305 304 303 301 300 302 305 302 302 303 305 307 305 305 306 306 308 309 314 318 321 321 322 325 325 324 325 326 325 326 325 326 326 326 330 329 325 326 329 329
303 301 306 306 305 302 301 299 299 302 303 302 303 302 305 306 306 307 307 306 308 310 312 316 319 321 322 322 323 326 323 324 322 324 327 323 327 328 328 328 329 329 327 329
303 304 305 304 302 300 301 300 300 300 301 302 300 299 302 307 305 306 308 309 309 309 311 315 317 320 321 320 320 324 325 324 323 325 328 329 330 328 326 326 325 325 327 328
304 305 303 302 302 303 299 303 302 300 299 295 300 292 300 304 305 305 307 307 308 309 312 315 317 318 321 321 321 321 323 325 323 327 330 329 327 324 326 327 329 330 328 328
302 302 302 301 302 304 302 304 302 301 299 297 297 294 298 301 302 306 310 307 308 310 312 314 316 317 320 322 324 326 325 326 325 329 330 327 326 327 329 330 328 332 330 333
305 306 306 305 306 305 306 302 299 298 297 292 297 295 296 300 303 307 309 309 308 309 311 315 317 317 319 323 323 325 327 325 326 328 328 327 325 326 326 327 326 327 328 332
302 303 305 307 303 303 304 300 293 291 292 290 295 294 298 305 307 307 308 309 308 309 311 314 314 314 317 320 323 324 325 323 324 326 329 328 325 326 323 323 325 325 327 327
296 294 302 305 305 302 301 301 294 287 288 292 295 293 298 308 309 311 311 311 309 309 311 314 315 315 316 319 323 323 323 322 322 324 327 326 326 324 322 330 325 328 327 327
296 296 303 305 306 306 298 297 302 296 294 292 295 299 305 309 309 310 308 307 307 309 311 313 315 316 317 319 322 325 325 323 322 323 326 326 325 325 323 325 328 330 329 329
301 295 302 304 306 304 303 303 295 296 288 287 292 294 297 304 306 309 308 307 307 309 311 313 315 316 318 320 321 325 327 323 321 322 325 324 323 323 324 325 328 328 327 325
304 301 297 301 301 300 299 298 298 298 296 291 290 294 307 308 310 313 312 310 308 309 311 313 315 316 318 320 319 323 326 322 322 322 323 323 322 322 324 323 325 326 326 325
304 302 296 298 303 307 305 301 302 295 294 296 295 295 308 311 314 315 313 310 310 311 312 313 315 316 316 318 319 321 326 322 322 321 322 322 322 322 323 323 324 326 327 327
304 302 295 295 302 305 300 302 303 303 302 296 293 296 309 312 313 314 313 310 309 310 311 313 314 315 315 317 318 320 324 322 320 320 321 321 321 322 322 322 323 325 326 325
307 303 298 293 296 302 300 301 302 301 297 297 297 299 306 310 311 312 313 311 310 310 311 312 313 314 316 316 318 320 323 321 319 319 321 320 321 321 322 322 323 325 325 324
306 299 300 301 301 302 301 301 302 300 301 297 300 301 306 311 313 315 314 311 309 310 311 312 313 314 316 317 318 321 323 320 320 319 321 321 320 320 321 321 322 323 325 324
303 300 301 298 300 300 298 301 302 303 302 303 303 303 312 313 316 314 311 309 308 310 311 312 313 314 315 316 318 320 322 321 320 320 320 321 317 318 320 320 321 322 323 323
302 301 297 294 298 298 294 299 300 303 305 304 300 306 311 312 314 316 313 311 311 311 311 312 313 314 316 317 319 320 322 322 320 320 320 320 317 317 319 318 319 320 322 323
303 303 300 296 298 289 301 306 304 303 305 307 307 309 312 313 317 319 318 314 314 313 313 314 315 317 318 319 320 321 322 321 320 320 319 319 316 317 318 318 319 320 320 322
300 302 301 297 296 298 301 304 302 302 303 309 308 310 312 314 316 315 318 319 318 316 317 317 317 318 318 318 320 321 320 320 319 319 319 319 316 317 318 317 318 318 318 318
302 304 300 299 295 291 302 309 310 310 300 311 312 312 312 313 307 311 319 320 319 318 318 317 317 318 319 320 321 320 319 319 319 319 320 320 317 317 318 320 318 317 318 318
296 298 294 294 296 299 306 310 311 299 302 315 314 314 314 311 315 321 321 321 323 322 318 319 317 318 320 322 322 319 319 318 320 320 321 321 319 318 320 321 319 318 316 316
294 293 293 297 293 291 308 309 305 314 315 315 315 316 315 319 319 318 319 320 321 320 319 317 316 318 320 321 321 320 320 321 321 321 320 322 321 317 318 320 319 318 318 317
294 298 296 298 298 310 313 314 318 319 317 313 317 317 317 317 317 318 318 318 320 321 320 317 316 317 318 321 321 320 321 321 320 321 321 322 322 319 318 319 319 317 318 315
297 305 301 302 304 308 311 315 316 314 314 315 317 317 317 317 317 318 318 319 320 321 320 318 317 316 316 319 320 322 321 320 319 321 322 323 322 320 319 317 318 317 316 315
296 302 303 303 307 308 310 314 314 314 315 316 316 317 317 317 317 318 319 320 320 321 321 318 316 317 317 318 319 321 322 321 321 323 323 322 322 321 320 318 317 316 321 316
302 299 299 300 308 310 312 315 315 314 314 316 317 317 319 319 319 321 321 322 322 321 321 319 317 317 318 318 318 320 320 321 322 322 322 321 321 321 321 319 318 302 301 299

GFSCGP_sfc_thetae_006.txt.gz
Theta_e
313 307 304 308 310 310 307 305 304 307 310 307 308 308 309 312 312 313 314 314 314 315 318 321 323 323 322 322 324 328 328 332 329 330 330 332 331 329 334 331 328 327 332 333
309 304 310 311 311 308 307 305 305 308 309 307 307 306 309 311 311 313 314 315 315 316 317 320 323 323 322 319 322 328 328 329 328 331 334 333 331 331 326 327 327 329 330 333
305 307 312 310 308 306 306 304 305 304 308 308 306 304 307 310 312 314 315 316 316 316 316 319 321 322 322 320 321 324 327 329 331 336 338 336 335 332 333 329 329 329 330 332
308 311 309 308 306 307 303 308 306 305 303 298 306 296 304 308 309 311 314 315 316 316 317 319 321 321 321 321 324 324 327 331 332 336 332 333 332 328 330 334 334 330 333 329
306 308 307 305 306 308 304 308 307 306 303 303 302 299 303 306 305 307 310 315 316 317 317 318 320 320 320 323 324 329 328 330 334 335 333 330 331 336 335 336 332 333 335 334
308 312 310 309 309 308 309 306 306 305 303 296 301 300 300 304 305 308 311 315 317 316 317 319 321 320 319 323 324 327 327 327 332 334 333 332 328 329 328 329 329 329 333 335
305 306 310 311 306 309 307 304 296 295 295 294 302 298 301 307 309 310 312 314 316 317 317 318 319 318 319 322 324 326 324 325 327 330 332 331 332 331 328 328 327 328 328 333
299 297 306 309 306 304 305 304 297 290 292 296 301 296 302 308 312 314 316 318 318 316 317 318 319 320 318 321 324 325 324 324 325 328 329 331 331 328 328 333 330 330 331 328
300 300 308 309 309 308 304 301 307 300 301 296 299 302 308 310 311 313 315 315 316 316 317 318 320 320 318 320 325 326 325 324 324 326 328 329 329 330 330 337 337 332 331 331
305 299 305 308 309 309 307 308 299 300 292 291 296 298 300 304 307 314 315 315 316 316 317 318 320 320 319 321 325 328 328 323 325 325 326 326 327 329 331 334 334 332 332 328
307 304 303 306 304 303 304 303 304 304 301 294 293 298 308 307 311 313 318 317 316 317 317 319 320 320 319 322 323 327 328 324 323 324 325 326 325 327 329 329 331 331 329 331
308 304 299 301 307 309 307 304 305 298 297 300 299 299 310 312 315 318 319 318 318 318 318 319 320 319 318 321 322 325 327 324 321 323 324 325 325 327 328 329 330 333 332 331
307 302 296 298 304 307 303 305 306 306 305 300 296 299 312 313 316 319 320 318 317 318 318 319 320 317 317 320 321 323 326 324 320 320 322 324 325 326 327 328 329 329 329 331
310 304 301 296 300 303 301 302 305 305 300 300 300 302 307 310 313 317 320 319 318 318 318 319 319 317 317 319 320 322 324 324 320 320 320 322 325 325 327 328 329 328 327 327
310 301 302 302 303 304 303 302 303 302 304 300 302 303 307 311 313 316 321 320 317 316 317 318 319 318 318 319 320 322 324 322 320 320 320 321 325 325 326 326 328 329 327 326
310 301 303 301 302 303 301 303 304 304 304 304 305 304 312 314 315 317 320 319 317 316 317 319 320 318 318 319 320 322 323 322 322 321 320 320 320 323 324 326 328 328 327 326
306 303 301 297 301 301 297 302 304 305 306 306 302 307 312 312 314 317 320 319 318 318 318 319 320 320 319 320 321 322 323 324 322 321 321 320 319 320 323 323 325 327 329 330
306 304 303 298 300 291 302 308 307 305 306 308 308 310 312 313 317 319 322 321 321 320 320 320 321 322 321 321 322 324 324 323 321 321 321 321 317 318 322 323 325 328 330 330
310 307 300 298 298 299 303 306 305 304 304 309 309 310 311 314 317 317 322 324 324 324 324 323 324 324 323 321 323 323 323 323 320 319 320 321 318 318 320 321 325 327 328 329
304 310 303 301 296 292 303 309 312 311 300 311 312 312 312 314 309 312 323 324 325 327 327 325 325 325 324 323 323 323 322 322 320 320 320 321 319 319 319 322 325 327 327 326
298 300 299 299 300 301 309 311 314 301 303 315 315 316 315 314 316 320 323 325 326 327 327 328 326 324 328 325 323 322 322 321 322 321 321 322 322 320 323 325 325 325 324 322
298 297 297 301 298 295 313 313 306 312 322 318 319 320 319 321 322 322 324 325 325 327 326 326 325 325 327 326 324 322 322 324 323 322 320 322 324 319 321 325 325 324 323 322
296 302 300 301 302 316 317 315 320 319 317 318 321 322 323 322 322 323 323 324 325 326 326 325 326 326 327 326 325 322 324 324 323 322 321 323 324 321 322 324 323 321 323 318
301 304 302 303 307 309 312 318 320 322 320 320 323 324 324 322 323 323 323 324 324 325 327 326 325 325 325 326 326 327 325 324 322 323 322 324 324 322 321 322 322 319 319 318
300 302 300 302 306 308 310 312 317 320 322 320 321 322 322 322 322 323 322 323 324 325 326 327 325 325 325 326 326 327 325 324 324 324 324 324 323 323 321 321 321 319 325 318
303 301 298 298 306 308 309 313 314 319 319 320 320 320 322 322 322 323 322 325 325 325 326 327 326 326 326 326 326 326 326 325 328 327 324 323 322 322 321 319 318 303 302 302

GFSCGP_sfc_thetae_009.txt.gz
Theta_e
310 307 304 307 310 310 309 308 306 310 312 310 310 310 312 316 315 314 315 316 318 319 321 323 325 326 325 325 329 329 328 333 332 331 331 337 337 332 334 335 330 331 333 333
308 305 310 311 311 309 309 307 306 310 312 311 310 309 312 313 313 315 315 316 317 319 319 321 325 326 325 325 327 328 328 331 333 335 335 334 335 334 331 334 334 332 332 333
305 308 312 310 309 308 308 306 306 306 310 312 309 306 308 313 314 315 315 317 319 320 319 321 323 325 325 323 327 328 328 332 336 338 338 337 337 336 335 334 332 333 332 333
307 312 310 308 308 309 305 310 308 307 306 301 309 298 306 310 310 312 314 316 318 320 321 322 323 324 324 323 328 329 330 333 335 337 334 334 334 332 337 335 336 334 334 333
304 308 308 307 308 311 307 311 308 308 305 304 304 301 305 310 307 309 312 315 318 320 321 321 322 324 323 323 327 330 332 333 334 336 336 335 335 335 337 336 333 335 335 333
307 313 311 310 312 311 312 308 307 307 305 297 302 302 302 305 306 308 312 315 319 320 320 322 324 324 322 323 327 329 331 331 333 334 334 334 333 333 333 329 332 331 334 333
305 306 311 313 309 311 309 305 297 296 297 295 305 301 304 309 309 310 311 315 319 320 320 321 322 321 322 322 325 328 329 328 329 332 332 334 334 334 333 333 328 328 333 328
300 298 308 312 310 306 306 305 298 292 294 298 305 298 304 310 311 313 314 318 321 320 320 321 322 322 321 322 324 326 327 327 328 330 331 333 334 334 333 330 331 329 330 334
301 301 309 311 312 310 305 302 308 302 303 298 302 305 309 309 311 314 315 318 320 320 320 321 322 323 321 322 324 326 326 326 327 328 331 331 332 334 337 336 336 332 336 334
308 301 308 309 311 311 308 310 301 302 294 293 299 301 303 306 308 315 316 318 319 320 320 321 322 323 320 322 326 328 327 325 326 327 328 329 330 333 334 333 333 334 331 335
308 307 305 309 306 304 304 303 305 306 302 296 295 299 310 309 311 313 317 320 319 319 319 320 322 323 320 322 324 327 327 323 325 326 327 327 328 330 332 332 333 331 335 331
309 307 302 304 310 311 309 305 307 300 299 302 301 302 312 312 312 316 318 320 319 320 320 321 322 322 319 321 323 325 327 322 323 324 325 325 327 329 331 332 333 334 333 331
310 305 300 302 306 309 306 306 307 308 307 302 298 300 313 314 313 316 317 320 319 319 320 321 321 320 318 321 322 323 326 323 321 322 324 325 326 328 329 330 331 334 334 333
313 308 303 299 303 305 302 304 306 306 301 301 302 304 309 311 312 316 318 321 320 319 320 321 321 320 318 321 321 323 325 324 321 320 322 325 325 326 329 330 329 330 331 332
312 305 305 306 307 306 305 304 304 304 304 302 304 305 309 312 313 315 319 321 320 318 319 320 321 320 318 321 321 322 324 323 320 320 320 324 325 326 328 329 329 327 327 327
314 305 305 302 305 306 303 305 305 305 305 305 306 306 313 315 316 316 319 320 319 319 319 320 322 320 318 320 321 322 324 322 320 320 319 322 323 323 325 328 329 328 326 325
307 306 303 299 303 303 300 304 305 306 306 307 303 309 313 313 314 315 318 319 320 320 320 321 322 321 320 320 322 322 324 323 321 321 320 319 322 322 323 325 325 326 328 330
310 308 305 300 302 293 304 310 309 307 308 309 309 311 313 314 316 317 319 321 321 322 321 322 323 324 322 322 323 324 324 322 320 320 320 318 319 322 323 323 325 329 330 330
313 310 301 299 299 301 304 307 307 305 305 311 310 312 314 315 316 316 319 323 324 325 325 324 326 326 324 322 323 324 323 323 320 320 320 319 317 320 322 323 327 330 331 332
309 312 306 301 297 293 304 309 312 312 301 312 312 312 313 314 308 312 320 322 324 326 327 326 326 327 325 324 324 324 322 322 320 320 321 321 318 319 321 325 329 330 330 329
302 305 301 298 299 302 309 312 313 300 304 315 314 314 315 312 315 320 322 323 326 327 328 329 327 328 330 329 328 323 323 322 322 321 322 322 321 321 325 331 331 330 328 327
298 300 300 301 297 296 313 312 305 313 316 317 316 316 317 318 319 320 322 325 326 326 327 328 326 327 331 327 327 323 325 325 324 322 321 322 323 321 322 329 328 327 329 328
299 304 302 304 303 315 316 315 320 320 318 318 319 319 319 319 320 320 322 324 325 326 327 328 328 328 330 329 327 326 328 325 324 322 321 323 323 321 324 326 326 322 327 321
304 309 305 307 311 312 315 318 320 319 319 320 320 322 322 321 322 322 324 325 325 326 327 328 328 327 328 330 329 328 326 325 324 323 325 326 324 321 325 324 324 321 320 318
302 304 305 306 309 312 314 317 318 319 320 322 323 322 322 322 323 323 323 324 326 327 328 328 328 328 328 330 329 328 327 326 326 328 326 327 324 324 324 324 322 320 325 319
301 301 300 303 310 310 311 315 316 318 319 321 320 320 322 323 322 323 323 326 326 326 327 328 328 328 329 330 329 329 328 328 329 329 325 323 322 323 320 321 321 304 304 302

GFSCGP_sfc_thetae_012.txt.gz
Theta_e
306 304 301 305 308 306 306 305 305 309 312 310 309 311 312 315 315 315 317 318 320 321 323 325 326 329 329 332 334 337 337 340 338 336 335 336 337 336 337 337 333 331 332 332
302 301 306 308 309 306 305 304 305 308 311 310 309 308 312 314 315 315 315 317 319 321 321 323 326 328 329 330 333 336 337 339 340 338 338 338 336 336 335 336 334 333 331 333
299 302 307 307 307 304 305 304 305 305 309 310 308 306 309 313 315 316 317 319 321 321 320 322 324 327 328 329 331 334 336 340 341 341 340 338 337 335 332 333 330 331 333 333
301 305 304 306 305 306 302 308 308 307 304 299 308 298 307 310 311 313 314 317 318 321 322 322 324 326 328 327 331 334 337 340 340 340 337 335 332 330 332 328 333 330 333 333
300 302 302 305 306 309 306 310 308 308 305 304 303 299 303 310 308 311 312 315 319 321 321 321 323 326 326 327 330 334 337 340 341 341 339 335 333 334 335 332 331 329 328 334
303 308 307 307 310 310 311 308 308 307 304 297 302 301 301 305 307 309 311 315 318 320 321 323 325 326 325 325 329 334 336 338 340 340 339 334 332 331 331 329 329 331 332 332
302 302 307 310 306 310 308 306 297 295 294 294 303 300 303 310 310 310 310 315 320 321 321 322 323 322 323 323 328 330 333 333 336 337 337 335 334 333 331 329 327 330 329 330
297 295 303 309 307 305 307 306 298 291 292 295 305 298 303 311 313 313 313 317 321 320 321 322 323 323 322 323 327 329 330 330 334 334 336 336 335 335 330 330 331 330 330 332
298 298 307 308 310 310 306 302 307 300 301 297 300 305 310 311 310 311 313 318 321 321 321 322 323 323 323 324 327 331 331 331 332 333 336 336 336 334 334 334 335 331 333 333
305 299 306 307 310 311 309 310 300 301 292 291 297 300 301 306 308 312 316 318 321 322 321 322 322 324 323 325 328 332 331 330 331 333 335 333 336 334 335 336 335 332 332 331
308 306 304 307 305 304 305 304 304 304 301 295 294 298 311 310 312 316 317 320 320 320 319 321 322 324 322 324 325 330 330 328 329 331 332 334 334 334 333 333 332 331 330 331
307 306 301 303 309 311 309 306 306 299 299 301 300 299 314 315 314 315 318 320 319 320 320 320 321 323 319 321 324 327 330 325 327 328 329 331 334 334 334 332 334 332 327 331
308 303 299 301 306 309 306 307 308 309 308 302 296 299 314 314 313 315 318 319 319 320 320 320 321 321 318 320 323 324 327 324 324 324 326 330 333 332 333 330 334 334 329 330
312 305 302 299 303 307 304 305 306 305 302 300 301 303 309 311 311 314 318 320 319 319 320 320 321 320 318 320 322 323 326 325 323 322 325 328 331 332 333 332 334 332 334 329
311 301 305 305 306 306 305 304 304 304 305 301 304 304 309 312 313 315 319 321 319 318 319 320 321 320 318 321 322 323 325 324 323 321 323 327 331 333 333 331 331 332 332 331
313 302 304 302 304 305 303 305 305 305 304 305 305 306 313 316 316 316 319 319 318 318 319 320 322 321 318 321 321 323 325 323 322 322 321 325 325 327 332 333 331 329 328 329
309 306 303 298 304 303 300 305 305 306 307 307 303 308 314 313 314 316 319 320 320 320 320 321 322 322 320 322 323 323 325 322 321 321 320 323 323 323 328 329 330 330 331 332
306 308 305 299 303 293 304 311 309 307 309 310 310 311 313 314 317 316 320 321 321 322 322 322 324 325 323 323 323 325 325 322 319 320 319 320 321 321 324 327 329 331 332 332
311 309 302 298 298 302 303 307 307 307 307 312 309 311 312 315 316 317 319 321 324 325 325 325 326 327 325 324 324 324 324 322 319 319 320 318 320 322 322 325 329 332 333 332
309 311 303 301 295 293 305 309 312 312 302 314 314 314 314 315 308 311 321 321 325 327 327 326 327 327 325 325 325 325 323 322 319 319 321 319 318 323 324 328 330 332 334 332
301 304 299 299 299 301 309 311 313 300 305 315 316 316 316 314 316 327 325 323 328 327 328 328 328 326 325 326 326 324 323 322 322 321 322 321 321 324 327 331 331 332 332 330
300 299 300 301 299 295 311 310 305 316 326 321 319 318 318 321 322 323 324 325 326 326 327 328 327 327 327 326 325 324 323 325 324 322 321 322 324 320 325 329 329 330 330 331
295 304 301 304 303 320 319 319 323 324 321 319 320 320 320 319 319 320 323 326 326 327 327 328 327 329 328 326 325 323 326 327 324 323 323 324 323 322 325 327 327 326 328 325
303 304 302 307 311 311 314 318 320 320 321 321 322 321 320 319 320 320 321 326 326 327 327 328 327 328 328 327 326 326 327 326 324 324 325 325 322 321 324 325 326 323 322 321
299 303 302 303 312 314 314 314 318 320 321 321 321 321 321 321 321 322 322 325 325 326 328 328 328 328 329 329 327 328 328 325 324 326 325 325 323 321 324 324 324 322 323 319
299 298 298 300 304 311 313 317 314 319 320 321 322 321 323 323 323 323 324 326 326 326 328 328 331 331 330 330 329 328 328 326 326 326 324 323 322 320 323 322 323 302 306 301

GFSCGP_sfc_thetae_015.txt.gz
Theta_e
303 296 294 299 301 303 301 299 299 304 308 306 306 307 308 310 310 308 309 310 312 313 315 319 321 321 319 319 321 322 322 321 322 324 323 323 322 325 327 328 327 325 325 326
296 293 299 304 304 302 302 299 298 303 307 307 306 305 307 310 308 309 309 309 309 313 314 317 319 318 317 317 319 323 321 322 324 325 326 326 326 327 326 326 328 328 327 326
293 297 302 303 302 301 301 300 299 299 305 306 303 299 303 309 309 310 311 310 312 313 313 316 318 316 317 317 319 321 322 324 326 326 326 325 325 325 324 324 326 325 329 327
295 300 300 299 300 302 297 305 304 302 301 294 303 290 299 303 305 308 309 308 311 313 315 316 318 316 316 318 319 322 324 325 328 326 324 322 320 319 323 325 326 325 329 327
295 296 297 297 299 303 300 306 304 303 300 297 297 292 296 303 302 305 305 308 312 313 314 315 317 318 319 318 320 321 323 325 326 326 325 323 322 323 323 321 321 321 323 327
299 303 301 299 302 304 306 304 303 302 300 290 296 295 295 299 303 303 306 310 313 313 314 317 319 319 318 318 319 323 323 324 325 325 325 323 322 323 321 319 320 321 325 326
298 298 302 303 299 302 304 298 291 287 288 286 298 295 296 303 307 305 308 311 312 314 315 316 317 316 315 316 319 321 321 320 322 324 324 324 323 322 321 319 320 320 322 323
291 290 299 303 299 298 299 299 291 284 286 289 299 292 298 307 309 308 312 312 313 313 315 315 316 315 314 316 319 320 320 319 321 323 323 324 324 323 321 321 322 322 322 324
291 292 302 303 304 302 299 296 301 293 294 289 294 300 304 305 305 306 311 312 311 312 314 315 316 314 314 315 317 318 320 318 321 323 322 323 324 324 324 323 324 323 325 328
296 291 300 302 303 303 301 304 295 292 286 283 292 295 297 302 302 308 311 310 311 312 313 315 315 314 314 315 316 319 320 318 320 322 322 322 325 326 326 325 324 324 325 323
299 295 297 301 298 296 298 298 297 295 292 286 286 291 302 301 306 308 310 312 312 312 313 314 314 315 315 316 317 319 318 318 317 319 319 321 322 325 326 324 326 323 326 326
299 295 292 297 303 304 302 299 297 293 290 293 291 293 306 307 310 311 312 314 312 311 312 314 314 313 314 315 316 318 318 318 317 319 318 320 323 324 325 325 325 326 324 326
299 295 289 293 297 301 300 302 301 298 296 293 290 292 306 308 308 314 312 313 313 312 312 312 314 312 313 314 316 318 319 316 317 319 316 320 322 322 323 324 323 326 324 324
305 295 293 290 295 299 298 301 301 298 292 294 296 297 303 305 306 310 312 312 312 312 313 313 314 310 313 313 317 318 318 315 315 318 315 319 320 320 321 323 325 326 326 325
300 293 297 298 300 301 301 301 301 298 299 296 298 299 302 305 306 310 312 312 312 311 312 313 313 310 311 311 315 318 318 314 315 317 315 317 319 322 322 322 324 325 327 325
296 294 297 295 301 300 300 302 302 302 301 300 300 299 306 310 309 310 313 313 312 312 314 314 315 311 312 313 314 317 317 314 314 317 316 318 318 321 322 319 319 322 323 322
292 296 294 291 297 298 294 301 301 302 302 301 297 300 305 306 307 307 313 313 313 313 314 315 315 313 313 314 314 316 316 313 313 317 318 318 318 321 321 320 319 319 320 318
291 292 295 292 294 286 298 305 306 303 304 303 303 305 306 307 309 311 316 314 314 315 315 316 316 313 313 315 314 316 315 313 313 315 317 317 317 319 320 319 319 319 319 317
297 294 293 290 290 296 300 304 303 301 300 306 303 306 308 308 308 307 317 318 316 316 317 317 318 315 314 316 316 317 314 312 312 313 314 317 316 316 317 319 317 319 319 318
299 300 295 292 287 286 297 305 308 306 297 306 306 305 305 306 302 303 312 317 317 318 318 318 319 317 316 316 317 316 315 312 311 313 314 316 316 316 315 319 319 320 320 320
295 296 294 292 289 294 303 308 308 294 295 307 308 307 306 303 306 309 312 317 320 319 319 321 320 316 316 317 318 316 315 313 313 314 314 313 316 316 316 320 321 321 321 319
294 294 293 292 291 288 306 305 298 301 307 309 309 310 308 309 312 313 317 317 319 319 320 321 319 316 317 318 318 316 315 316 315 314 315 313 314 319 323 321 321 321 320 318
293 297 294 296 295 305 308 305 312 312 307 310 310 311 313 313 312 313 313 318 319 320 320 321 320 317 318 319 318 316 316 318 317 314 313 314 315 316 322 321 320 318 318 318
296 297 296 297 301 302 308 310 312 312 310 313 314 314 313 311 312 312 316 318 319 320 320 321 321 318 317 318 318 319 320 320 317 314 314 315 313 315 321 322 321 319 316 315
295 296 298 298 300 302 304 307 311 314 314 314 314 315 314 313 312 312 316 319 320 321 321 322 322 320 318 318 319 320 322 320 316 315 316 314 313 317 318 320 320 318 317 315
297 295 294 294 299 299 300 303 314 313 312 314 313 314 315 314 313 313 314 319 319 320 322 322 322 322 321 320 320 321 321 320 317 317 317 315 313 316 317 317 315 300 302 303

GFSCGP_sfc_thetae_018.txt.gz
Theta_e
300 297 293 298 298 299 299 296 295 300 304 302 301 302 306 309 306 306 306 307 309 309 314 317 317 316 317 318 319 318 319 320 320 322 320 321 321 321 323 324 327 326 322 322
294 292 298 300 299 297 297 295 296 300 304 300 301 302 306 307 307 306 307 307 307 310 314 316 315 315 316 317 319 320 318 320 322 323 322 323 323 323 323 324 327 328 325 324
292 296 302 300 297 297 297 295 296 298 302 303 300 299 302 307 307 308 308 308 310 311 312 314 314 313 314 315 318 319 320 321 324 323 323 322 321 322 321 321 325 325 328 326
294 299 299 297 295 296 294 302 300 300 298 292 300 289 296 301 303 305 306 305 308 310 313 315 313 311 312 314 319 319 321 323 324 324 321 318 317 317 319 319 321 321 325 327
292 295 295 294 295 298 297 303 301 301 298 295 296 290 295 300 300 303 305 307 308 310 312 313 313 314 315 316 317 320 321 324 324 323 322 319 317 319 320 318 319 320 323 326
296 300 298 296 299 299 301 300 299 298 296 288 295 293 295 296 301 303 304 308 309 310 311 313 315 315 314 315 317 319 321 322 323 322 321 319 317 318 317 316 317 319 322 323
295 295 299 300 295 299 298 292 286 284 287 287 296 293 297 300 304 305 306 308 309 311 313 314 314 313 313 315 317 319 320 319 321 322 322 320 318 319 317 318 318 319 319 321
288 287 296 300 296 293 294 293 288 282 283 287 296 290 297 303 306 306 310 310 311 311 313 314 314 313 314 315 317 320 317 318 320 321 321 320 321 319 319 319 320 319 320 322
288 290 300 301 301 298 293 290 297 290 291 287 291 296 302 304 304 307 308 310 309 310 312 313 313 312 311 315 316 318 317 316 320 320 321 320 321 321 322 320 320 320 323 325
293 287 297 300 301 300 296 299 291 289 285 282 289 292 294 298 302 306 307 307 308 310 312 313 313 311 312 315 314 317 317 317 319 319 319 322 322 323 323 324 321 321 323 322
296 291 293 297 295 294 292 293 294 294 291 286 284 289 298 300 301 306 307 308 309 310 312 313 312 312 311 313 313 316 316 317 316 319 318 320 321 323 323 323 321 324 323 324
297 290 288 292 296 301 297 293 296 291 288 290 289 290 302 301 307 309 308 310 310 311 312 313 312 311 311 312 314 314 314 316 315 316 317 319 321 323 322 322 321 321 322 325
296 292 285 289 292 297 295 296 297 294 292 290 288 290 303 306 308 310 309 309 310 311 311 311 310 311 312 312 314 315 315 314 315 316 316 319 320 322 321 320 322 322 323 326
297 291 290 287 292 295 293 296 299 296 289 290 294 294 300 303 307 308 309 310 310 311 312 312 310 310 312 313 314 315 315 314 315 314 317 318 317 319 320 321 324 322 324 325
291 288 293 294 296 297 297 297 298 297 296 294 295 296 300 302 308 310 310 310 310 310 311 312 310 309 310 312 314 316 315 313 315 314 316 316 317 318 320 322 323 323 323 324
290 286 293 291 296 296 294 298 299 300 298 297 298 297 303 306 312 311 310 310 310 310 312 313 312 310 309 313 314 316 315 312 316 313 314 318 318 320 318 319 322 322 321 321
287 288 288 288 294 294 290 295 298 300 301 300 295 298 302 304 307 310 309 311 311 311 312 313 313 311 311 312 315 315 314 313 315 314 316 317 317 321 317 317 318 317 316 316
287 287 287 287 290 283 295 301 302 301 301 303 299 301 304 306 307 312 313 312 312 312 313 314 314 311 312 312 314 315 312 314 315 314 316 316 316 319 317 317 317 315 314 314
292 288 285 286 287 291 295 300 299 298 297 301 302 302 304 305 305 305 314 314 313 314 315 315 316 312 312 312 314 315 311 313 315 315 315 315 317 317 317 315 315 315 314 312
292 292 290 289 284 284 293 303 305 303 295 303 304 302 302 303 300 301 313 315 314 315 316 316 315 312 313 313 315 313 310 311 313 314 315 315 316 315 316 315 316 315 314 313
290 289 286 287 287 291 299 304 306 294 296 303 304 304 303 302 305 306 314 315 316 315 315 316 315 313 313 314 315 312 310 309 312 314 316 314 314 313 316 315 316 316 316 314
290 291 289 290 288 286 304 303 297 301 302 305 305 304 303 305 306 306 314 316 315 315 315 317 314 313 314 315 316 313 310 311 312 314 314 313 313 315 318 317 316 317 315 314
287 292 289 293 292 299 302 302 303 309 306 307 305 306 307 306 307 311 311 315 316 315 316 318 315 312 314 315 316 314 313 313 312 312 311 311 314 314 319 318 316 316 315 314
293 296 291 294 296 296 300 301 303 306 311 312 312 308 308 308 308 309 312 315 316 317 317 318 315 313 313 315 316 316 316 315 313 311 310 310 314 315 319 320 319 318 316 314
293 294 293 294 295 297 299 300 302 302 306 312 315 312 311 310 308 309 313 315 317 317 318 318 315 314 314 315 315 316 318 317 313 311 311 310 313 316 318 319 319 319 319 317
296 292 291 291 296 295 297 301 303 301 302 312 314 315 312 310 308 312 315 317 318 318 318 318 317 315 315 316 316 317 319 317 315 312 312 311 311 315 318 317 313 298 306 302

GFSCGP_sfc_thetae_021.txt.gz
Theta_e
296 293 293 296 298 299 296 294 294 297 301 299 298 299 302 305 304 305 306 305 306 307 308 312 313 316 317 317 317 316 318 318 317 319 318 319 319 320 321 322 323 327 325 322
293 290 297 303 301 299 296 293 293 298 301 298 298 298 302 304 304 305 306 306 306 309 311 312 313 316 318 316 316 317 317 318 319 320 319 320 320 320 321 321 322 325 326 324
291 294 299 300 298 296 295 293 293 294 299 300 298 297 299 304 305 306 307 306 307 309 310 311 313 315 315 315 317 317 317 319 322 321 320 319 318 319 319 319 320 322 324 327
291 296 297 296 296 295 290 298 297 296 294 288 298 287 295 299 302 303 304 303 305 308 311 312 312 311 314 315 318 317 319 321 321 321 319 316 315 314 316 317 318 319 323 326
290 293 293 293 295 297 294 300 298 298 294 291 295 289 293 297 298 301 303 303 305 308 311 311 311 312 312 315 316 318 320 321 320 320 318 316 315 316 317 316 317 317 321 323
293 298 297 296 299 299 299 296 295 294 292 287 293 291 290 295 299 301 303 305 306 308 310 310 311 312 312 314 316 318 320 320 320 320 318 316 315 314 313 314 316 318 319 320
292 293 296 298 293 296 294 288 282 280 282 284 293 290 294 298 302 303 303 305 306 309 310 310 311 311 311 314 316 317 319 318 319 320 319 318 316 315 314 315 316 316 317 318
287 285 294 298 294 291 292 291 284 279 281 286 294 289 294 302 305 305 305 306 308 309 310 311 311 311 312 315 316 318 318 316 318 319 318 318 318 317 316 319 318 318 318 318
287 287 297 298 298 296 290 288 294 287 288 285 289 294 300 302 303 304 305 307 306 309 310 311 311 311 312 313 316 317 315 316 318 319 319 318 319 318 321 320 318 319 320 323
291 285 295 297 299 297 292 294 286 286 281 281 287 289 292 297 300 304 304 304 306 308 310 311 311 310 313 314 314 316 315 315 318 318 318 320 320 321 321 320 320 319 319 320
292 288 290 294 292 292 289 289 289 289 288 283 282 287 297 298 301 303 304 305 307 309 310 312 311 310 313 312 312 315 314 316 316 317 317 319 320 320 320 319 319 320 320 321
292 288 286 289 294 299 295 291 291 288 285 288 287 289 300 300 301 306 305 307 307 309 311 311 310 308 310 311 311 314 314 315 315 317 317 319 320 320 318 318 320 320 320 322
292 288 284 285 290 293 293 293 294 290 290 287 288 291 300 302 301 306 304 306 308 308 309 309 308 309 310 310 313 313 314 314 314 314 317 318 319 319 317 319 320 321 321 321
294 288 288 285 288 292 289 293 293 292 288 289 291 291 297 301 303 305 305 306 308 309 310 310 309 309 310 311 313 313 313 313 314 313 317 317 316 317 319 318 320 321 322 322
288 283 289 293 294 293 294 293 294 293 293 291 294 294 298 302 303 307 308 306 307 308 309 310 309 309 309 309 312 314 313 313 313 314 316 315 315 318 320 321 320 321 322 323
289 282 288 290 294 294 291 294 295 295 296 295 295 294 301 304 307 307 308 308 308 309 311 311 310 309 310 311 312 314 313 313 313 314 315 315 316 318 319 319 320 320 320 321
288 285 283 283 293 291 287 292 293 295 298 298 294 297 300 301 307 308 307 309 309 310 311 312 311 310 311 312 314 312 312 313 312 312 316 316 317 318 316 320 318 316 314 316
288 284 284 281 288 280 292 297 297 296 298 299 297 300 302 303 310 311 312 310 310 311 312 313 312 311 310 313 313 313 311 314 313 312 315 315 318 316 315 316 315 312 312 312
291 286 281 281 282 289 293 296 295 294 294 301 301 300 303 304 305 304 312 313 312 313 313 314 314 312 309 312 313 313 311 313 313 312 314 314 318 315 314 314 312 310 311 311
293 289 284 285 281 280 291 298 301 300 293 300 301 300 301 303 300 301 310 313 313 313 314 314 314 311 309 311 313 312 310 312 312 313 314 313 317 316 315 314 312 311 310 311
285 285 282 284 282 290 297 299 304 292 291 304 302 301 300 303 306 307 312 313 314 313 312 314 313 311 311 311 314 311 309 311 314 315 314 313 314 315 315 314 313 311 311 310
285 286 283 286 285 284 300 299 293 297 302 306 304 301 301 305 304 305 312 313 313 311 312 313 312 311 311 313 314 311 309 312 314 314 314 312 312 316 316 314 314 313 311 309
285 288 287 290 292 297 299 296 299 300 299 305 308 309 303 304 303 306 311 312 313 313 314 314 313 310 311 313 315 311 311 310 312 312 312 310 311 312 315 313 313 313 310 309
291 295 291 291 299 298 297 299 300 301 300 302 310 312 308 303 304 306 312 312 313 313 313 314 312 310 310 313 314 314 311 311 312 310 310 309 311 310 314 315 315 315 312 310
291 293 291 291 296 298 298 298 299 301 302 302 307 313 312 304 305 308 310 313 314 314 314 315 312 311 311 313 314 314 312 311 310 310 308 309 311 312 314 316 315 316 316 315
294 292 290 289 298 296 296 299 301 300 300 302 303 313 313 310 305 307 311 314 315 314 315 315 313 313 313 314 314 314 314 312 310 309 308 308 311 312 314 315 311 298 302 301

GFSCGP_sfc_thetae_024.txt.gz
Theta_e
293 291 291 293 295 294 294 291 291 295 300 297 295 296 300 303 302 301 303 305 306 305 307 309 311 315 317 318 318 317 318 318 317 318 319 319 320 321 322 323 325 325 327 325
291 288 294 297 297 296 294 292 292 297 300 297 296 296 299 302 302 302 304 305 305 306 309 309 310 314 317 318 317 317 318 317 318 320 319 321 321 321 322 323 324 326 327 325
288 292 297 298 296 294 294 293 294 294 296 296 294 293 296 301 303 303 305 306 305 306 308 308 311 313 315 315 316 316 317 318 321 321 320 320 319 319 320 321 322 323 325 326
289 295 294 295 295 296 291 298 298 296 292 286 294 285 294 298 300 302 304 302 303 306 309 309 311 312 315 315 317 317 318 320 321 321 319 317 316 315 318 319 320 321 323 326
288 291 291 292 295 299 294 300 298 296 290 288 291 287 292 296 297 300 302 303 302 306 308 309 311 314 314 316 316 317 319 320 320 321 319 317 316 317 318 318 319 320 322 325
291 297 295 294 298 300 299 296 293 291 289 283 289 289 289 293 298 300 302 303 306 307 307 309 312 313 313 315 316 318 319 320 320 320 319 317 316 316 316 317 318 319 322 323
289 290 293 296 293 295 293 288 280 279 280 281 291 288 291 297 300 302 302 302 305 307 307 309 310 311 312 314 316 318 319 319 320 320 319 318 318 317 318 318 319 319 320 321
285 283 292 295 292 291 292 289 282 277 279 284 292 287 292 300 304 304 304 303 306 307 307 309 310 310 313 315 316 318 318 318 319 320 319 319 319 319 319 322 320 320 320 321
286 286 295 296 296 296 289 288 291 285 287 284 287 291 297 300 301 302 302 305 305 306 307 308 310 310 312 314 316 317 317 317 319 320 319 319 321 321 321 321 323 322 323 324
289 284 293 295 296 296 292 294 285 284 279 279 285 288 291 296 299 303 303 303 304 306 307 309 310 310 312 315 316 316 316 317 319 319 320 321 322 323 322 323 321 321 322 323
290 287 288 292 291 289 287 288 286 287 285 281 281 286 295 298 300 302 303 303 305 307 308 309 310 311 312 313 314 315 315 316 318 318 318 320 322 322 321 321 322 322 323 323
291 286 284 288 293 297 294 289 288 285 283 285 285 286 298 299 300 302 303 305 305 308 309 310 310 309 311 312 312 315 315 315 318 318 318 320 322 322 319 321 322 323 322 324
291 285 281 283 289 291 291 291 290 288 287 285 283 286 299 300 302 301 303 304 306 308 308 308 307 309 311 311 312 314 315 315 316 316 318 320 321 320 319 321 322 323 323 324
294 285 285 282 285 289 288 291 292 287 283 286 290 290 297 300 300 302 303 304 306 308 309 309 308 308 310 311 313 314 314 315 315 316 318 318 319 320 320 321 322 323 324 323
290 281 286 288 291 292 291 291 291 290 291 287 290 292 296 299 301 303 304 305 306 307 308 309 309 308 308 309 312 314 314 314 314 316 317 316 318 320 322 322 322 323 324 325
291 281 285 283 291 292 291 291 292 292 292 291 292 292 298 301 305 305 305 306 307 308 310 310 310 309 308 311 312 314 314 313 314 316 316 316 318 320 321 321 321 322 323 325
287 283 281 279 286 288 286 291 291 292 295 294 290 296 298 301 304 305 305 307 308 309 311 311 311 310 310 311 314 313 313 313 313 316 316 317 319 319 320 321 319 318 318 321
287 285 282 279 285 280 290 295 296 293 294 295 295 297 300 302 306 307 309 309 309 310 311 312 312 311 311 312 313 314 313 313 313 314 316 317 319 316 319 318 316 315 315 318
291 287 281 279 282 287 291 294 293 290 291 297 297 299 300 302 306 306 310 311 311 312 313 314 313 312 310 312 313 314 312 313 313 313 316 316 318 316 317 316 314 314 315 315
291 290 285 282 281 280 290 297 300 298 287 298 302 299 300 303 300 303 309 311 311 312 313 314 313 311 311 313 313 312 312 312 312 313 315 316 318 316 316 315 313 314 315 315
285 285 282 281 280 286 295 297 299 287 287 297 300 305 302 301 306 309 311 312 313 313 313 314 312 310 311 313 314 312 312 312 314 315 315 315 317 317 317 315 314 313 314 314
286 285 282 283 281 282 296 296 289 293 297 298 299 300 303 305 305 306 310 312 311 311 312 314 312 310 310 313 314 312 311 315 315 315 314 314 316 318 317 316 314 313 313 312
285 289 286 289 290 298 298 298 300 298 296 298 298 300 301 308 308 304 308 310 311 312 313 314 313 310 310 313 314 312 313 313 314 314 313 312 315 316 316 315 314 312 312 311
291 294 291 290 297 296 298 301 301 299 298 300 301 301 302 309 309 303 307 310 311 312 313 314 312 310 309 313 314 315 312 314 314 313 312 311 313 313 315 317 316 314 311 311
290 293 291 290 296 297 299 299 299 299 301 300 301 303 309 311 309 304 307 310 312 312 313 313 312 311 311 313 314 313 312 313 313 312 312 311 312 314 314 316 316 317 316 313
293 290 290 289 295 296 296 300 301 299 300 300 301 302 311 311 308 305 307 312 312 312 313 313 312 312 312 313 314 312 312 313 312 310 310 311 311 312 315 315 312 297 303 301

GFSCGP_sfc_thetae_027.txt.gz
Theta_e
297 294 293 296 297 298 299 297 297 299 302 300 301 302 305 308 309 309 310 312 314 316 320 317 318 321 324 326 328 330 331 333 332 330 330 331 331 334 334 335 336 335 335 335
294 291 297 300 299 296 296 295 295 299 301 301 302 301 305 307 307 309 310 312 314 317 317 317 317 321 324 325 327 329 332 332 332 332 333 335 336 335 334 335 335 335 335 336
292 295 298 297 297 295 295 294 295 296 300 302 301 299 302 306 308 309 311 314 315 316 317 317 317 321 324 325 327 330 331 332 332 335 334 334 334 332 332 333 333 335 333 334
294 298 296 294 295 297 293 299 298 297 295 293 300 292 300 303 304 307 310 313 315 315 316 318 318 321 323 325 329 331 331 332 334 335 334 333 329 328 331 331 332 332 332 332
291 293 293 293 295 298 296 300 298 297 295 296 296 293 297 303 301 305 308 312 315 314 317 317 319 321 324 326 327 330 331 333 334 334 334 330 329 330 331 330 330 332 334 332
295 298 297 296 298 300 301 299 299 299 297 290 296 294 294 298 301 304 308 312 314 315 316 318 321 323 324 326 327 329 331 332 334 334 333 330 328 328 329 330 331 331 331 331
293 293 297 298 295 299 300 296 289 287 288 289 296 293 295 302 305 307 309 313 315 316 316 317 319 321 323 324 326 329 331 331 332 333 331 330 329 329 329 330 330 330 330 331
288 286 294 297 296 295 297 297 291 284 285 289 295 289 294 305 308 309 312 313 315 316 317 318 320 322 323 325 327 328 330 331 332 332 331 331 330 332 332 332 332 332 331 331
290 290 298 297 298 298 296 293 299 293 293 291 293 296 303 307 308 309 310 311 314 316 316 318 320 322 323 325 327 329 330 331 332 332 332 331 333 332 333 332 333 334 333 332
293 289 296 297 299 300 298 300 290 293 285 284 290 293 295 303 306 309 310 312 314 316 316 317 319 321 324 326 328 329 330 330 331 332 331 332 333 333 331 334 331 333 333 333
294 293 293 296 293 293 294 294 295 296 293 287 286 292 307 307 309 311 313 314 314 315 316 317 319 321 324 326 326 328 328 328 329 331 330 331 332 331 330 333 332 334 334 333
294 293 290 292 298 299 297 296 296 290 289 292 293 292 306 309 309 311 313 313 315 317 317 318 319 320 322 324 325 326 328 327 329 330 329 331 332 330 330 332 332 334 333 332
293 291 288 290 294 298 295 296 297 297 297 291 289 293 305 307 308 310 313 313 314 316 317 318 318 319 320 322 323 325 326 327 328 328 329 331 330 329 330 332 332 333 333 332
295 290 289 288 291 295 292 294 296 296 291 291 292 295 302 305 308 311 312 314 315 316 316 317 318 319 321 322 322 324 326 327 327 327 328 330 330 330 330 332 332 333 333 331
292 285 288 290 291 293 294 294 294 293 295 291 294 295 301 304 308 311 313 314 315 315 316 317 318 319 321 321 322 324 325 326 326 326 327 328 329 331 331 331 332 333 332 332
293 286 289 289 292 293 292 295 295 295 295 296 297 298 304 308 310 311 312 313 314 315 316 318 318 319 320 321 321 323 324 325 325 325 326 327 329 330 330 331 332 333 332 328
290 289 287 287 290 292 289 295 296 296 297 297 294 299 304 305 309 312 314 314 315 317 317 318 319 320 321 322 323 323 324 326 324 324 325 326 328 329 329 330 330 331 330 331
290 288 289 286 290 283 295 302 301 298 299 300 301 302 305 306 309 314 317 316 317 318 319 320 320 321 322 323 323 325 325 324 323 324 324 325 326 328 329 329 327 327 328 328
294 290 287 285 287 292 296 298 297 297 298 302 304 303 305 308 311 312 317 319 320 321 322 322 323 323 323 322 324 324 323 323 322 322 323 324 326 327 327 326 325 327 329 330
293 293 288 287 283 285 294 299 302 302 294 301 302 303 308 310 301 306 317 320 320 322 323 322 323 324 323 323 324 323 322 323 322 322 323 325 327 327 327 326 325 327 329 329
286 286 284 286 286 290 298 301 302 293 294 301 302 303 304 306 309 316 316 322 322 322 323 324 323 322 323 324 323 322 322 322 324 324 324 325 327 326 329 326 326 328 328 328
287 286 284 286 285 285 300 301 295 298 302 302 303 304 304 306 308 311 315 317 321 321 321 322 321 321 324 323 323 322 322 324 325 324 323 324 328 325 325 326 326 327 328 328
287 291 289 291 292 300 300 301 305 303 301 302 303 304 306 307 309 312 315 317 320 321 322 322 321 321 322 323 323 322 324 325 324 323 323 324 327 326 327 325 324 325 327 326
292 295 293 292 296 298 298 301 302 303 303 304 305 305 307 308 315 317 319 318 318 321 321 322 322 320 319 322 323 325 324 324 323 323 323 323 325 325 327 325 324 322 324 323
290 293 292 292 296 298 300 300 301 302 304 304 306 307 309 312 314 316 317 318 317 320 321 322 322 322 320 321 323 325 324 323 323 324 323 322 323 324 325 326 324 322 325 321
295 294 292 292 297 296 296 300 301 302 303 305 305 306 311 314 316 317 317 317 318 320 321 321 322 322 321 321 322 323 323 323 324 323 321 321 321 323 324 324 323 298 305 302

GFSCGP_sfc_thetae_030.txt.gz
Theta_e
302 297 296 300 303 305 305 304 304 306 310 307 306 307 310 314 314 314 316 316 317 318 324 326 328 328 329 332 333 335 336 340 337 335 333 332 331 334 337 338 340 340 340 338
299 295 301 303 304 302 302 301 303 307 309 308 305 306 311 313 314 315 315 316 317 319 323 325 326 328 330 332 334 335 337 339 338 335 336 334 334 336 337 339 339 340 339 337
296 298 302 301 301 300 300 299 301 302 306 307 305 302 306 312 314 316 316 316 317 317 322 325 325 328 330 331 334 335 338 339 339 339 337 338 338 337 334 335 336 337 338 338
297 302 300 299 298 301 297 303 301 301 299 295 304 296 305 310 311 313 314 316 316 320 323 325 326 328 330 331 334 336 338 339 338 339 337 336 331 329 335 333 338 336 337 336
295 297 299 298 299 302 299 304 302 301 299 299 300 297 303 309 307 310 314 315 316 322 322 325 326 328 330 332 333 336 338 337 339 339 338 334 333 333 335 336 334 338 338 334
298 303 301 301 302 302 303 302 302 302 300 293 299 298 300 305 308 311 315 313 316 322 324 326 328 329 330 332 333 335 335 337 339 339 339 335 334 333 333 334 335 336 339 337
296 297 301 302 299 302 301 299 293 291 292 291 301 299 301 309 311 312 312 313 320 323 324 325 326 327 328 330 332 333 335 335 338 337 337 336 335 334 334 334 335 334 336 334
289 289 297 301 300 298 299 300 294 288 291 295 302 296 302 309 313 314 313 314 321 323 325 325 326 327 328 329 331 332 333 333 335 336 336 336 336 335 335 336 337 336 336 333
290 292 301 301 302 303 299 297 303 299 300 295 299 303 306 308 309 310 311 313 319 323 325 325 327 328 328 330 331 332 333 332 334 335 335 336 336 336 335 336 339 340 336 334
295 291 300 299 302 303 302 304 296 299 291 290 296 297 297 304 307 310 314 315 319 323 324 325 326 328 329 331 332 333 331 332 334 335 335 335 336 336 337 339 336 335 337 334
297 295 297 299 297 297 299 299 301 301 299 293 292 295 305 306 310 313 316 318 321 322 323 325 326 328 329 330 331 330 331 332 333 333 334 334 335 336 337 338 336 336 337 335
297 296 292 296 301 303 302 300 301 295 294 297 297 296 309 312 314 315 316 321 322 323 324 324 325 327 328 329 329 329 330 330 332 332 332 333 335 335 337 335 334 335 335 335
294 294 291 293 298 301 299 301 302 303 303 297 293 294 309 312 314 315 318 319 321 322 323 324 325 325 327 328 327 326 328 328 329 330 331 333 334 335 334 335 335 335 335 333
296 294 294 291 294 298 296 298 301 301 296 297 296 298 306 310 312 315 318 320 321 322 323 323 324 325 326 327 325 325 327 329 329 328 329 332 333 334 335 335 334 335 335 333
296 291 295 296 296 296 298 297 298 298 299 296 298 298 303 311 311 315 319 320 321 321 322 323 323 325 326 326 324 325 327 328 328 327 328 331 333 334 334 335 334 335 334 333
296 290 295 292 296 296 295 298 299 299 300 299 300 299 307 309 310 312 317 319 320 321 322 323 324 325 326 325 324 325 326 327 328 326 327 330 332 332 334 335 335 334 332 332
292 292 292 289 295 294 292 297 299 300 301 301 297 303 307 307 309 312 316 319 321 322 323 323 324 326 327 326 325 325 326 327 327 326 327 330 332 331 333 334 334 333 332 328
292 291 292 291 294 286 299 305 303 301 302 303 303 305 307 308 312 314 316 320 322 324 324 325 326 327 329 328 326 327 326 326 325 325 325 330 330 330 332 334 334 335 332 329
296 292 290 289 290 295 299 302 302 300 301 306 306 306 307 309 311 311 316 319 323 326 327 328 328 329 330 327 326 326 325 325 324 324 324 328 330 329 331 330 332 335 336 334
295 295 289 291 288 287 298 303 306 306 299 306 307 308 309 312 305 311 321 324 322 327 329 329 329 330 330 328 327 326 325 324 323 324 324 326 329 330 329 330 333 336 336 334
288 289 286 287 291 295 302 305 307 295 298 307 308 309 309 309 313 318 320 321 325 327 329 331 330 329 331 329 327 325 324 323 324 325 325 325 330 330 331 331 335 336 335 333
289 286 286 287 289 289 304 305 300 303 308 308 309 311 311 313 315 317 319 319 323 325 328 330 329 329 331 329 327 325 324 326 325 326 325 325 331 328 330 330 335 335 334 332
289 293 292 293 292 301 303 305 307 308 307 308 309 311 312 313 315 318 321 322 323 325 327 329 329 330 330 329 327 325 326 327 325 325 326 326 328 329 329 329 332 333 334 331
295 299 294 297 300 301 300 304 306 307 308 310 311 313 314 315 318 320 322 324 325 323 326 329 329 328 328 329 328 327 327 326 326 326 326 326 327 328 330 328 327 329 330 328
291 293 294 297 300 303 301 302 304 306 308 309 312 312 313 317 319 321 322 323 324 324 327 329 328 328 329 329 328 329 327 326 326 327 327 327 326 327 329 329 325 324 330 323
297 295 292 291 298 299 300 302 305 305 304 308 310 311 314 316 319 322 324 326 325 324 326 327 329 329 329 329 328 329 329 326 326 326 327 326 324 326 326 328 327 298 303 305

GFSCGP_sfc_thetae_033.txt.gz
Theta_e
305 299 296 300 303 305 305 304 304 308 312 309 309 310 314 315 314 315 316 317 319 321 324 326 329 333 333 336 340 341 340 349 346 340 336 336 334 336 335 338 340 341 340 341
301 296 302 303 304 303 303 302 303 308 312 310 310 308 312 314 314 315 316 318 320 321 323 323 331 333 333 336 338 339 339 344 344 340 342 337 337 334 337 338 341 341 340 342
296 300 304 302 301 301 302 301 302 304 309 310 309 306 309 313 315 315 316 318 320 321 321 322 330 332 334 335 337 338 340 342 345 346 342 340 339 339 335 335 336 339 339 339
298 302 302 301 300 302 298 305 304 304 303 299 308 298 305 309 310 313 316 318 320 320 322 322 331 333 334 335 337 340 341 341 341 343 343 343 333 330 333 336 334 338 337 337
295 299 298 299 300 303 301 306 305 304 302 301 301 298 303 307 307 311 315 318 320 321 320 325 330 332 334 336 337 339 341 340 341 341 342 337 335 331 334 334 336 339 340 339
297 303 302 301 304 305 305 303 304 305 302 295 300 299 300 304 308 311 316 319 320 320 321 327 331 333 333 335 337 338 339 339 340 339 340 339 336 334 333 334 334 337 342 340
293 296 302 304 300 304 304 300 293 293 294 294 302 299 303 308 311 313 315 317 318 319 326 328 330 330 332 333 335 336 337 337 339 339 337 337 337 336 336 335 338 336 338 337
288 286 297 303 301 299 301 300 294 288 291 294 302 297 302 313 315 317 318 318 317 324 327 328 329 331 331 333 334 334 336 336 337 336 336 337 337 334 335 337 339 338 336 339
290 289 300 302 303 303 300 298 304 298 301 296 301 306 311 313 313 314 315 317 317 324 327 328 330 331 331 332 333 335 335 335 335 335 336 335 336 337 336 337 340 339 338 335
296 290 296 301 303 303 302 305 296 299 291 291 299 301 303 306 308 312 312 313 317 324 327 328 329 331 331 333 334 336 335 334 333 334 334 334 339 336 336 339 337 337 338 334
297 295 296 298 298 297 299 299 300 302 300 294 293 299 311 309 311 312 313 315 317 324 326 327 329 330 331 333 333 334 332 332 333 333 334 335 337 335 335 337 336 337 337 334
298 294 292 295 303 304 302 301 302 297 296 300 300 300 310 311 313 316 317 318 321 326 327 328 329 330 330 332 332 330 332 331 332 332 332 333 338 333 336 334 336 336 335 334
297 294 289 293 299 302 299 302 304 304 305 300 297 300 310 313 315 317 318 320 324 325 326 327 328 328 329 331 330 329 329 330 331 330 330 333 334 336 335 335 335 336 335 333
296 294 291 289 295 299 297 300 303 303 299 301 301 301 307 312 314 317 320 322 323 325 325 326 327 328 329 330 327 327 327 329 330 328 330 332 335 334 335 335 335 335 335 333
294 291 292 293 296 298 299 299 301 301 303 300 303 302 307 313 315 317 321 322 322 323 324 325 326 328 329 328 326 327 327 328 329 327 329 332 335 336 335 334 334 335 335 332
295 291 294 290 293 297 297 300 301 302 303 304 304 302 310 312 314 316 319 321 321 322 324 325 326 328 328 327 324 326 327 327 328 328 329 332 333 332 334 334 335 335 334 333
293 293 293 286 293 295 292 299 301 302 305 304 300 303 309 309 310 312 319 321 321 323 324 326 326 328 329 327 326 326 327 328 327 327 330 331 332 331 333 333 333 332 333 333
294 291 294 288 291 286 298 305 305 302 304 306 305 307 309 310 314 316 321 322 322 324 325 327 328 330 331 328 326 327 327 326 326 326 328 331 331 330 332 333 334 333 332 330
296 292 289 288 289 296 299 304 302 302 301 306 306 308 309 312 313 314 323 323 324 327 328 329 330 331 332 328 327 327 326 325 325 325 327 330 330 331 331 331 334 336 334 334
297 297 292 291 288 285 297 306 309 309 300 309 310 310 313 313 305 313 321 324 327 327 330 330 331 332 332 329 328 326 325 324 324 325 326 330 330 331 331 332 335 338 337 334
291 293 289 290 291 296 303 308 309 297 298 310 311 312 312 311 315 319 321 322 325 329 330 332 332 331 332 330 327 325 325 323 325 326 326 329 330 331 333 333 337 337 335 334
289 287 291 292 291 289 306 307 302 305 310 311 312 313 313 316 317 319 321 323 323 326 329 331 331 331 333 330 327 325 325 326 325 327 326 328 331 330 332 333 336 335 334 331
290 294 295 297 294 302 304 305 309 310 309 312 313 314 315 316 318 321 321 324 325 326 329 331 331 332 333 330 327 325 327 327 325 326 326 327 331 329 331 332 334 332 334 329
293 300 297 299 298 301 305 307 308 310 310 312 315 315 316 316 320 322 324 325 326 326 329 331 331 331 331 330 328 327 327 327 325 326 327 328 330 328 329 328 332 331 330 326
293 297 297 296 297 301 305 307 307 308 311 310 313 315 315 317 319 322 324 326 326 327 328 331 331 331 332 331 328 328 327 326 326 326 327 327 328 329 328 327 327 329 333 323
298 295 293 291 298 299 300 306 308 307 309 309 310 313 316 317 318 322 325 328 328 327 327 330 331 332 332 331 328 327 327 326 328 328 326 326 326 327 330 327 324 298 302 303

GFSCGP_sfc_thetae_036.txt.gz
Theta_e
301 297 295 297 301 302 303 303 302 306 310 309 308 309 311 316 317 316 317 318 318 320 324 328 332 343 340 343 346 350 349 351 349 347 343 341 338 341 341 343 344 344 344 342
297 294 301 302 301 300 300 300 301 306 308 308 307 308 312 315 315 316 317 317 318 320 324 328 333 339 340 342 345 346 346 351 348 346 344 341 340 338 339 341 344 344 343 343
294 297 302 301 299 298 299 298 300 300 305 307 306 304 309 313 316 317 318 319 320 320 319 321 331 337 338 339 341 342 345 347 346 346 345 349 345 346 342 340 340 342 341 341
296 300 298 299 298 300 296 302 301 301 299 296 305 295 306 310 312 315 316 318 318 320 322 324 330 335 337 337 340 341 345 344 345 348 345 344 339 335 338 340 338 340 341 339
291 296 297 295 298 302 299 303 302 301 300 300 300 298 302 309 307 310 314 316 318 320 323 326 332 335 336 338 338 341 343 342 346 346 344 343 342 341 341 339 339 341 341 338
293 298 297 299 301 301 304 301 301 301 300 294 300 298 298 303 307 310 314 316 317 321 323 325 334 335 334 337 338 340 340 342 343 344 346 345 341 340 338 338 337 338 339 340
293 293 296 299 297 301 300 299 292 291 291 291 301 298 300 308 310 311 313 315 318 322 322 329 331 331 333 334 337 338 339 339 341 342 342 342 341 341 340 339 337 337 337 336
288 287 293 297 296 296 298 299 293 286 288 292 299 295 301 311 313 315 317 318 320 321 328 329 330 331 332 334 336 336 337 337 339 339 339 341 342 338 339 341 339 337 336 337
287 288 299 297 299 300 297 294 301 296 297 293 297 302 307 310 312 315 314 318 319 325 328 329 330 331 332 334 335 336 336 337 337 338 340 339 340 341 340 340 341 338 339 337
290 285 295 299 298 299 299 302 294 297 289 288 295 298 300 308 311 313 315 316 319 326 327 328 329 331 333 334 336 338 338 336 336 337 337 336 339 336 335 340 338 339 338 334
294 290 291 298 294 293 297 296 298 300 297 292 291 296 310 312 313 312 315 316 319 325 326 328 328 332 333 334 334 336 336 334 334 336 337 335 337 334 337 339 338 337 338 334
295 292 288 292 300 300 301 298 299 294 294 297 297 297 313 312 313 315 315 316 322 326 326 327 329 330 331 332 333 334 334 332 333 334 334 334 333 335 337 337 337 338 337 335
294 291 286 289 295 300 297 299 301 302 304 297 293 297 313 312 312 315 317 316 322 325 326 327 328 328 329 331 331 330 331 331 331 331 333 333 335 336 336 335 337 337 336 333
295 290 288 285 289 294 293 298 300 300 296 297 299 301 307 309 312 316 319 321 323 324 325 326 327 328 330 331 329 328 329 330 331 330 331 334 336 336 335 336 337 337 336 333
292 287 290 291 292 293 293 296 298 298 301 298 301 302 306 312 315 318 323 324 323 323 324 326 326 328 330 330 328 327 328 329 330 328 332 335 337 335 336 334 334 335 336 333
293 287 292 289 292 291 290 295 298 300 302 303 304 304 313 315 317 318 320 321 321 322 324 326 328 329 329 328 325 327 328 328 329 329 332 334 334 332 335 334 334 335 334 332
292 291 289 285 291 289 287 296 299 301 303 305 301 307 312 310 311 317 320 322 321 323 324 325 327 329 330 327 327 327 328 328 328 329 332 332 332 332 333 333 333 332 332 332
292 291 291 287 287 279 295 305 304 302 304 308 306 307 310 311 314 318 321 322 323 324 325 327 328 331 332 328 327 329 328 326 326 328 330 331 331 331 333 333 333 333 334 330
297 292 288 286 286 288 294 302 303 301 302 308 307 307 308 312 318 317 321 324 326 327 328 329 331 333 332 328 328 327 326 325 325 326 329 331 331 331 332 332 334 332 332 331
295 296 290 289 285 283 297 305 310 309 298 309 311 311 312 313 306 313 320 322 324 329 330 329 331 333 332 329 329 327 325 324 324 325 329 330 332 333 330 334 333 335 334 331
289 291 288 288 286 288 300 305 310 296 298 310 312 313 313 311 314 319 321 322 325 327 330 332 332 332 333 331 329 326 325 323 326 326 329 330 332 334 335 335 335 335 333 331
290 288 288 290 288 284 301 304 300 304 312 312 312 313 313 315 317 318 320 323 324 325 330 331 331 333 333 330 328 327 326 326 327 326 327 330 333 331 333 335 335 334 333 330
289 292 290 294 293 300 304 304 307 308 308 310 312 313 315 316 318 320 321 323 325 326 328 331 331 334 333 330 328 327 329 327 326 326 327 330 331 332 333 334 334 332 331 329
295 299 293 295 295 298 303 305 307 309 309 311 311 314 316 315 318 321 322 323 324 325 326 332 332 332 332 330 329 330 329 327 325 327 328 331 330 329 331 334 334 331 331 330
295 297 295 294 297 299 300 304 306 308 309 310 311 312 315 316 317 320 323 324 325 326 327 332 331 332 332 330 328 329 328 327 326 329 328 330 329 329 329 332 328 331 317 326
297 295 293 292 299 298 300 303 306 306 308 309 309 310 315 316 316 319 322 327 328 327 328 331 334 334 333 331 328 328 328 327 328 328 328 327 328 329 326 325 321 297 301 300

GFSCGP_sfc_thetae_039.txt.gz
Theta_e
294 290 289 292 294 297 298 298 297 301 305 303 302 303 306 309 309 309 310 310 312 313 316 316 319 321 327 330 333 336 340 340 343 341 337 333 331 330 329 331 332 335 336 336
292 287 294 298 297 295 295 293 294 300 305 303 302 301 306 309 309 310 311 311 312 312 314 317 319 326 326 330 333 334 337 339 338 338 334 332 331 329 329 330 331 333 334 332
290 292 297 296 295 294 293 292 293 293 298 301 299 296 300 305 307 310 311 312 312 312 312 313 320 325 328 330 330 332 336 337 336 336 334 332 331 330 328 328 330 332 333 333
288 294 296 294 293 296 290 297 297 296 294 289 297 288 297 301 303 306 309 310 310 312 314 313 321 325 327 329 331 333 336 335 335 333 331 329 325 323 325 325 329 331 332 331
286 289 291 292 293 297 293 300 297 297 293 292 293 288 295 300 301 304 307 309 310 310 312 313 323 328 329 330 331 334 334 333 334 331 331 329 326 327 326 326 328 328 329 331
290 295 292 291 294 298 298 296 296 295 292 285 291 291 292 295 299 302 306 309 309 309 311 322 328 329 329 331 332 333 332 331 331 332 331 327 325 325 325 324 325 325 327 328
290 290 293 295 290 293 293 289 283 283 284 284 293 291 294 299 303 305 306 307 309 311 313 324 325 326 327 330 331 331 330 329 330 332 330 329 326 325 323 325 323 324 325 326
285 283 293 297 291 288 288 290 284 278 281 285 294 289 293 303 307 308 309 308 310 310 322 324 325 326 328 330 331 330 330 329 329 329 327 328 327 325 326 326 326 326 325 325
285 285 295 294 294 293 288 285 293 287 290 286 290 294 299 302 303 306 307 309 310 318 322 323 324 326 328 329 329 329 329 329 329 328 328 327 327 328 326 327 329 326 327 329
289 282 291 291 295 297 293 293 286 288 281 280 288 290 291 298 301 305 306 307 315 321 322 323 324 326 329 329 328 329 329 329 329 328 327 327 326 328 328 327 327 327 327 326
289 286 286 291 289 290 291 287 288 288 288 283 283 288 298 300 306 303 306 308 318 320 321 323 325 327 328 328 329 329 328 328 327 327 326 330 327 328 327 327 328 326 325 326
292 288 284 287 294 296 295 290 289 285 284 289 289 289 301 304 305 306 307 309 319 320 322 323 325 326 326 326 328 327 327 325 326 327 326 329 328 327 327 327 327 326 326 326
290 285 281 283 289 294 292 295 293 291 292 288 286 290 302 304 305 308 306 316 319 320 321 323 324 325 325 326 327 326 325 324 325 326 327 329 326 326 325 327 328 328 327 326
295 287 284 280 284 290 289 291 293 291 288 289 291 293 299 303 305 307 310 318 319 320 321 322 323 323 324 326 325 324 323 324 324 328 325 326 326 326 325 326 327 326 327 328
292 284 287 288 291 291 289 289 291 289 291 290 293 295 298 303 309 310 315 318 318 319 320 321 322 323 324 324 322 323 322 323 323 326 328 327 326 326 327 327 327 327 326 327
294 285 288 287 291 291 288 290 291 291 292 294 296 296 304 312 317 316 316 317 318 319 321 322 323 323 324 322 321 321 321 322 321 327 327 329 327 328 325 325 326 326 325 325
290 287 287 283 290 289 284 289 290 291 294 295 293 300 308 308 312 313 315 317 318 320 321 322 323 324 323 320 320 319 320 320 322 327 328 329 327 327 326 328 327 325 323 322
287 286 288 286 287 278 289 296 297 297 297 301 302 306 308 310 312 315 315 316 319 320 321 322 323 323 322 320 320 320 321 319 322 326 327 328 328 327 326 326 325 323 323 322
292 289 286 284 285 288 291 298 297 297 300 307 305 307 310 313 312 311 317 317 317 321 322 323 325 324 321 321 321 321 318 319 320 325 326 327 328 326 326 326 324 324 323 323
293 293 288 286 282 281 292 296 300 302 295 308 308 309 310 310 303 306 315 318 317 321 323 324 326 324 320 320 321 319 317 317 318 324 326 328 328 327 326 325 324 325 324 323
288 288 285 286 285 288 293 298 302 293 296 309 310 310 309 307 309 311 315 318 320 321 324 326 326 323 321 321 321 318 316 315 319 323 327 327 327 327 327 326 325 324 324 322
286 286 287 288 285 282 299 299 297 302 306 307 309 309 309 311 313 314 316 318 321 321 324 326 325 323 322 322 321 318 316 317 320 321 327 327 328 331 328 326 325 325 322 318
287 290 286 286 287 298 299 299 303 305 306 305 306 310 311 310 312 315 317 318 320 320 321 321 326 323 322 321 321 318 318 318 319 320 325 325 325 329 327 326 325 324 322 318
293 297 293 291 291 295 300 302 304 305 306 306 307 308 309 309 311 314 318 318 319 321 322 324 327 323 320 321 321 322 321 320 320 323 323 324 325 324 327 328 327 325 323 320
294 296 293 293 296 298 299 301 302 304 305 307 308 307 309 309 311 314 314 317 322 321 322 326 326 324 322 322 321 323 321 319 321 323 322 323 324 322 324 318 319 324 325 323
296 293 289 289 296 295 296 300 303 303 303 305 307 306 308 309 311 313 314 316 319 322 322 323 327 326 323 322 322 323 321 320 322 322 322 322 322 321 319 313 310 297 297 305

GFSCGP_sfc_thetae_042.txt.gz
Theta_e
292 286 286 290 293 295 295 295 294 299 303 301 300 301 303 307 306 306 307 309 310 311 314 316 315 315 322 325 326 329 334 335 338 337 334 329 326 327 328 329 332 333 332 332
288 285 291 294 294 293 292 290 291 295 298 299 300 299 304 306 306 307 308 309 308 308 311 314 313 321 324 326 329 333 334 335 336 334 331 330 328 326 327 328 329 333 333 332
287 290 295 292 291 291 291 289 291 291 296 297 295 292 296 301 303 305 306 308 309 308 310 312 314 321 324 328 329 333 334 335 335 334 331 328 327 327 326 325 325 328 332 331
286 290 291 291 289 292 287 295 294 292 290 286 294 285 293 298 300 302 303 305 304 307 311 311 312 320 324 326 328 333 335 334 334 332 329 327 324 322 323 324 325 329 331 330
285 287 287 288 290 294 289 296 294 294 290 289 290 285 291 295 296 298 302 304 307 309 308 310 315 323 325 327 328 333 332 332 330 330 328 325 322 322 322 325 326 325 326 329
289 293 290 288 292 292 293 292 292 292 288 283 288 287 289 292 295 298 302 305 306 306 307 311 321 326 326 329 331 332 330 329 329 328 327 325 324 322 322 322 322 323 324 325
288 288 292 293 288 290 288 283 279 278 280 281 290 287 291 295 298 299 300 304 305 306 312 321 323 324 327 329 329 329 328 326 328 327 326 325 322 322 322 322 322 323 322 323
284 282 292 296 290 285 284 283 279 275 277 282 290 285 290 298 301 302 304 305 306 304 317 321 323 325 327 329 328 328 327 325 327 326 325 324 323 323 324 323 323 323 323 323
283 284 293 293 292 290 286 282 286 282 286 281 286 290 297 300 300 302 302 304 304 307 318 321 323 326 328 328 327 328 327 326 325 325 324 324 325 324 323 324 325 324 323 325
287 281 290 292 293 291 290 292 281 281 277 277 283 286 289 294 297 299 300 302 307 317 319 321 323 326 328 327 328 327 327 326 325 325 324 324 323 325 325 326 325 324 325 325
287 284 285 290 287 284 287 286 285 284 282 280 279 284 294 295 297 299 303 303 316 318 320 321 324 326 327 327 328 327 326 326 324 324 322 322 323 326 324 325 325 323 323 324
290 285 281 284 290 294 291 289 287 280 280 284 285 285 298 297 298 300 302 315 317 320 320 322 324 325 325 326 327 326 325 325 324 323 324 323 325 324 324 325 325 323 323 323
289 282 277 279 286 291 289 292 291 288 284 282 281 285 298 299 300 302 305 315 317 319 320 322 323 324 326 326 327 326 325 324 324 324 324 324 324 324 324 324 325 324 324 324
293 286 283 276 283 288 286 290 291 288 283 284 286 288 294 298 298 300 307 314 317 319 321 322 323 323 325 326 326 326 323 323 323 325 324 323 323 323 323 324 324 325 325 326
293 284 286 286 288 289 288 289 289 287 289 284 289 289 294 298 299 300 310 316 317 318 320 321 321 322 324 325 325 324 323 322 323 323 325 322 323 324 324 324 325 325 324 327
290 285 287 285 288 289 287 291 290 289 290 290 290 290 300 302 309 309 315 317 317 318 320 321 322 323 323 323 323 323 322 320 323 324 325 326 324 325 323 323 324 323 323 323
287 287 284 280 288 288 284 288 289 290 292 292 288 293 300 306 310 310 315 317 317 319 320 321 322 323 323 323 322 319 321 320 324 325 326 326 325 325 324 325 324 321 320 320
286 284 284 281 285 276 288 299 299 297 297 296 296 297 300 307 314 313 315 317 318 320 320 322 323 323 322 322 319 318 319 323 324 325 327 326 326 324 325 324 322 320 318 318
290 286 283 281 283 287 291 295 294 293 295 304 304 306 307 312 313 312 317 318 317 321 322 323 324 323 320 319 318 319 317 323 324 325 325 326 325 324 324 322 321 320 320 318
291 290 286 283 281 279 288 296 298 298 290 305 306 307 307 310 304 306 315 318 319 322 323 323 324 321 319 318 319 318 316 321 323 324 325 326 326 325 324 322 321 320 320 323
287 287 283 283 283 287 293 293 298 290 294 303 306 306 309 307 311 312 316 319 320 321 322 324 322 319 319 319 319 317 315 316 323 325 325 325 325 324 324 322 321 321 319 319
284 285 285 285 284 281 295 295 290 296 302 305 306 306 309 310 312 314 317 318 320 319 323 324 321 318 318 319 318 316 314 316 319 324 325 324 324 328 326 323 321 321 318 316
286 289 285 284 286 294 297 296 300 302 303 304 305 305 309 308 312 313 316 319 319 322 323 323 319 317 319 319 319 315 316 315 318 324 324 324 326 325 324 323 321 320 316 317
293 297 291 289 293 295 297 300 301 302 302 305 306 306 308 307 312 312 314 317 320 321 323 323 320 317 317 318 319 318 316 317 323 323 324 324 325 322 323 324 323 321 316 315
292 293 291 292 295 295 299 299 300 302 303 303 304 305 307 308 309 311 312 315 318 321 323 325 321 319 317 318 319 318 318 318 322 323 323 324 324 323 322 321 321 323 320 317
295 291 288 287 294 293 295 299 302 301 301 303 303 303 306 308 309 311 311 315 319 319 322 324 323 321 320 319 319 320 318 320 322 321 322 322 323 322 319 314 308 295 300 304

GFSCGP_sfc_thetae_045.txt.gz
Theta_e
291 286 285 289 292 293 292 292 291 296 300 300 299 299 302 305 304 304 306 307 307 307 310 312 313 314 313 313 315 315 323 328 332 332 330 327 328 326 326 331 335 334 334 332
286 285 291 293 292 291 290 287 287 293 297 295 295 296 299 301 303 305 305 306 307 308 308 311 312 312 315 316 321 321 327 331 331 332 327 326 325 324 326 327 332 333 333 334
284 287 293 291 289 289 288 288 289 289 294 295 293 291 294 298 299 302 304 304 305 305 306 308 309 311 315 320 324 327 329 331 332 330 328 325 325 324 323 323 325 329 334 333
284 289 289 288 287 288 284 292 292 291 288 284 291 283 291 295 296 299 301 302 301 303 307 307 308 309 317 321 327 330 331 332 332 330 328 327 322 321 321 323 324 326 329 329
283 285 285 286 287 291 286 291 290 291 288 285 287 283 289 293 293 296 299 301 301 304 304 305 306 310 318 325 327 330 331 331 329 329 329 325 322 321 321 322 323 323 325 328
286 290 288 287 290 290 292 288 289 288 285 279 285 285 286 289 293 296 298 299 303 302 304 305 308 318 322 325 328 329 331 327 328 327 326 324 322 320 321 320 321 322 323 324
285 287 290 291 286 288 286 280 276 276 276 279 288 285 288 292 295 296 296 298 300 302 301 309 317 320 323 326 327 327 329 325 325 324 323 323 322 322 321 320 320 321 320 321
283 280 287 293 287 283 282 281 277 274 276 280 289 283 288 296 299 301 301 300 300 300 301 309 318 320 324 326 327 326 327 324 324 323 322 321 322 322 321 321 321 321 321 321
284 284 293 292 292 289 284 280 284 279 281 278 283 288 294 297 297 299 298 299 298 300 303 314 319 322 325 326 325 325 325 324 324 323 322 321 322 322 321 321 321 322 321 322
286 280 289 292 293 291 287 289 279 277 275 275 281 283 286 291 294 297 297 297 299 300 310 317 322 324 325 325 324 324 325 324 323 322 322 323 322 322 323 323 322 322 322 323
286 283 284 288 286 283 285 285 285 281 280 276 276 281 291 293 295 295 296 299 302 305 315 319 323 325 325 325 325 324 324 323 322 322 321 321 322 323 323 323 323 323 322 322
289 284 280 283 288 291 288 287 285 280 278 282 280 282 295 292 294 295 297 300 311 311 316 321 324 324 324 325 324 325 324 323 322 321 321 321 321 321 321 323 323 321 321 322
289 281 277 278 285 290 286 289 288 287 284 282 279 281 294 294 295 297 296 302 314 315 318 321 322 323 324 325 325 324 324 323 321 321 322 321 320 321 322 322 322 321 321 322
293 286 280 275 281 285 284 287 290 286 280 284 285 286 290 293 295 298 299 309 313 316 319 321 321 322 324 326 325 325 323 323 321 322 321 320 320 321 322 322 322 322 322 322
290 284 285 285 287 287 286 286 288 287 287 283 287 287 290 294 296 300 301 303 314 316 319 320 321 322 324 324 325 325 323 322 321 322 321 320 321 322 322 322 322 323 323 324
289 281 285 283 288 288 286 288 288 289 290 288 289 288 295 297 299 303 310 310 314 317 319 321 322 323 323 324 324 324 321 321 322 322 321 322 322 322 321 322 322 321 321 324
287 285 281 279 286 285 282 287 288 289 291 289 285 290 297 297 299 303 310 311 315 318 320 320 321 323 324 324 325 321 319 319 321 322 324 325 323 322 321 322 321 319 319 319
286 283 284 279 283 275 287 296 294 291 292 292 293 293 296 297 300 311 312 311 316 319 320 321 322 323 324 323 321 319 318 320 322 323 324 324 324 322 322 321 319 317 316 318
289 286 281 279 280 285 288 293 292 291 291 300 301 303 306 308 309 310 314 315 316 320 322 322 323 323 323 319 318 319 318 321 322 324 324 324 324 322 322 320 318 316 316 316
290 289 284 281 278 277 286 293 295 294 286 300 301 302 302 306 301 304 312 316 316 321 322 322 323 323 321 318 318 316 318 321 321 323 324 324 323 323 321 319 318 317 318 321
286 285 281 281 280 285 289 291 294 286 288 297 302 303 302 302 306 310 314 317 320 322 322 322 322 320 320 317 317 315 319 320 322 324 324 324 323 322 321 319 318 318 321 322
284 283 285 284 282 280 293 290 289 294 299 300 302 303 303 306 311 312 316 318 321 320 321 323 320 319 317 318 318 314 317 321 322 323 324 323 322 325 322 320 318 318 316 316
285 288 285 284 285 294 296 292 299 301 300 300 302 303 304 306 310 312 314 317 319 321 321 323 320 316 316 318 318 314 315 316 322 322 322 321 323 323 321 319 321 320 316 318
291 295 290 289 292 292 297 298 300 302 301 303 304 303 305 306 311 312 313 315 320 321 321 320 316 316 315 317 317 317 314 317 322 320 321 322 322 320 320 321 322 320 318 318
290 292 290 290 294 295 298 297 299 300 302 302 304 304 304 309 311 312 313 317 319 321 323 319 317 317 317 317 316 315 315 319 320 321 322 323 321 321 319 321 320 320 317 318
292 290 289 288 294 293 294 298 300 299 299 302 302 303 305 310 310 313 314 316 320 321 322 320 317 317 317 317 316 315 316 320 321 320 321 322 321 320 319 316 313 294 299 303

GFSCGP_sfc_thetae_048.txt.gz
Theta_e
289 285 284 289 292 292 291 290 289 294 298 298 297 298 300 302 303 304 305 307 308 309 310 311 312 312 312 313 312 312 313 320 328 328 327 326 329 331 330 332 335 334 335 334
286 283 289 291 292 290 289 287 286 291 296 293 293 292 294 297 299 302 304 305 305 306 306 309 311 310 310 311 313 315 314 324 327 329 326 328 326 327 329 332 335 336 335 334
282 287 292 290 289 288 287 286 287 288 293 293 291 290 293 297 298 299 301 302 304 305 305 307 308 307 308 310 313 318 321 326 329 328 326 324 325 325 325 326 328 332 334 334
283 287 288 286 286 287 283 291 291 290 288 283 290 283 290 294 295 297 298 299 301 301 304 306 305 306 307 309 319 325 327 329 330 328 326 327 324 323 323 324 327 329 332 332
282 283 284 284 286 289 285 291 289 289 286 284 285 281 286 290 290 294 297 299 300 299 302 302 303 305 305 314 322 327 329 329 329 328 327 324 322 322 323 324 325 326 328 329
284 289 286 286 289 290 291 287 286 286 284 277 283 283 285 288 291 293 296 297 299 299 300 301 303 305 311 321 325 328 329 327 328 327 326 325 323 322 322 322 322 323 325 327
284 285 288 289 284 286 284 280 275 275 275 277 286 283 286 291 293 294 295 296 297 298 299 300 302 312 317 322 325 327 327 325 327 326 326 325 323 323 323 322 322 322 323 324
280 279 285 289 286 282 281 280 276 273 274 276 286 281 286 294 298 298 299 297 298 298 297 299 301 311 318 323 325 327 326 324 324 324 323 323 323 323 322 323 323 323 324 324
282 283 292 291 290 288 283 278 282 277 279 276 280 285 291 295 295 296 296 297 297 297 298 300 303 316 322 324 324 326 325 323 323 322 321 322 323 323 323 323 324 324 324 324
286 280 289 292 291 289 285 287 278 276 273 274 278 281 284 289 291 295 295 295 297 299 300 301 314 321 324 324 324 325 325 323 322 322 323 323 323 324 323 324 324 324 324 325
288 283 283 287 284 282 283 281 282 279 278 275 275 279 288 291 293 294 294 295 296 305 312 314 321 323 324 324 324 323 323 322 321 322 323 322 323 324 324 324 324 324 325 324
289 284 280 283 287 289 285 283 284 279 278 280 277 278 291 291 291 292 294 298 301 313 315 320 321 323 324 323 323 322 322 322 322 322 322 322 323 323 322 323 324 324 324 324
288 281 276 279 284 288 284 287 285 285 284 280 277 279 292 292 294 294 295 300 303 314 316 321 322 322 323 323 324 322 323 322 321 322 321 321 321 321 323 324 323 323 323 324
293 284 279 274 279 284 282 285 286 285 280 281 283 285 290 292 293 295 297 300 302 314 317 320 321 322 323 324 324 323 322 322 321 322 321 321 321 322 323 324 323 324 324 324
289 283 285 285 286 286 285 285 286 284 285 283 285 286 289 292 294 295 298 300 308 312 317 319 320 320 323 323 324 324 323 322 321 322 321 321 322 323 323 324 324 325 324 325
290 283 283 282 285 285 284 286 287 287 287 286 287 286 294 296 297 297 298 301 310 311 317 320 321 322 323 324 323 324 322 322 322 322 321 322 322 323 323 323 324 324 324 325
288 285 283 276 284 284 278 284 285 287 288 288 283 288 293 293 295 297 298 304 310 312 318 320 322 323 324 324 324 322 322 321 322 322 323 323 323 323 323 323 322 321 321 322
287 283 284 278 278 273 284 294 294 291 289 291 291 292 293 295 298 301 302 303 311 314 320 321 323 323 324 325 324 321 320 321 322 322 323 324 324 322 323 322 321 319 319 319
289 286 282 277 276 282 287 291 291 289 288 294 295 299 301 305 305 306 310 313 313 317 321 322 324 324 324 323 322 321 319 321 322 323 323 324 324 322 322 321 319 319 319 319
289 289 283 281 277 275 285 289 293 293 286 297 299 299 301 302 297 303 309 314 316 319 322 322 323 324 322 321 321 319 319 320 321 323 324 325 325 324 322 321 319 319 321 320
285 284 280 281 279 284 289 292 293 284 286 297 300 300 301 298 302 305 310 313 318 320 321 322 323 321 321 319 320 318 319 320 323 325 325 324 325 324 323 321 321 320 322 320
283 283 283 283 281 279 294 290 285 289 293 298 300 301 301 302 303 305 311 313 318 319 320 322 322 320 318 319 319 317 319 321 323 324 324 323 323 325 322 322 320 321 322 319
283 287 285 284 285 293 296 290 292 295 296 299 299 302 302 302 302 307 311 314 318 320 320 322 320 316 317 318 319 317 319 322 323 323 323 323 323 323 322 321 321 319 320 317
289 293 289 289 292 294 296 298 298 298 298 301 301 302 303 302 305 308 311 315 318 320 321 321 317 316 315 317 318 319 317 323 323 321 322 322 323 321 322 323 322 321 320 319
288 290 290 290 293 294 297 297 299 299 301 301 301 303 303 304 306 310 311 315 320 321 322 320 318 317 316 317 316 316 318 323 321 321 322 323 321 322 320 322 319 321 322 319
290 289 289 288 294 294 295 298 300 299 300 301 301 303 304 307 309 311 314 318 320 321 320 319 318 317 317 318 316 315 318 322 321 321 322 322 322 322 321 317 314 296 299 304

GFSCGP_sfc_thetae_051.txt.gz
Theta_e
295 289 287 291 295 296 295 294 294 297 301 300 300 302 304 307 308 308 310 312 314 316 320 320 321 325 328 333 333 336 331 333 335 337 337 338 338 339 341 342 344 344 344 343
291 286 291 294 294 294 294 292 293 297 299 300 300 300 304 305 306 309 310 311 312 315 316 319 320 324 328 329 332 334 332 332 336 338 341 341 340 338 341 343 344 344 344 343
288 290 293 291 291 291 292 291 292 293 296 299 297 296 299 303 305 307 308 309 310 311 312 316 317 322 325 327 330 331 333 335 337 340 340 340 340 340 339 341 341 343 344 344
290 293 290 290 289 292 288 294 294 293 292 289 297 288 298 301 302 304 306 307 309 309 311 313 316 319 322 324 325 327 335 338 338 341 340 341 338 337 339 340 342 343 344 343
288 288 288 288 289 293 290 295 294 294 292 292 292 288 294 299 298 301 305 306 308 310 311 312 313 317 318 321 321 332 338 340 340 340 342 340 341 340 340 340 342 343 344 344
289 294 291 290 293 293 295 292 291 292 291 284 290 289 291 295 298 300 303 305 306 307 309 310 312 314 315 319 329 337 340 341 341 341 341 342 340 338 337 339 338 336 338 339
288 288 292 292 288 291 291 289 282 281 281 282 291 288 291 298 299 300 301 304 306 309 309 311 312 313 316 323 333 338 340 339 340 340 340 341 340 340 339 337 336 336 336 337
282 281 288 292 289 288 288 289 283 277 279 283 289 285 291 300 302 303 304 305 307 309 311 312 313 315 315 325 334 338 340 339 339 339 339 339 340 338 338 338 337 337 337 339
283 283 293 293 293 292 287 284 291 284 286 284 287 291 296 299 299 302 302 305 308 310 313 319 322 317 318 329 336 339 339 339 339 338 338 338 338 338 336 338 339 338 339 337
289 282 290 291 295 293 291 292 284 285 278 278 284 286 289 296 297 300 301 303 307 314 319 324 324 321 327 333 338 339 339 338 337 337 336 336 337 337 337 338 337 338 337 337
292 287 286 290 287 287 289 287 288 288 286 282 282 286 297 298 299 299 301 303 305 311 319 324 324 325 330 335 337 338 337 335 334 335 336 335 335 336 337 337 337 337 337 335
292 289 283 285 292 293 291 288 288 284 282 285 285 285 299 299 299 301 302 303 305 310 320 324 323 324 329 334 335 335 335 333 333 334 335 335 335 336 336 336 336 336 335 334
292 287 281 283 289 292 288 289 289 289 290 285 282 285 298 299 300 302 302 304 305 308 316 324 322 324 326 333 334 333 333 332 333 333 333 334 334 335 335 335 335 335 334 333
296 288 284 280 283 288 285 288 290 288 284 285 286 289 294 296 298 300 302 304 305 307 314 323 323 324 327 332 332 332 331 332 332 332 332 333 333 334 335 335 334 334 334 333
293 285 287 286 288 288 287 287 288 287 288 284 288 289 293 296 298 300 302 303 304 305 309 318 324 324 330 331 332 331 331 331 331 329 330 332 333 334 334 334 332 333 334 334
293 285 287 284 287 287 285 287 288 288 289 289 289 289 296 298 300 300 301 302 304 306 309 316 326 329 330 331 331 331 330 330 330 329 329 331 332 333 334 334 333 333 333 334
288 287 285 280 285 285 281 287 288 289 291 291 287 292 297 296 298 300 301 304 305 307 308 318 326 329 331 331 332 331 331 330 329 329 330 330 332 331 332 333 332 332 334 335
286 286 286 281 283 275 286 295 294 292 294 296 297 297 297 297 300 302 305 307 308 309 310 319 327 330 332 333 333 333 331 329 328 329 329 330 331 330 331 332 332 332 333 333
290 287 282 279 279 283 287 290 289 288 288 295 297 298 298 300 301 303 308 309 312 313 314 324 330 332 333 333 333 331 329 328 328 328 329 330 330 330 331 331 331 331 331 330
289 289 284 282 278 276 286 292 295 292 284 296 295 300 301 303 297 300 309 315 316 321 324 327 331 332 333 333 332 331 329 328 328 329 330 331 331 331 331 332 331 331 332 330
286 285 281 282 281 285 291 294 293 283 287 293 294 294 300 300 304 308 312 313 316 320 324 330 331 331 332 333 332 328 328 327 330 331 331 332 332 332 333 332 332 331 329 326
285 284 284 285 281 280 295 293 285 293 294 294 295 300 300 304 307 308 311 313 317 321 326 329 329 330 332 332 332 328 328 331 331 331 331 331 333 332 332 332 331 331 329 324
285 289 286 285 286 295 297 294 297 298 294 295 296 301 302 302 305 309 311 315 320 323 327 329 330 330 330 332 332 329 330 331 330 331 331 332 332 332 332 331 328 324 326 322
292 296 291 291 294 294 296 299 298 300 298 299 300 302 302 303 305 309 313 318 321 325 327 329 329 327 327 331 332 332 332 330 330 331 331 332 332 331 332 330 327 326 322 322
293 294 293 292 294 295 297 298 300 299 300 302 302 302 304 306 307 310 314 319 322 326 328 329 328 328 328 329 330 332 330 330 330 331 331 332 331 331 327 326 324 326 326 322
296 293 290 288 296 294 295 300 302 299 298 300 302 304 307 306 307 312 315 324 326 326 328 326 328 329 328 328 328 328 329 330 331 330 330 330 330 330 325 320 319 297 302 303

GFSCGP_sfc_thetae_054.txt.gz
Theta_e
299 294 291 294 295 295 296 296 297 300 305 305 303 304 307 311 312 314 315 317 319 319 323 325 326 328 329 335 337 341 341 348 342 340 340 342 342 345 345 347 350 350 350 349
295 291 296 297 295 294 294 294 295 300 303 303 303 303 307 310 311 313 315 316 317 319 321 322 325 326 328 331 335 340 341 344 344 341 345 345 346 346 347 348 351 351 351 350
292 294 297 295 293 291 293 293 295 296 301 303 302 300 304 308 311 313 314 316 316 317 317 319 320 323 326 329 334 336 340 342 345 346 347 348 348 346 345 346 348 350 350 350
294 297 294 293 291 292 288 295 296 296 296 293 301 291 301 305 307 309 311 313 314 316 317 318 319 321 324 326 328 334 338 341 344 348 348 349 343 341 343 346 348 349 350 350
292 293 292 290 291 294 291 295 296 296 295 296 297 294 299 304 303 307 310 312 313 315 315 316 317 319 321 323 325 330 335 341 346 348 348 345 347 345 347 347 350 351 350 350
295 299 295 293 294 295 296 293 295 296 294 288 294 294 295 299 303 306 309 310 311 312 314 316 318 319 320 322 323 328 339 345 348 348 347 349 349 349 346 348 347 347 348 349
292 293 296 295 291 294 294 290 284 284 286 286 295 293 296 303 304 306 307 307 310 312 314 315 317 318 321 322 324 331 341 345 348 348 348 350 351 352 351 349 346 345 342 343
286 283 292 295 293 290 291 290 284 280 283 287 294 290 295 304 307 308 308 308 310 314 317 319 322 325 325 323 327 334 341 346 347 348 349 351 352 348 347 347 344 342 339 341
286 285 293 296 295 294 290 286 293 287 290 288 291 295 300 303 304 306 306 307 310 316 321 325 328 331 328 324 333 339 344 346 347 347 348 348 348 348 345 347 347 341 345 344
291 285 292 293 296 296 292 295 287 289 280 281 289 291 293 299 300 304 305 306 309 314 319 325 330 331 329 331 338 343 347 346 347 347 347 346 347 346 346 345 343 344 344 342
294 289 287 292 289 287 290 289 290 290 289 284 284 290 301 302 303 304 306 307 309 311 316 324 330 330 333 336 340 344 345 345 345 345 345 344 342 343 344 343 343 343 343 342
294 291 286 288 293 294 293 291 292 284 285 289 290 292 303 305 305 306 306 308 310 311 313 324 330 328 334 337 341 343 343 343 343 342 341 341 342 342 342 341 342 342 340 339
293 289 284 285 291 294 290 290 293 293 292 288 286 291 303 303 303 304 305 308 309 310 312 317 328 327 332 337 339 340 341 340 340 339 340 340 340 340 340 340 340 340 338 336
296 291 287 283 286 290 287 290 292 291 287 288 290 292 299 301 301 303 305 308 308 309 311 313 325 328 329 336 338 338 338 338 338 337 337 337 338 337 338 339 339 337 337 336
293 286 289 290 291 290 289 289 290 290 291 287 291 292 296 300 301 303 305 307 306 307 309 312 317 329 330 333 337 337 337 337 337 335 334 333 336 338 339 338 337 337 336 334
295 287 290 287 290 290 288 290 291 291 291 291 292 292 299 301 302 302 303 304 305 307 309 311 315 330 331 332 334 335 335 335 335 331 330 333 335 336 337 337 336 336 335 336
290 290 286 284 288 288 285 289 290 291 293 292 289 295 300 300 301 302 303 304 305 306 310 313 315 330 332 334 335 334 335 335 331 329 331 333 335 335 336 336 335 334 336 337
288 289 288 284 286 277 290 298 296 294 295 297 297 298 301 302 305 305 306 305 306 310 312 315 317 332 333 335 336 337 335 333 329 329 331 333 333 333 334 334 334 336 337 336
292 288 285 282 281 285 288 292 291 290 290 297 297 299 301 305 305 305 307 308 308 312 318 321 321 333 334 334 336 335 333 330 327 329 331 332 333 333 333 334 334 336 335 337
291 289 287 285 280 278 290 295 296 294 285 294 295 297 301 303 299 301 309 311 315 318 321 324 329 332 334 336 337 334 330 326 327 330 331 333 333 334 333 335 336 336 337 335
288 286 283 284 283 287 295 296 295 284 290 298 297 297 299 297 303 310 313 314 316 317 321 326 331 332 334 336 337 332 329 327 330 332 332 333 334 335 336 336 337 336 334 334
286 286 287 286 283 282 298 296 287 297 298 297 298 298 298 301 306 307 312 314 316 319 322 327 329 332 336 337 335 332 327 329 332 332 331 333 335 335 335 336 336 334 332 331
288 292 287 288 289 298 299 297 299 298 296 297 298 299 299 299 303 307 310 314 318 321 326 329 331 333 335 336 334 330 328 331 331 331 331 333 335 335 336 335 332 329 330 328
295 298 292 292 295 296 298 300 300 299 298 300 300 300 302 302 305 309 312 316 319 324 327 330 332 333 335 335 334 331 330 332 331 331 331 333 333 334 335 334 334 330 329 327
296 296 294 294 296 296 297 298 300 301 301 299 301 302 304 307 308 310 314 317 320 326 329 332 333 334 334 335 334 329 330 332 331 331 332 333 333 333 333 333 330 330 329 325
298 295 291 291 297 295 296 300 302 301 299 300 300 301 305 307 309 313 313 320 322 329 330 333 335 334 334 334 331 328 331 332 333 330 331 331 332 333 332 331 328 297 301 300

GFSCGP_sfc_thetae_057.txt.gz
Theta_e
302 297 294 297 298 298 297 294 294 299 304 303 303 304 307 312 313 314 316 319 321 322 325 327 329 331 333 340 345 347 346 358 350 342 338 339 342 346 347 348 353 352 352 351
297 294 298 299 298 296 295 293 293 297 301 302 303 302 308 310 311 313 315 317 318 321 323 326 328 331 335 338 344 346 351 354 354 345 347 345 347 345 348 348 353 352 352 352
294 297 300 297 296 294 295 293 293 293 298 301 301 300 303 309 312 313 315 317 319 320 321 324 325 330 332 336 340 342 348 351 354 354 349 350 351 352 347 349 350 351 352 352
296 299 296 295 294 295 291 296 295 293 293 291 301 292 301 305 307 311 312 315 317 319 321 323 323 327 331 330 333 341 345 350 351 358 348 356 346 344 345 348 350 351 352 350
294 295 295 294 294 296 293 297 295 294 292 293 295 294 299 305 304 307 311 314 316 319 320 320 321 324 325 329 332 337 342 347 352 356 353 348 352 345 346 347 356 357 353 351
296 301 299 297 298 296 297 294 294 294 292 286 293 294 296 301 304 307 311 313 315 317 319 320 321 322 322 323 326 335 340 345 348 353 351 358 357 356 347 350 348 348 347 348
294 295 298 300 294 297 294 291 284 282 283 284 294 294 297 305 308 308 310 312 314 316 316 317 318 319 321 323 325 328 336 341 347 349 350 350 358 362 361 354 349 349 347 347
287 286 295 298 296 292 291 291 284 279 281 285 294 290 297 306 309 309 310 312 312 313 315 317 319 322 322 324 326 326 333 340 348 349 349 352 356 350 352 355 350 347 346 347
287 287 296 298 298 296 292 287 293 287 287 283 288 296 301 305 306 308 309 310 312 315 319 322 325 328 330 330 328 331 334 342 348 350 351 354 354 358 352 358 357 346 352 346
293 286 294 296 298 298 295 295 287 287 280 278 286 289 294 300 303 306 308 309 312 314 316 321 328 331 334 331 330 336 340 346 348 350 351 351 351 350 350 350 351 350 350 345
294 291 290 295 291 292 292 290 291 291 288 281 283 289 301 302 304 306 308 310 311 312 314 322 330 332 334 332 335 341 345 346 347 348 349 349 348 348 347 346 344 345 345 343
295 292 287 289 296 298 295 293 292 287 286 289 287 287 304 307 308 308 309 310 311 313 314 319 331 330 335 335 339 343 345 345 347 347 347 346 345 344 344 343 343 344 342 341
296 290 284 286 290 295 291 293 293 293 291 288 284 287 305 307 308 309 309 310 309 311 313 316 330 331 336 337 340 342 343 344 345 344 343 343 343 343 342 342 342 340 339 338
297 291 287 284 286 288 287 290 293 292 285 289 289 290 299 304 305 306 307 308 309 310 311 315 321 332 336 337 339 340 342 342 342 341 341 341 341 341 340 340 339 338 338 336
295 289 290 291 292 291 290 290 291 290 292 287 291 290 293 299 302 305 307 307 308 308 310 313 316 332 335 334 338 339 339 340 340 338 338 338 339 338 337 337 338 338 337 336
297 288 291 289 292 292 289 292 292 292 292 291 293 293 300 302 304 303 304 305 306 308 309 312 316 330 332 332 335 336 337 338 338 337 335 334 335 336 337 338 338 337 335 335
292 290 289 285 291 291 287 290 292 292 293 292 289 295 300 300 301 303 305 306 306 308 309 313 316 322 335 333 337 335 337 338 336 333 331 333 334 335 335 336 336 335 337 339
291 290 290 286 288 279 290 297 297 295 296 296 297 300 301 302 305 306 308 308 308 309 310 314 320 322 337 335 335 337 337 335 331 331 331 332 333 334 335 334 334 336 338 337
295 289 286 283 283 287 289 293 293 292 293 299 298 300 301 304 305 306 310 311 311 311 312 318 323 327 338 335 335 336 335 332 329 329 331 332 333 333 333 333 335 340 337 338
295 291 287 286 282 279 290 295 299 298 287 298 298 298 299 301 295 305 314 315 312 315 319 320 324 330 338 336 337 336 333 330 328 329 331 333 333 334 333 335 336 337 337 337
290 287 284 285 284 288 294 296 298 285 289 299 300 301 299 297 303 308 312 314 317 317 318 321 324 328 336 336 336 334 332 328 330 331 332 333 334 335 337 338 338 337 335 335
287 288 287 287 284 282 299 297 289 297 301 299 300 300 299 303 303 307 310 311 314 316 319 322 325 334 336 336 335 334 330 329 331 331 331 333 334 333 334 337 338 335 335 332
290 294 289 290 291 300 302 300 301 301 297 298 299 303 302 301 302 305 308 312 313 317 321 325 327 334 334 337 336 332 330 330 331 331 331 334 334 334 335 334 334 331 333 331
297 299 294 293 298 299 301 303 301 300 299 300 301 301 301 301 302 306 309 312 314 318 322 326 330 332 332 335 336 334 330 330 330 330 331 334 332 331 334 333 336 334 332 329
297 297 295 295 297 299 299 301 301 300 301 301 302 302 301 301 306 308 310 312 315 320 325 329 332 332 333 335 335 333 329 331 331 331 330 331 330 334 334 334 332 334 334 326
300 298 294 291 299 298 299 302 302 301 298 300 299 300 304 304 304 308 310 312 316 320 323 330 332 335 334 335 333 330 330 331 332 330 329 329 329 330 331 331 329 297 299 298

GFSCGP_sfc_thetae_060.txt.gz
Theta_e
302 296 293 297 298 298 296 294 293 297 300 298 298 301 305 309 310 310 315 315 317 320 326 327 330 332 335 344 347 350 350 355 354 354 347 343 342 346 351 352 354 356 353 351
296 293 298 300 299 297 295 293 293 296 299 298 297 297 302 307 309 310 313 316 317 319 322 327 330 336 340 345 346 349 349 351 353 352 350 349 351 347 349 352 353 356 353 353
293 295 299 298 296 294 294 293 292 292 296 298 296 294 298 304 308 311 314 316 317 319 321 323 327 333 339 339 344 343 347 349 353 350 349 349 353 355 353 352 353 354 353 353
294 298 296 296 294 295 291 297 295 294 292 287 295 286 296 301 304 308 311 314 316 317 320 324 327 332 339 337 338 340 344 345 347 350 343 345 343 342 348 352 351 352 354 352
292 294 294 293 294 297 293 297 294 293 291 291 290 288 292 300 300 305 309 313 316 317 318 320 324 328 331 335 334 336 342 345 345 348 346 342 347 347 356 352 354 351 352 352
296 300 298 296 298 298 298 294 293 292 290 283 288 288 289 294 300 305 310 311 315 317 318 319 323 327 327 329 331 333 334 342 344 348 347 348 348 348 347 349 349 349 349 346
294 293 298 299 295 298 296 291 283 281 282 282 290 287 291 298 302 306 309 311 314 316 317 319 321 321 324 327 329 332 340 336 344 345 348 347 355 349 359 350 348 347 343 343
286 284 293 297 294 292 293 291 283 276 278 282 291 285 291 301 303 307 310 313 315 315 317 318 321 324 321 324 327 327 331 339 342 343 348 350 354 351 356 351 350 346 345 345
287 286 295 296 297 297 293 288 293 285 287 283 286 291 297 301 302 305 308 310 311 314 318 318 320 325 328 331 337 336 333 336 341 348 351 350 352 354 352 353 357 349 349 349
292 285 292 294 297 297 295 296 286 287 278 277 284 286 288 296 300 304 306 309 313 315 316 319 322 329 335 338 340 341 336 337 348 350 350 351 353 355 355 354 351 351 348 347
294 290 289 294 291 290 292 290 291 290 287 280 279 285 297 298 302 304 306 310 313 313 314 317 323 331 334 336 335 339 335 346 348 350 352 352 353 351 350 350 348 348 348 345
296 291 286 288 295 297 293 293 291 284 283 288 285 286 300 302 303 305 307 310 312 313 313 315 330 332 331 332 333 337 343 345 348 350 350 350 349 348 347 346 347 346 345 343
295 289 283 285 290 293 289 291 292 292 292 285 282 286 301 302 298 299 306 309 310 311 312 314 328 328 333 333 336 341 344 345 347 347 346 346 345 344 345 344 344 343 343 341
298 291 286 282 285 290 286 290 292 290 286 287 287 288 292 294 294 299 301 309 309 310 311 313 318 328 335 336 339 341 342 344 345 344 342 341 342 343 343 342 342 342 340 339
296 288 290 290 291 292 290 290 292 290 290 286 288 289 292 295 296 299 303 306 306 307 309 312 316 329 335 336 337 340 340 342 342 340 340 341 342 342 341 339 339 339 340 338
297 288 291 288 291 291 289 292 292 292 292 291 291 290 297 299 300 301 303 304 304 306 308 310 315 329 334 334 333 339 339 339 340 337 337 340 338 337 337 338 339 340 338 338
293 290 288 283 289 289 285 290 291 291 294 293 289 294 299 298 299 301 304 305 306 307 308 310 315 321 333 332 334 334 335 336 338 337 336 335 335 335 336 338 337 337 339 336
291 290 289 285 288 278 289 296 295 292 295 297 297 298 300 300 303 304 306 306 308 309 309 311 316 333 334 334 335 335 334 334 335 333 331 333 334 334 335 335 336 337 337 337
295 291 286 284 283 287 289 294 293 292 292 298 297 299 300 302 304 304 311 313 314 312 313 313 319 333 336 334 335 334 332 334 331 330 330 332 335 334 334 333 335 338 336 336
296 293 287 286 281 279 291 295 298 296 287 300 299 296 297 299 294 299 309 309 312 316 316 316 321 329 337 335 336 334 332 331 329 329 330 332 334 334 331 333 337 337 337 336
290 287 284 285 283 288 296 297 298 285 289 298 299 298 298 297 300 305 308 308 311 312 316 319 320 328 333 336 335 333 330 329 330 331 331 334 335 333 336 336 338 336 335 335
287 288 287 288 284 282 300 297 288 296 300 299 299 300 298 301 303 304 305 307 309 311 314 316 320 325 336 335 335 333 331 332 331 331 332 335 334 332 335 336 335 336 335 333
290 294 290 289 291 301 302 300 300 303 300 299 298 300 300 301 301 303 304 306 308 311 315 317 321 330 335 335 334 332 333 331 331 332 333 334 335 333 334 335 335 332 333 330
297 299 295 294 297 298 301 304 303 303 301 301 301 300 301 300 302 303 304 305 308 312 314 319 320 331 331 334 335 334 332 331 330 333 333 334 333 332 334 335 335 331 332 329
297 299 295 295 299 300 300 302 303 302 302 301 300 300 300 302 302 303 304 306 309 313 316 322 325 333 332 332 333 335 331 331 332 334 333 333 332 331 334 325 325 333 319 320
300 298 293 292 300 300 299 303 303 300 298 299 299 299 301 302 303 304 304 309 312 313 316 321 326 332 331 335 334 331 330 333 333 331 332 331 330 333 331 328 321 296 298 296

GFSCGP_sfc_thetae_066.txt.gz
Theta_e
293 287 284 287 289 291 290 288 287 291 294 292 291 292 295 297 296 296 297 299 301 304 311 314 317 317 318 320 324 331 342 341 342 339 339 336 338 336 336 338 341 341 344 342
289 285 291 293 293 291 290 287 287 291 294 292 291 291 294 296 296 297 298 299 300 301 304 310 315 314 314 319 326 326 338 343 344 342 341 335 336 331 331 335 338 340 345 343
285 289 294 292 291 290 289 287 288 289 293 294 290 288 291 295 296 297 298 298 300 301 302 305 311 315 315 315 325 327 333 340 342 340 332 330 331 332 333 333 333 338 343 345
288 292 292 291 290 292 286 293 292 291 288 281 289 280 287 291 291 295 296 297 297 299 301 304 308 313 314 316 325 327 328 335 336 333 332 327 326 326 328 331 336 339 343 345
287 288 289 289 291 294 289 293 291 291 287 284 285 279 285 289 289 292 294 296 298 299 301 302 305 310 315 318 325 328 328 330 332 331 331 329 327 328 329 334 335 339 340 343
290 294 292 293 295 294 294 291 289 287 284 277 283 281 282 286 288 291 295 297 299 299 300 302 304 305 310 316 324 327 327 328 329 330 330 328 327 329 331 333 334 336 337 339
289 289 292 296 290 291 288 285 277 276 275 276 284 282 284 290 293 295 296 299 301 302 303 302 302 303 307 316 322 324 325 326 327 328 329 330 329 329 331 333 336 336 335 335
281 280 289 294 289 284 284 284 277 275 275 278 286 279 284 292 298 300 301 300 301 301 302 304 304 303 304 310 322 324 324 325 325 325 327 331 330 329 331 335 340 340 340 339
280 283 293 294 294 290 285 280 286 282 281 275 279 285 290 298 297 298 297 299 298 300 302 304 307 306 308 311 319 322 323 323 323 326 327 329 332 330 332 337 340 340 339 339
287 281 291 292 293 292 289 290 280 281 272 272 279 281 282 291 293 295 295 296 298 300 302 306 307 309 312 312 316 316 321 321 320 326 329 332 332 336 336 339 339 338 338 340
288 284 285 289 286 284 285 283 287 283 282 277 276 278 292 292 294 294 295 297 298 300 304 307 306 312 313 318 320 318 315 320 324 328 329 334 336 338 341 341 340 338 339 338
290 285 281 285 291 292 290 286 285 276 279 282 279 280 295 294 294 295 297 298 299 302 305 306 308 307 322 320 321 322 320 324 328 334 336 336 338 340 340 341 340 340 339 339
290 283 280 280 284 288 286 287 286 285 285 279 278 280 295 296 297 296 298 299 301 304 306 306 306 307 320 322 322 322 324 331 336 338 338 337 338 339 337 337 339 340 339 337
296 286 282 278 282 284 284 287 289 287 282 281 282 285 291 294 295 297 298 300 302 305 306 305 305 307 317 327 325 324 332 337 339 340 339 337 335 335 335 335 335 336 335 334
290 284 286 287 289 289 288 288 288 285 286 283 285 286 291 294 296 298 300 301 303 304 304 306 309 307 322 325 327 332 337 339 339 338 336 334 334 335 334 333 330 331 330 331
290 284 287 285 289 289 287 289 289 288 289 288 288 287 295 297 299 299 301 302 302 305 306 306 307 308 315 322 323 329 335 337 338 336 334 335 334 334 333 332 329 328 327 326
287 286 286 280 287 286 282 286 287 289 291 289 284 290 295 295 296 297 299 302 303 303 303 304 305 307 314 321 323 324 330 335 335 334 334 334 334 331 330 329 327 325 322 322
289 289 287 281 281 275 285 294 294 292 292 292 292 295 296 296 297 298 300 302 301 301 301 302 304 306 311 324 325 329 332 333 334 333 332 333 331 329 328 327 325 323 323 322
292 289 284 280 276 283 287 292 291 289 288 295 294 294 295 296 296 295 301 301 300 300 302 303 305 307 312 322 325 325 327 332 333 332 331 330 330 327 327 325 324 322 324 327
292 292 286 281 278 275 282 294 296 293 283 297 294 293 293 294 287 291 298 299 300 301 303 304 305 307 317 319 322 321 322 331 330 330 330 330 329 327 325 324 324 325 323 323
288 287 283 283 280 283 291 296 296 280 285 296 295 294 294 291 294 297 299 299 301 301 303 305 305 305 313 319 319 319 320 325 329 329 330 329 328 325 324 324 324 322 323 324
281 283 282 283 281 276 297 294 286 289 295 297 296 296 295 296 297 298 299 299 300 300 302 304 304 304 308 319 321 318 319 325 327 329 329 328 327 329 327 325 323 324 323 321
282 287 285 286 283 291 296 295 298 298 297 296 297 297 296 296 297 298 299 300 300 300 302 303 304 304 308 320 326 326 323 327 325 328 328 328 328 328 328 326 324 322 322 321
292 294 287 287 291 293 297 299 300 300 298 300 298 298 297 296 298 299 299 299 300 301 302 304 303 304 308 320 321 326 325 327 328 328 328 328 325 324 325 326 325 324 322 321
289 289 288 289 293 296 298 300 299 300 300 300 299 298 299 299 298 298 297 298 300 301 303 304 303 304 309 318 318 326 327 329 327 326 327 326 325 322 315 307 311 322 318 319
291 289 287 288 295 296 296 300 301 299 298 299 298 299 300 299 298 298 297 298 299 301 303 303 304 308 312 318 319 321 329 328 327 325 326 325 321 317 314 313 308 295 295 295

GFSCGP_sfc_thetae_069.txt.gz
Theta_e
291 286 283 286 288 289 288 286 285 289 292 290 289 290 294 296 295 295 297 298 299 300 304 305 306 310 314 318 320 323 327 330 339 338 336 337 337 339 337 338 339 339 339 338
287 283 290 291 291 290 288 285 285 289 294 292 290 290 294 295 294 295 296 297 298 299 300 303 305 306 308 311 320 321 326 332 335 337 337 335 338 333 338 338 338 339 339 340
284 288 293 290 289 289 287 285 286 287 291 292 289 287 289 292 294 296 295 296 297 297 298 300 302 302 303 307 311 320 324 332 338 339 333 328 330 331 330 329 331 335 338 341
286 290 290 288 289 290 284 291 291 289 286 280 289 279 286 289 290 292 294 293 295 296 297 299 300 301 302 304 309 316 321 329 338 340 334 331 332 332 331 330 330 331 337 342
286 287 287 287 289 293 288 292 289 289 286 283 284 279 283 289 288 289 291 293 294 300 302 303 305 304 303 303 305 312 321 325 333 339 337 334 326 328 326 330 330 332 336 342
288 292 290 290 294 293 293 288 287 285 281 276 283 281 283 284 286 289 292 298 300 301 302 303 305 306 307 306 304 307 317 323 328 335 334 333 332 326 326 329 330 333 336 340
287 287 290 295 289 290 286 281 274 274 274 275 283 280 283 289 292 293 296 298 299 300 300 301 301 303 306 307 307 309 316 322 325 330 332 333 330 328 327 329 330 333 334 335
280 279 288 293 288 285 284 281 274 271 274 276 284 278 282 290 297 299 300 299 300 299 299 300 301 303 306 308 309 305 309 320 324 327 329 331 329 326 327 330 332 334 336 337
279 282 292 293 292 289 284 279 283 278 279 274 278 283 289 292 296 297 296 298 296 298 300 301 302 305 307 308 310 310 307 318 323 326 328 327 326 324 327 330 334 335 336 338
286 280 289 291 292 291 287 288 279 275 269 271 278 279 281 286 289 294 295 295 297 299 300 301 303 305 308 309 310 314 312 315 322 324 325 325 327 327 327 333 335 336 335 337
287 284 284 288 285 283 283 281 283 280 282 276 274 278 287 289 292 293 294 296 297 299 300 302 304 306 308 309 309 314 311 317 320 318 322 324 327 329 331 334 336 336 336 337
289 284 280 284 290 291 288 284 283 275 277 279 278 279 291 292 293 294 294 297 298 299 301 303 305 307 308 309 309 316 311 316 318 320 325 327 329 332 333 335 336 336 336 338
289 283 279 280 283 287 286 287 286 284 284 279 277 280 292 294 294 296 295 297 299 299 302 305 306 307 308 310 310 319 316 315 319 324 326 329 332 334 335 336 335 336 336 337
295 286 284 279 281 283 284 287 287 284 281 280 281 284 289 291 293 295 296 299 302 300 306 306 307 307 308 311 322 326 321 326 328 330 330 332 335 336 336 336 336 337 337 337
288 281 284 286 288 288 287 287 288 286 286 281 284 284 288 291 293 296 300 301 302 301 306 305 304 305 307 309 319 323 325 330 333 334 333 333 335 334 335 336 336 335 336 335
287 283 288 284 288 288 286 288 288 289 288 287 287 286 292 295 296 298 299 300 301 302 303 303 303 304 306 309 318 321 326 333 335 334 333 333 333 333 332 332 332 332 332 331
284 282 282 280 286 285 281 286 287 287 289 288 284 288 293 293 295 295 296 297 300 301 301 301 302 304 305 310 320 321 322 334 334 333 333 332 333 332 331 331 331 329 327 326
285 285 287 282 281 274 284 293 294 290 291 291 290 292 294 294 296 297 298 299 298 300 300 301 303 303 305 315 319 322 325 330 332 332 331 331 331 330 330 328 326 322 323 323
289 288 284 280 278 282 285 291 291 287 287 292 292 293 294 296 296 295 299 299 299 300 301 301 302 304 304 312 318 321 323 323 331 331 330 331 331 328 327 325 323 321 321 320
289 291 286 282 278 271 282 294 296 292 283 293 294 292 292 294 288 293 298 300 300 301 302 301 302 304 303 306 316 318 321 322 321 330 330 330 330 328 325 324 322 320 323 321
287 286 282 282 280 282 290 295 297 283 283 294 294 295 293 292 294 298 299 299 300 301 301 302 302 301 303 307 315 317 320 321 322 331 331 330 328 326 325 323 323 321 321 320
280 283 281 284 281 278 297 294 286 290 292 297 298 297 296 297 297 298 298 299 299 300 301 301 301 302 305 307 317 319 318 321 323 325 328 325 324 326 325 322 324 324 322 320
279 284 284 285 282 291 295 295 297 297 298 298 297 297 298 297 297 297 297 298 299 299 300 302 302 303 304 308 317 319 319 322 322 326 325 324 324 324 324 322 321 321 321 320
288 290 284 285 289 291 293 296 299 300 299 300 299 297 298 297 297 297 297 298 298 299 299 301 302 302 303 309 318 321 324 322 324 325 325 324 323 322 324 324 323 321 320 320
288 288 285 286 290 293 295 297 300 300 300 299 300 299 298 298 298 297 298 299 299 299 299 300 302 302 305 309 318 322 323 326 324 325 324 323 323 323 317 309 314 321 319 319
289 287 285 285 292 292 293 298 300 298 299 298 297 296 297 297 298 300 299 299 299 298 299 300 302 304 306 312 316 320 321 324 327 325 324 324 321 319 315 313 308 295 295 297

GFSCGP_sfc_thetae_072.txt.gz
Theta_e
290 286 282 285 287 287 286 285 284 287 291 289 288 289 292 295 295 295 296 298 299 300 303 306 305 306 306 312 313 315 324 331 335 333 332 333 333 335 336 337 338 337 337 336
286 282 288 290 289 288 286 284 283 288 292 290 288 289 293 294 294 294 295 296 297 300 301 303 303 304 303 304 308 312 315 321 332 337 337 336 336 337 338 339 339 339 338 338
284 287 292 289 287 287 286 284 284 286 289 290 288 285 287 291 293 294 295 296 296 297 299 300 303 303 302 302 303 309 312 315 323 335 333 331 332 332 332 334 337 339 340 340
285 289 289 286 287 288 283 289 289 288 284 278 288 277 285 289 290 291 292 292 293 294 301 304 305 306 306 305 304 303 310 314 318 327 333 333 334 333 335 334 337 336 339 340
286 285 286 285 287 291 286 290 288 287 283 281 283 278 282 287 286 289 291 291 294 299 301 302 304 305 307 307 306 304 304 313 317 322 334 334 333 335 333 330 332 333 334 338
287 290 288 288 291 292 291 286 284 282 280 274 280 280 279 283 286 289 291 294 299 300 301 301 303 304 304 306 307 308 306 304 316 321 330 334 334 332 327 329 330 331 334 337
286 286 289 293 287 288 285 280 274 273 273 274 281 279 282 287 291 291 292 296 299 299 299 299 300 301 303 304 306 308 309 308 310 319 325 334 335 335 329 331 329 331 333 335
281 280 286 292 287 284 283 281 274 270 272 274 281 277 281 289 292 296 299 298 299 298 297 299 301 302 303 305 306 308 309 309 309 312 321 328 334 335 331 330 330 331 334 337
279 283 291 292 291 289 283 278 282 277 276 273 277 281 287 291 291 296 296 297 296 296 298 300 302 303 304 305 306 308 309 310 311 309 318 324 329 332 331 329 332 333 336 337
285 280 288 290 290 289 286 287 278 274 269 267 275 278 280 286 289 291 294 294 295 297 299 299 301 303 305 306 307 309 310 309 310 314 315 323 327 330 328 329 332 333 336 338
286 283 284 287 285 283 282 280 282 278 275 271 273 277 286 286 288 290 292 294 295 296 298 300 301 307 306 307 308 309 311 311 311 316 315 322 325 327 327 329 332 335 336 338
287 282 279 283 289 289 285 283 282 275 276 278 277 279 290 291 292 293 294 296 296 298 300 301 303 308 307 308 309 309 312 314 313 314 316 322 325 327 328 330 333 335 336 339
288 282 277 279 281 286 283 285 284 284 282 279 277 279 291 292 293 294 294 296 298 300 301 303 306 305 303 304 306 308 313 322 319 316 320 322 326 328 329 331 334 336 337 338
294 284 282 277 280 281 281 285 287 286 280 280 281 282 287 290 291 293 295 298 299 301 304 304 303 303 303 303 306 309 314 323 320 318 321 325 327 330 331 333 334 336 337 337
287 281 284 286 287 287 286 286 287 285 285 282 284 284 287 290 291 294 297 299 299 299 303 304 302 303 302 303 306 307 317 324 322 321 323 326 330 332 334 334 335 336 337 338
290 282 284 283 287 286 284 286 287 287 287 287 287 286 294 294 295 296 296 297 297 300 301 302 303 303 303 304 304 307 318 323 331 328 326 331 333 334 335 336 336 336 336 336
284 282 282 278 284 284 280 285 286 287 288 288 283 288 291 293 294 294 295 297 298 299 299 300 301 303 304 304 305 306 319 326 332 331 332 333 334 333 334 335 335 334 334 333
283 284 284 280 283 275 284 289 292 289 290 290 290 291 293 294 296 295 298 298 297 299 300 300 301 301 303 304 307 309 318 323 331 332 332 333 333 332 333 334 333 333 330 330
289 286 283 280 277 281 285 288 289 286 287 293 291 292 295 295 295 296 300 299 299 300 301 301 302 302 303 303 306 308 317 321 328 331 331 332 332 331 332 331 328 328 327 327
290 289 284 283 276 271 282 291 294 291 283 292 293 292 292 294 289 293 299 301 301 301 301 301 302 302 302 304 305 307 316 320 321 330 331 331 330 330 329 327 326 326 327 324
285 285 281 282 279 282 289 294 295 281 282 291 293 294 293 292 295 298 300 299 300 301 301 303 302 301 302 304 305 310 319 319 322 328 331 330 329 327 326 325 325 324 323 321
284 283 280 283 280 276 296 294 286 289 293 294 295 296 297 298 298 298 299 299 299 300 300 301 300 300 302 304 306 311 316 322 324 324 326 329 327 326 326 324 324 322 320 317
279 283 279 284 281 291 295 293 295 294 293 296 297 299 299 297 297 298 298 299 298 299 299 300 299 299 301 305 307 312 318 322 323 324 327 325 326 326 325 324 322 321 320 317
286 289 284 284 288 289 291 295 297 298 298 298 299 299 298 296 298 298 298 298 298 299 300 301 299 298 299 305 307 315 322 322 321 319 321 325 323 323 324 324 323 322 320 320
288 287 285 285 288 291 293 296 297 296 298 300 299 298 297 297 297 297 297 298 298 300 301 301 299 299 300 305 307 317 322 322 321 319 324 323 323 322 314 306 314 323 321 320
288 287 285 285 291 291 292 296 298 297 298 297 297 296 296 295 293 294 294 297 299 299 299 298 299 300 301 305 311 315 322 320 320 323 322 322 321 318 315 314 309 294 297 299

GFSCGP_sfc_thetae_075.txt.gz
Theta_e
296 294 291 292 293 292 291 290 289 292 296 294 294 294 296 299 299 299 300 302 304 305 309 309 310 312 314 318 320 322 321 328 340 343 342 340 338 338 338 340 341 341 340 340
293 290 294 294 293 291 291 289 289 292 295 294 293 293 297 299 300 301 300 301 303 304 304 305 309 313 315 317 322 323 325 326 332 340 343 344 344 343 342 343 345 344 342 339
290 292 295 293 292 291 291 290 290 289 293 294 293 291 293 297 299 300 301 303 303 301 302 305 309 313 315 315 317 320 322 324 329 335 339 346 346 345 343 343 344 345 345 341
292 294 292 292 291 293 288 293 292 291 289 284 292 283 291 294 296 297 299 301 302 301 304 308 309 310 311 313 315 317 321 323 322 327 332 341 336 337 342 345 346 347 346 345
290 292 291 290 291 294 290 294 292 291 289 288 288 285 289 294 292 295 299 301 302 303 307 308 307 308 309 311 312 315 319 322 323 324 328 327 338 338 343 344 351 352 350 349
293 295 294 293 294 296 295 292 291 289 288 282 286 285 286 290 293 295 298 300 302 305 308 308 309 309 309 311 312 314 317 319 322 322 324 331 336 340 337 342 341 341 344 348
291 292 294 296 292 293 292 289 283 281 281 281 287 285 288 294 296 297 297 300 304 306 307 306 308 308 309 310 312 313 315 317 320 321 322 325 333 340 343 344 340 342 341 344
286 284 291 295 293 290 290 289 283 276 278 281 287 282 288 295 297 299 300 303 305 305 306 307 308 309 310 312 313 313 313 314 318 319 320 322 329 328 336 343 341 340 342 346
287 286 294 295 295 294 289 286 290 285 285 281 284 287 292 295 296 298 299 302 302 304 306 307 308 309 310 315 315 315 315 316 317 319 321 321 323 330 333 341 340 338 346 346
291 285 292 293 295 294 292 293 285 286 277 275 281 283 284 290 293 296 297 299 302 304 305 307 308 309 312 314 314 314 315 316 318 319 320 321 324 325 330 338 339 338 344 347
293 289 288 291 290 288 289 288 289 288 285 279 277 283 293 293 295 296 298 301 301 303 305 307 308 310 311 311 311 313 312 314 316 320 322 323 326 328 333 337 340 341 346 347
294 291 285 287 293 294 292 290 290 283 281 285 283 283 296 296 297 299 299 300 302 306 306 307 308 310 310 309 310 311 311 312 317 320 324 326 327 329 334 337 340 343 345 345
295 289 283 284 288 291 289 290 290 290 288 283 280 284 296 297 297 298 298 300 303 304 305 307 309 309 308 308 307 309 310 311 313 314 323 330 327 328 334 338 341 343 343 344
296 290 286 281 284 289 286 289 290 289 283 285 285 287 292 295 296 298 299 301 304 304 305 306 306 305 306 307 307 307 309 311 312 311 320 329 330 330 335 338 341 343 344 344
293 286 288 289 290 289 288 288 288 287 289 284 287 288 292 295 297 299 301 303 302 303 303 304 304 305 305 306 308 310 309 310 311 309 314 330 331 333 335 337 340 344 344 344
294 286 288 285 289 289 287 289 290 289 290 289 289 289 297 299 300 299 300 301 301 302 303 304 305 305 305 305 307 308 308 309 310 309 311 327 328 330 335 339 341 343 343 344
290 288 285 281 286 286 283 288 289 290 292 292 288 293 298 297 298 299 301 301 301 302 303 303 304 305 306 307 307 307 308 310 309 308 311 326 328 331 336 338 340 341 341 343
288 287 286 282 284 277 288 294 294 292 293 295 295 296 297 298 300 301 302 302 302 303 303 304 305 305 305 306 306 305 306 306 308 309 316 328 330 333 337 338 337 338 338 341
291 288 283 281 282 286 288 292 292 291 291 296 295 296 297 299 300 300 303 304 304 305 305 305 306 306 305 305 306 305 305 307 308 324 329 330 334 335 334 334 334 335 337 338
289 289 285 284 280 278 288 294 298 296 286 297 296 296 296 298 291 296 303 305 305 306 307 306 306 305 305 305 305 305 307 312 321 330 330 334 335 334 334 334 334 336 338 336
286 285 282 282 280 286 294 295 299 284 288 297 297 297 298 296 298 302 305 305 305 306 306 307 306 304 305 306 306 306 307 313 322 325 332 336 338 337 334 333 335 335 331 328
283 284 284 285 282 280 297 296 289 295 299 298 298 299 299 300 302 303 304 304 304 304 305 306 304 303 306 306 306 305 306 314 324 324 331 333 335 334 333 334 333 329 328 325
285 290 286 288 288 297 299 297 299 299 297 298 298 299 298 298 300 302 301 302 302 303 304 305 303 304 305 306 307 305 307 312 323 328 328 330 332 331 332 331 333 330 328 329
290 293 289 288 291 293 296 298 299 300 299 301 301 300 300 299 301 300 301 300 300 301 301 303 303 303 304 307 305 306 309 319 322 322 326 327 327 327 330 330 331 329 328 327
290 291 289 289 293 293 295 297 299 300 301 301 301 299 298 298 298 299 298 298 298 298 300 302 302 304 304 305 305 307 311 319 322 321 324 324 325 324 318 315 325 329 330 325
292 288 286 285 291 291 292 298 302 300 299 299 298 296 296 296 295 295 295 297 296 296 298 299 303 304 304 305 306 308 312 318 323 325 323 323 320 319 318 319 314 296 300 300

GFSCGP_sfc_thetae_078.txt.gz
Theta_e
301 297 295 297 297 297 296 294 293 296 299 297 297 298 301 304 304 304 305 305 307 307 310 312 313 315 317 326 326 328 327 331 330 331 335 340 343 344 343 346 348 345 345 346
297 294 299 298 297 295 295 294 294 297 298 297 297 296 300 302 303 304 305 306 306 307 309 309 311 315 319 320 323 326 327 329 329 332 341 335 341 341 347 348 350 347 345 346
294 296 298 296 295 294 295 293 294 293 296 298 296 295 298 301 303 304 305 306 307 307 306 307 310 315 318 318 320 322 324 327 329 331 330 337 341 343 343 344 347 350 349 348
296 299 296 295 294 295 291 296 294 293 293 289 296 287 295 299 300 301 303 304 306 306 306 309 312 313 315 317 319 321 323 325 325 329 330 331 326 333 334 342 347 352 354 350
294 295 295 294 295 297 294 297 295 295 293 292 292 290 294 298 296 299 302 303 305 306 308 310 311 312 314 316 318 320 323 325 326 328 330 328 331 330 333 333 345 361 360 354
297 302 298 297 298 298 298 296 296 295 293 286 291 291 291 295 297 300 302 302 304 307 309 311 312 313 314 317 317 319 322 323 325 326 328 330 331 335 331 338 341 347 349 353
296 296 299 299 295 298 297 294 287 285 286 285 292 289 292 297 299 299 300 302 304 306 309 309 311 312 314 314 318 321 321 322 324 325 325 327 330 334 340 341 333 342 343 345
290 289 296 299 297 294 295 294 287 280 283 286 292 286 294 299 300 301 303 304 305 307 308 310 311 313 314 316 318 321 320 321 323 324 325 327 329 327 328 336 335 334 339 345
291 291 298 297 299 298 294 290 295 289 290 286 289 293 297 299 298 300 301 303 304 306 308 309 311 313 315 316 318 317 318 320 321 323 324 326 327 330 329 338 345 338 347 344
296 289 296 297 298 299 296 297 288 289 281 280 287 288 290 294 296 298 300 302 304 307 306 309 311 313 315 317 317 317 317 316 319 321 323 324 326 328 329 333 338 342 348 348
298 294 292 295 293 292 293 291 292 292 290 284 283 288 297 296 298 299 301 303 305 305 306 309 311 312 314 315 315 316 316 316 319 319 321 324 326 328 329 332 333 339 346 345
298 294 289 291 297 298 296 293 293 286 286 289 288 288 300 299 300 301 302 304 305 306 308 310 310 312 312 314 313 313 315 315 318 319 320 323 326 329 333 333 337 340 341 343
297 292 286 288 293 295 292 294 294 294 293 288 285 288 300 301 301 303 303 304 305 307 309 310 310 310 311 311 312 311 313 315 317 317 319 321 322 326 332 336 338 339 343 342
298 294 288 285 288 292 289 291 293 292 286 288 288 291 296 299 300 302 304 305 306 307 308 309 309 310 311 312 312 312 311 314 317 317 317 319 322 322 330 337 337 339 338 339
297 290 292 292 292 291 290 290 292 290 292 288 290 291 296 299 300 302 304 305 305 306 307 308 309 310 311 312 313 312 311 313 315 315 316 318 321 322 329 336 337 339 340 340
296 288 291 288 291 290 288 291 292 292 292 292 292 292 300 301 303 302 303 304 304 305 307 308 309 309 310 311 312 311 311 311 314 313 315 317 320 322 327 338 337 339 340 343
291 289 287 284 290 289 286 290 292 293 294 294 290 295 300 300 300 302 303 304 304 305 307 308 308 309 310 311 312 310 310 312 311 312 314 315 319 322 327 336 336 341 346 352
290 288 288 286 287 278 290 297 297 295 296 298 298 299 300 301 303 304 305 304 305 306 307 308 309 309 310 311 313 312 310 310 309 308 310 314 319 322 329 335 338 345 351 352
293 289 284 282 283 287 291 295 294 294 293 299 298 299 301 302 302 302 306 307 307 308 309 309 310 310 311 310 311 308 306 306 305 307 311 316 320 322 332 334 342 349 351 351
292 290 285 285 281 280 290 296 300 299 289 301 301 299 300 300 293 297 306 307 306 306 309 310 310 309 309 310 309 308 306 306 307 313 318 320 321 326 334 341 344 347 349 348
287 286 284 284 284 289 296 299 300 287 290 300 301 300 299 297 300 303 307 305 306 307 309 309 308 308 309 310 309 306 306 304 307 309 312 318 331 335 337 339 339 340 340 342
286 286 285 287 284 282 300 298 290 297 301 301 302 300 299 301 303 303 305 304 305 306 307 307 306 307 308 309 308 307 305 306 308 323 329 331 333 334 335 336 337 338 339 338
288 292 289 290 291 300 301 298 300 300 298 297 300 302 300 301 302 303 302 303 303 304 305 306 305 306 307 309 311 308 307 307 309 323 327 331 333 334 335 334 334 335 339 333
293 295 290 291 295 296 299 302 303 302 301 303 303 302 303 300 302 301 301 300 301 303 304 305 304 304 305 308 310 309 308 309 311 320 326 329 332 332 334 336 339 338 336 334
293 295 291 292 296 293 296 299 299 301 302 303 302 300 299 298 299 298 299 300 299 300 301 302 303 303 304 308 311 310 310 309 312 323 324 326 328 328 326 325 335 338 340 331
292 289 286 286 290 288 290 296 300 300 301 300 299 298 299 296 295 297 296 297 299 300 300 300 302 303 306 309 310 312 309 311 314 323 323 320 321 324 327 327 318 299 304 302

GFSCGP_sfc_thetae_081.txt.gz
Theta_e
305 300 297 300 302 301 299 297 296 300 302 300 299 300 302 306 306 307 308 309 310 311 314 314 316 317 320 324 329 331 331 335 337 332 336 338 343 348 349 349 354 353 349 350
300 296 301 302 301 299 298 295 296 299 302 300 299 299 302 304 305 306 307 308 309 310 312 314 315 317 321 322 325 330 330 331 334 330 339 336 337 338 340 348 355 353 352 349
297 300 301 300 298 296 297 295 296 296 299 300 298 296 300 304 306 307 308 309 309 310 311 313 313 316 319 320 320 322 327 328 331 337 334 334 334 339 337 343 349 352 353 354
300 302 298 297 296 298 294 299 298 296 295 290 299 289 298 302 302 304 306 307 308 310 311 311 313 316 318 317 318 320 324 329 328 331 332 331 329 326 333 343 344 344 351 355
297 299 297 295 297 299 296 299 298 297 295 294 294 291 296 301 299 302 305 307 308 310 311 311 313 314 316 318 320 321 323 329 332 331 334 330 330 327 331 335 344 347 343 356
300 304 301 299 300 300 300 297 297 297 295 288 293 293 293 297 300 302 305 305 305 308 310 312 315 316 316 318 319 320 323 326 330 331 332 333 332 331 331 335 337 341 340 341
299 299 302 302 298 300 299 295 288 286 286 286 296 292 295 299 301 302 304 304 305 308 309 312 313 313 315 315 318 320 323 323 328 330 330 330 334 335 336 335 333 336 341 339
293 291 299 302 299 296 296 295 289 282 284 287 293 289 295 301 303 304 303 305 307 307 309 311 312 313 314 316 317 319 321 322 323 324 327 331 332 327 329 334 332 333 334 339
293 293 301 301 302 300 296 292 297 291 291 286 290 295 299 302 301 302 303 305 306 308 310 310 311 312 314 316 318 319 321 321 321 322 325 327 331 332 331 336 338 335 337 337
298 291 299 300 302 301 298 299 290 291 283 282 287 289 290 296 299 301 301 303 305 307 308 310 310 311 315 316 319 320 319 319 320 321 322 323 326 330 333 334 336 336 337 343
299 296 295 298 295 294 295 293 294 293 290 284 283 286 298 297 300 300 302 305 306 307 308 309 310 312 314 315 315 318 318 317 318 319 320 324 323 326 331 333 335 337 339 340
300 296 291 293 299 300 298 295 293 287 287 289 288 288 301 301 302 303 303 305 307 309 309 310 310 312 313 314 315 316 318 316 316 317 319 322 322 324 330 332 336 338 339 339
299 294 288 291 295 297 294 296 296 295 294 289 287 289 302 302 303 304 304 306 307 308 309 310 311 312 312 313 314 315 315 316 316 316 316 322 323 324 328 330 333 339 339 340
300 295 291 286 290 291 288 293 295 294 289 289 290 291 297 299 301 303 305 307 307 308 309 310 310 311 312 313 314 314 315 316 316 315 315 319 322 324 326 328 330 336 340 338
299 289 291 292 293 294 293 292 292 291 293 288 292 291 294 299 300 302 305 306 306 307 308 309 310 311 312 313 314 314 315 316 317 314 313 314 319 322 324 326 327 333 338 341
297 290 291 289 292 292 290 292 292 293 293 293 293 292 300 302 302 302 304 304 306 306 307 308 310 311 311 313 313 314 314 315 315 313 312 314 316 316 322 326 328 330 336 341
293 291 290 285 291 290 287 292 292 294 295 294 290 294 300 298 301 303 304 306 305 306 307 308 309 310 312 313 316 315 315 315 314 312 311 311 313 314 316 322 325 329 335 342
293 291 291 286 289 280 292 298 296 295 296 298 298 299 301 302 304 306 305 306 305 306 306 310 310 312 312 315 317 317 315 314 313 311 309 310 310 311 313 317 323 329 334 340
297 292 287 283 284 288 291 295 293 293 293 299 298 300 300 302 303 303 306 306 307 309 309 310 311 311 313 315 316 315 313 313 313 311 309 309 309 308 310 315 321 330 336 340
294 292 287 286 281 280 291 296 300 301 290 302 300 300 301 302 295 299 306 307 307 309 309 309 310 311 313 315 315 313 311 310 309 309 308 308 308 308 312 317 323 331 337 340
290 287 286 286 284 289 297 300 302 288 292 302 302 301 301 299 301 303 306 307 308 308 309 309 309 311 314 314 312 308 309 308 309 309 309 307 308 310 316 321 327 333 339 343
289 287 286 288 285 283 300 300 292 298 302 301 303 302 301 302 303 304 304 305 306 307 306 307 307 310 312 312 310 307 306 308 310 310 308 306 308 314 322 327 332 338 341 343
289 292 291 292 292 301 303 301 302 303 300 301 301 303 303 302 302 301 301 303 304 305 306 306 305 306 309 310 307 305 306 308 309 308 311 314 314 318 318 326 335 337 337 337
295 297 293 293 298 297 300 301 302 303 302 303 303 303 304 300 300 300 301 301 302 303 303 303 303 304 305 308 308 308 307 310 309 310 323 318 315 313 320 335 336 334 334 336
295 296 291 293 296 296 296 297 299 299 301 301 303 302 300 301 299 299 299 299 300 301 301 302 301 302 303 306 307 310 312 310 310 316 323 329 332 332 331 327 331 336 343 339
295 290 288 286 292 290 290 293 296 296 298 300 299 297 299 298 296 297 297 299 299 299 300 300 301 303 303 306 307 312 313 312 313 318 320 322 325 324 324 322 315 298 302 303

GFSCGP_sfc_thetae_084.txt.gz
Theta_e
304 299 296 299 301 301 300 298 296 299 303 301 300 300 302 305 305 305 308 309 311 312 316 318 321 323 326 330 332 337 338 336 340 336 335 338 341 349 349 352 353 352 350 348
300 296 301 302 301 299 299 296 295 298 301 300 299 298 302 304 304 306 307 308 310 312 313 316 318 321 325 328 330 333 333 335 337 331 335 341 336 339 341 348 352 352 352 349
297 300 303 301 299 297 297 295 295 295 299 300 298 296 299 302 305 306 308 309 310 311 311 315 316 319 323 325 327 328 331 328 332 336 329 329 331 332 334 333 335 349 354 347
299 303 301 299 296 298 293 299 298 296 295 290 298 288 296 300 302 305 306 307 309 310 312 315 316 318 322 322 324 327 330 330 325 336 331 330 326 325 328 330 333 339 352 352
297 299 298 297 297 299 295 300 297 296 294 293 293 290 294 300 298 302 306 307 308 310 311 312 313 316 318 321 323 326 328 330 333 331 330 331 331 331 329 330 331 335 343 347
300 304 301 300 301 301 301 297 297 296 294 287 291 291 292 296 299 302 305 306 308 308 310 312 315 317 318 319 320 325 328 331 333 332 330 326 332 331 329 327 332 332 332 337
299 300 303 303 298 301 299 294 287 285 286 285 294 291 294 300 301 303 304 305 306 307 308 310 312 315 317 317 320 323 324 327 331 331 332 329 329 331 330 331 330 327 327 334
292 290 299 303 299 296 296 295 288 280 283 286 294 287 292 301 304 305 305 307 306 306 308 310 312 315 315 318 320 321 323 326 328 329 329 332 330 328 327 328 329 329 327 328
292 292 302 302 303 301 297 293 297 290 291 286 290 294 299 302 303 303 303 304 305 306 310 309 311 313 316 317 322 323 323 324 327 325 326 330 330 331 327 328 331 331 333 332
297 290 298 300 302 302 298 300 290 292 282 281 287 289 290 296 299 301 301 303 305 308 308 308 311 314 315 316 320 324 324 322 322 325 326 322 325 329 328 329 328 329 330 332
299 295 294 298 296 294 295 294 294 293 291 284 282 286 298 298 300 301 303 303 305 306 307 308 310 313 313 315 314 320 321 321 321 323 325 326 323 323 325 326 327 330 331 331
300 296 290 293 299 300 298 294 294 288 286 289 288 288 300 301 302 303 303 304 306 308 308 309 310 312 312 313 314 316 322 319 320 322 321 321 326 325 325 325 327 330 331 333
300 294 287 289 294 298 293 294 294 293 293 288 286 288 300 303 301 301 302 303 306 308 308 309 310 311 312 312 314 314 317 317 318 318 318 321 322 322 322 325 326 327 328 330
301 294 290 285 288 293 290 293 294 291 286 289 289 291 296 299 300 301 302 303 304 308 309 309 310 310 313 314 314 314 315 317 317 316 317 320 322 321 319 323 326 326 327 326
297 290 292 292 293 292 291 291 292 290 290 287 290 290 295 299 301 303 302 303 305 305 307 309 309 312 314 314 316 315 316 316 317 316 314 318 320 320 319 319 320 323 324 325
297 289 292 289 292 291 289 291 291 291 292 293 292 292 299 301 303 302 303 304 305 306 307 309 310 311 312 314 314 315 317 317 318 316 315 316 316 315 316 318 317 318 318 324
292 290 288 284 289 289 284 290 292 293 295 294 290 295 301 299 301 302 303 305 305 306 307 308 309 311 314 314 316 315 317 317 316 316 315 315 315 313 314 314 314 315 316 319
291 290 289 285 287 279 290 297 297 295 296 297 296 299 299 300 303 304 306 305 306 306 307 308 310 312 314 315 315 315 315 316 316 315 315 314 313 311 311 312 312 313 313 314
297 293 288 284 284 288 290 294 294 292 290 298 298 298 300 301 302 302 306 307 306 307 308 309 311 311 312 312 312 313 313 313 313 313 313 313 313 310 309 310 310 312 312 311
297 295 290 288 281 279 292 296 300 299 289 299 300 299 299 300 293 297 306 306 307 308 309 308 309 311 310 312 314 312 310 310 312 311 311 312 312 311 310 310 310 310 310 311
290 289 284 286 284 288 297 300 302 287 290 300 300 300 299 296 299 304 306 306 307 306 307 308 308 308 309 310 310 307 307 306 310 312 311 311 311 311 310 309 310 309 309 310
289 288 287 287 285 283 299 298 291 296 300 300 300 300 298 301 303 304 305 305 306 305 306 306 305 306 307 308 307 305 304 307 309 308 308 307 307 308 308 307 307 306 309 311
289 294 290 291 291 301 302 299 302 301 299 299 299 299 300 299 298 302 302 303 303 304 302 304 304 305 306 306 305 303 304 307 307 306 305 306 306 305 306 306 305 306 311 313
295 298 293 293 296 297 297 299 299 299 297 297 298 299 299 297 298 298 300 300 301 302 301 302 302 301 302 304 304 305 306 306 306 306 306 308 312 307 305 307 308 309 316 318
296 297 293 292 295 294 295 295 296 296 297 297 296 294 294 294 295 296 297 298 299 299 299 301 300 299 300 301 302 305 306 307 306 309 312 314 309 307 305 306 309 317 324 326
295 292 288 287 292 291 290 293 296 295 295 296 294 294 294 294 293 294 295 296 297 297 298 297 297 297 299 302 304 305 307 308 310 312 320 320 315 314 312 315 314 297 310 307

GFSCGP_sfc_thetae_087.txt.gz
Theta_e
298 291 289 293 295 295 295 293 292 295 299 295 294 294 296 300 299 298 299 300 303 305 308 311 316 317 319 322 323 322 323 326 335 338 339 336 342 343 343 345 344 343 344 345
293 289 297 300 299 296 294 292 290 295 298 295 293 293 296 298 298 299 300 301 301 304 306 311 313 314 316 318 319 321 326 327 328 326 327 331 334 336 341 344 344 346 344 341
291 295 301 299 296 294 292 291 291 291 295 296 293 291 294 298 300 301 302 303 303 302 305 308 311 313 316 316 316 317 317 320 323 326 323 323 323 325 326 328 332 343 347 345
293 298 298 296 295 295 288 296 295 294 290 283 292 283 291 294 297 299 301 302 303 304 305 307 310 312 314 315 315 316 318 317 317 322 323 321 320 318 320 323 327 328 332 343
293 295 294 294 295 297 292 297 294 293 289 286 288 284 289 294 294 297 299 302 302 303 302 307 310 313 314 314 313 313 315 316 317 319 319 321 321 323 325 325 322 322 329 338
295 300 298 296 299 299 299 294 292 290 286 281 287 286 287 291 294 298 300 302 303 302 305 307 309 312 311 310 311 314 314 314 317 318 319 319 319 323 323 322 323 327 329 329
294 295 299 301 295 298 295 288 281 279 278 280 289 288 289 295 299 299 300 301 301 302 303 304 305 308 307 308 310 313 314 314 318 318 321 319 319 320 323 324 325 325 324 322
289 287 297 301 297 294 293 292 285 278 276 282 290 284 289 299 300 302 303 303 302 299 300 302 307 308 308 309 309 312 312 311 318 320 320 322 321 321 320 322 324 325 326 326
288 289 299 299 299 297 293 289 293 287 288 282 283 289 295 299 298 301 301 303 299 300 299 300 304 306 307 308 311 311 311 312 316 318 319 319 319 319 320 320 320 324 327 329
293 287 296 298 299 298 294 297 286 287 280 277 283 285 285 292 295 299 299 300 301 302 301 301 303 304 305 306 308 312 312 312 313 315 313 315 318 321 322 321 321 320 321 325
296 291 291 296 292 290 291 288 289 290 285 280 278 281 292 293 295 295 298 300 300 301 300 301 301 304 305 306 304 308 313 313 314 314 316 315 314 315 315 318 321 323 324 325
297 292 287 290 296 298 294 291 290 285 283 285 285 284 298 297 296 297 299 302 302 303 303 303 303 302 304 305 305 305 312 313 315 315 315 315 315 316 315 316 317 319 322 326
296 289 282 285 288 292 291 291 292 291 289 284 282 284 299 298 300 300 299 300 302 304 304 305 307 306 304 303 304 305 308 312 313 315 312 310 312 310 310 312 315 317 318 320
301 290 287 282 286 289 287 290 291 290 284 284 286 287 292 296 297 298 298 300 301 303 304 306 306 307 305 305 306 307 307 308 310 311 310 310 311 311 312 314 314 315 318 319
293 286 289 290 292 292 290 289 289 287 288 285 287 289 292 295 297 296 300 301 302 302 304 304 304 306 304 306 307 309 308 308 310 310 310 308 312 312 311 311 312 313 315 316
292 285 289 287 290 289 287 289 289 289 290 289 290 289 296 298 298 298 300 301 303 304 305 306 306 306 308 308 308 309 310 310 310 310 309 310 311 312 311 312 312 313 313 311
286 284 281 279 286 286 281 287 289 290 291 292 286 291 297 296 297 297 298 300 302 303 303 303 304 305 306 306 309 308 309 309 310 311 311 312 311 311 309 310 311 309 308 309
286 284 283 279 283 275 286 295 295 290 293 295 295 297 298 297 299 301 300 300 300 303 304 303 303 303 303 305 306 308 309 309 309 309 310 311 312 311 310 309 308 306 306 307
293 287 279 277 276 285 288 293 291 291 290 297 293 296 298 299 298 296 301 301 299 300 301 301 303 303 303 304 306 306 307 308 309 309 309 310 311 311 310 307 306 306 306 306
293 290 282 279 274 273 288 297 300 298 286 296 296 295 295 296 289 293 300 301 301 303 303 302 303 303 303 303 304 305 306 306 307 309 310 311 311 311 311 310 308 307 306 306
286 285 279 279 276 284 294 297 299 284 286 294 295 295 293 291 293 296 298 298 299 302 302 303 303 302 302 303 303 302 303 303 305 306 307 306 307 310 311 311 310 307 305 306
284 282 282 285 282 275 297 296 288 291 293 293 293 293 292 293 295 296 297 297 299 299 301 302 300 300 301 301 302 301 301 304 305 305 305 306 307 309 310 310 310 309 307 304
283 290 287 286 284 294 294 295 294 293 291 291 292 293 294 293 293 293 293 294 296 297 298 299 298 299 300 300 300 299 301 303 304 304 304 306 307 307 307 307 308 308 307 304
292 295 287 288 293 290 292 294 294 293 292 294 295 296 294 293 292 292 293 293 293 294 296 297 296 296 297 300 301 300 301 302 302 302 303 304 304 304 305 306 306 306 305 303
292 293 288 288 290 291 294 293 293 294 295 296 297 294 293 292 291 292 292 292 292 294 295 296 295 296 297 298 299 300 301 303 303 304 304 305 306 307 307 306 305 305 305 305
293 288 286 285 290 290 290 293 294 294 294 295 295 292 293 293 291 290 290 292 292 292 294 294 295 295 296 298 300 301 303 304 303 303 305 307 305 304 305 306 303 299 301 299

GFSCGP_sfc_thetae_090.txt.gz
Theta_e
295 289 286 290 291 293 291 289 289 292 297 293 291 291 294 296 297 297 297 298 299 301 306 307 311 315 318 319 319 320 323 326 334 336 334 334 335 336 338 341 344 342 340 348
291 287 294 296 296 294 293 289 288 292 295 293 292 291 295 296 296 297 298 298 298 299 302 307 311 315 317 318 319 321 321 324 325 324 323 324 326 334 336 339 342 344 343 341
288 292 298 296 294 293 292 289 288 289 293 293 291 288 291 295 297 299 299 299 300 300 300 305 310 311 313 315 317 319 320 320 321 322 319 319 320 321 326 330 333 340 345 343
290 295 295 294 292 293 287 294 293 292 288 282 290 282 287 292 293 296 298 297 298 299 302 302 309 308 312 313 314 314 314 315 317 322 320 317 315 314 316 319 324 328 330 331
291 293 292 292 293 295 291 296 293 292 287 284 286 282 285 290 291 294 296 298 299 301 301 301 308 311 314 313 312 313 313 313 314 318 319 319 318 319 320 322 321 321 323 329
294 297 295 294 297 296 297 292 290 287 284 279 284 283 285 288 291 293 298 299 301 302 303 301 309 314 312 311 310 310 312 312 313 314 315 315 316 316 318 318 318 322 325 325
293 293 297 298 292 295 292 285 281 279 279 280 286 284 287 291 295 297 298 299 299 300 303 306 310 310 310 308 308 310 310 310 312 314 314 315 314 314 316 317 318 318 320 322
286 286 294 299 295 290 289 289 282 277 276 282 287 281 288 295 298 300 301 300 299 300 302 304 308 309 309 309 307 311 309 309 313 314 314 316 315 316 317 318 319 320 321 323
286 288 297 298 298 296 290 287 292 287 287 279 283 288 293 297 297 299 299 299 298 302 303 304 305 307 309 306 307 310 311 310 312 315 315 315 318 317 316 316 317 318 319 324
290 285 295 297 299 298 293 295 285 284 280 278 283 284 285 291 293 297 297 296 297 298 302 301 304 306 307 306 307 309 311 311 311 314 316 317 318 316 316 315 315 316 318 319
292 288 289 294 292 290 290 288 290 289 284 281 279 280 292 292 294 295 296 298 296 297 300 302 303 304 301 302 305 309 309 310 311 313 316 315 315 316 316 317 317 318 318 319
294 290 285 289 295 297 294 289 288 280 280 286 283 283 296 297 298 298 298 300 300 302 301 302 302 304 304 302 301 304 309 310 311 311 314 313 312 311 311 311 313 316 317 319
294 287 281 284 289 292 289 291 290 287 286 279 275 281 296 297 298 299 299 300 300 301 301 301 304 303 303 303 302 302 303 310 311 312 312 313 313 312 312 312 312 312 315 318
297 290 286 282 286 289 287 290 291 288 282 281 283 285 291 294 296 297 299 300 300 299 301 302 303 305 303 305 307 306 308 305 311 312 312 311 312 313 313 312 310 312 316 316
292 285 289 289 291 290 289 289 289 286 287 282 285 285 290 294 295 298 299 299 299 300 300 302 302 302 303 304 306 308 308 307 305 308 311 311 312 311 312 311 311 313 312 313
289 282 288 285 289 289 286 287 287 286 287 287 288 288 294 297 298 298 299 300 301 302 303 303 304 304 304 305 307 308 308 308 309 307 306 307 307 309 310 310 310 309 309 310
285 284 281 278 285 285 279 285 287 289 291 290 285 290 296 296 296 296 297 298 299 300 302 302 302 301 302 303 305 304 306 308 307 307 308 310 309 310 310 310 309 308 308 309
285 283 281 277 280 273 284 294 294 292 293 294 292 293 294 295 297 298 300 296 297 298 299 300 300 299 300 302 302 303 304 306 307 307 308 309 309 309 310 310 309 310 310 309
288 284 282 279 274 282 287 293 292 290 290 294 292 294 294 295 295 295 299 297 296 297 298 299 301 302 302 301 302 302 303 303 304 305 306 308 309 308 309 309 308 308 308 308
291 287 281 275 275 272 288 295 297 295 284 293 292 291 290 290 283 287 294 296 296 297 298 299 300 302 302 302 301 299 299 301 302 305 307 308 308 309 308 308 308 309 308 307
283 280 276 278 277 283 293 295 298 284 283 291 290 290 289 287 289 293 295 296 296 296 296 296 297 297 300 299 300 299 299 299 301 302 304 305 307 307 307 307 307 309 308 307
281 284 279 283 282 278 294 293 285 289 290 290 290 291 291 292 294 294 294 293 295 293 294 295 295 296 297 299 298 298 298 300 302 302 303 304 305 306 306 305 305 305 307 308
283 288 284 286 282 291 293 291 292 291 289 289 291 293 293 293 293 293 292 293 292 293 294 295 293 294 296 297 297 296 298 300 302 303 303 303 304 304 304 303 303 304 305 306
289 292 287 286 290 289 291 294 294 294 292 293 295 295 293 292 293 292 291 292 291 291 291 293 294 294 294 296 297 297 299 300 300 300 300 301 301 302 304 305 306 305 305 305
289 291 287 285 288 290 293 293 293 294 294 294 296 294 293 293 290 290 290 291 291 291 293 294 293 293 294 296 297 298 299 300 300 300 301 301 302 302 303 303 305 305 305 306
290 285 279 280 288 290 290 294 295 292 293 294 294 294 294 291 290 290 290 290 291 291 292 293 293 294 295 297 298 299 301 302 301 301 302 303 304 305 306 305 305 301 301 300

GFSCGP_sfc_thetae_093.txt.gz
Theta_e
293 288 285 288 290 291 289 287 287 290 294 291 290 290 292 295 294 294 296 296 297 298 301 305 306 307 312 316 317 324 329 330 334 334 333 332 335 334 335 337 340 340 341 345
289 285 292 293 293 291 290 288 287 291 294 291 290 290 292 293 294 295 296 297 297 297 299 302 305 310 314 316 317 318 325 329 331 330 325 325 325 332 334 336 338 338 338 338
287 291 296 294 292 290 289 287 288 288 291 291 289 287 290 293 294 296 297 298 298 298 298 299 303 308 312 314 315 317 320 325 326 323 319 318 319 320 324 328 333 339 339 335
289 294 293 291 290 291 286 292 292 290 287 282 289 282 286 290 292 294 295 295 296 297 298 298 301 305 311 314 315 317 318 319 321 320 317 317 317 317 316 317 319 325 338 339
290 291 290 290 291 293 289 294 291 291 286 282 284 280 284 289 289 292 293 295 296 297 298 299 300 304 310 313 315 317 315 314 317 318 317 316 314 315 316 318 319 318 320 325
293 295 294 293 296 294 295 291 288 285 282 278 284 283 284 286 290 291 294 296 299 299 299 302 305 303 309 313 311 310 310 310 311 315 316 316 315 315 315 315 316 316 318 322
292 292 294 296 291 293 290 283 278 277 277 280 286 283 285 289 293 294 294 296 298 298 300 304 302 305 310 310 309 310 309 308 310 310 312 313 313 312 313 314 314 314 315 317
284 284 293 298 292 289 289 287 281 276 276 281 287 281 285 293 295 296 298 298 298 298 299 303 305 306 307 306 306 309 308 308 309 310 310 311 311 311 312 313 314 316 317 318
284 286 296 297 298 295 290 286 290 284 283 280 282 286 292 295 295 297 297 298 297 298 298 302 303 304 306 307 308 309 310 308 310 312 311 311 312 312 313 314 314 316 316 319
290 283 293 296 298 297 293 295 284 283 279 277 281 283 283 289 291 295 296 296 297 298 298 299 301 304 306 305 304 305 308 309 310 312 312 313 314 315 315 314 314 314 315 316
291 287 288 293 291 290 290 289 290 289 286 281 279 280 288 291 292 293 295 297 298 299 299 299 300 302 303 303 305 305 306 308 307 309 311 312 314 316 315 313 314 313 314 315
295 290 284 288 294 297 294 290 291 284 283 285 284 280 293 292 295 296 296 299 301 302 301 301 300 303 304 304 304 302 307 308 309 310 310 313 314 315 315 315 314 314 314 315
293 287 281 284 288 293 290 292 291 289 286 280 278 280 294 293 295 295 294 297 300 302 303 303 301 300 302 302 303 302 301 305 307 308 307 310 313 312 312 314 315 314 315 315
296 289 287 282 285 290 287 290 291 289 283 282 282 284 288 291 292 294 296 300 301 302 302 302 299 300 301 301 301 302 303 302 304 307 308 308 311 312 312 312 312 311 313 314
292 284 286 288 288 289 289 288 288 286 286 281 284 284 287 292 293 295 297 300 301 301 303 302 301 300 301 301 303 304 306 307 305 303 307 309 310 311 313 312 312 312 311 313
290 282 287 284 287 287 285 287 287 286 286 284 285 285 292 295 296 296 297 297 298 298 299 301 302 302 301 301 303 304 304 305 306 306 305 307 308 308 309 310 310 310 310 312
285 283 282 279 284 284 279 284 286 286 290 288 283 288 295 294 293 294 295 296 296 297 297 298 298 299 300 300 302 302 303 304 304 305 306 307 307 307 307 309 308 308 308 309
284 283 282 279 281 274 283 294 293 291 292 294 293 291 291 292 294 293 295 295 294 294 295 296 296 297 298 300 301 302 302 303 303 304 305 306 306 307 308 307 308 308 308 307
288 284 280 277 276 282 286 293 290 288 288 293 290 290 290 292 290 289 294 294 293 294 295 296 297 297 298 297 299 301 301 302 302 303 304 305 306 306 306 306 307 308 308 308
290 288 282 276 276 272 283 293 296 295 284 292 290 287 287 289 282 286 292 294 294 296 297 294 295 296 295 295 297 297 299 300 300 301 303 304 305 305 305 305 306 307 308 308
284 280 279 282 279 281 292 294 296 282 281 289 288 288 287 287 289 292 295 294 296 296 295 295 295 293 294 296 296 296 297 298 300 301 302 302 302 302 303 303 304 305 307 308
281 283 281 283 281 278 294 291 284 286 289 290 289 289 289 290 292 294 294 293 295 294 294 295 294 293 295 296 294 293 293 296 298 300 300 300 301 302 303 302 302 304 306 306
281 286 280 284 282 289 291 289 291 291 291 291 291 291 292 292 292 292 292 293 292 290 293 295 293 292 293 295 295 294 296 297 297 297 298 298 300 300 301 301 302 303 303 303
287 291 286 288 288 289 290 292 292 293 294 294 293 293 294 292 292 292 290 290 291 291 291 292 292 292 293 295 296 296 297 298 298 297 298 299 299 300 302 303 303 302 302 302
286 289 285 285 286 289 291 292 293 294 294 293 294 294 294 294 293 291 289 289 291 290 291 292 291 292 292 294 295 297 298 299 298 298 298 299 300 300 301 302 302 303 304 303
292 287 278 279 286 287 289 292 294 292 292 293 293 293 295 293 293 290 289 289 289 290 291 291 291 292 293 294 296 297 299 300 300 299 300 300 301 302 303 302 302 299 300 299

GFSCGP_sfc_thetae_096.txt.gz
Theta_e
291 287 284 287 288 289 288 285 285 289 293 289 289 289 292 294 293 293 294 295 296 297 300 301 303 306 307 309 316 327 331 333 337 336 336 336 338 339 338 341 342 343 343 344
288 285 290 291 291 289 288 286 285 289 292 289 289 288 291 292 293 294 295 295 296 296 298 300 301 303 308 311 313 319 328 329 336 339 332 334 333 334 336 337 339 341 343 345
286 289 293 292 290 288 287 285 286 287 290 289 287 285 288 292 293 295 295 296 296 297 297 299 299 301 305 309 313 316 324 330 333 332 324 321 323 326 331 334 336 339 340 339
288 292 291 289 288 289 284 291 291 289 285 281 287 281 286 289 291 292 294 294 295 296 297 297 298 299 302 307 311 315 317 327 332 328 326 322 323 321 325 328 328 336 339 338
289 289 288 288 290 291 288 292 290 289 285 281 283 280 283 287 288 291 293 294 295 296 296 297 299 300 301 305 309 315 317 321 325 326 328 321 318 319 318 320 321 322 328 335
291 293 292 291 294 293 294 289 287 283 281 277 283 282 283 285 289 291 294 294 296 296 298 299 301 304 305 303 308 313 316 318 319 321 320 320 319 318 317 317 318 319 320 322
290 291 293 294 290 293 290 283 277 276 277 280 285 281 284 289 292 293 293 295 297 298 297 298 302 305 304 304 309 312 314 313 316 317 317 318 318 317 317 316 316 316 317 319
283 284 292 296 292 288 287 285 279 275 275 280 285 280 285 291 295 296 299 298 298 298 298 297 303 306 306 308 309 310 310 309 310 312 313 314 315 314 313 314 314 315 316 318
283 285 295 297 297 294 290 286 290 283 281 278 282 285 291 294 295 296 297 298 297 298 298 297 300 304 306 305 306 308 309 309 311 311 311 311 311 311 311 313 314 315 317 319
289 283 292 295 296 296 293 294 285 285 278 276 279 281 283 289 291 294 294 295 295 298 299 299 300 301 304 305 305 306 309 308 311 313 313 312 312 312 312 313 314 316 317 317
292 288 288 293 290 289 290 289 289 288 286 280 279 280 289 289 291 293 293 294 294 296 298 299 300 301 302 303 305 306 307 310 310 309 312 311 313 313 314 314 315 316 316 317
293 290 285 287 295 297 295 291 290 284 283 286 284 281 292 292 294 294 294 295 296 297 299 301 301 302 302 303 303 303 309 310 310 310 310 311 313 314 314 315 315 316 316 316
292 287 281 283 287 293 290 292 291 290 287 282 278 281 292 293 293 293 292 295 297 299 301 301 302 302 301 302 303 304 304 306 309 310 310 310 311 312 313 315 316 315 316 316
295 289 284 280 286 289 286 289 291 289 283 282 283 285 289 289 292 294 295 296 297 299 301 302 301 302 302 302 303 303 303 303 305 307 309 309 309 311 313 315 316 316 316 316
292 285 287 288 288 289 287 286 287 286 287 281 284 284 287 291 292 294 296 297 296 298 300 301 300 300 301 301 302 302 304 306 307 306 305 306 308 309 312 313 314 315 315 316
291 283 286 283 286 286 284 287 287 287 286 285 286 284 292 294 294 293 294 294 293 294 298 298 299 299 299 299 300 300 301 302 304 304 305 307 308 309 309 311 312 312 312 313
284 284 281 278 284 283 280 284 285 286 288 287 283 287 290 289 290 291 292 292 291 293 295 294 295 296 297 297 299 298 300 302 303 303 304 306 307 308 308 310 311 311 311 312
283 281 281 278 281 274 284 293 292 290 291 293 292 291 292 291 290 291 292 291 291 292 293 293 294 295 297 296 297 298 299 298 299 302 303 304 305 306 307 308 308 309 310 310
288 282 277 277 276 281 285 291 289 287 287 292 291 290 290 290 289 289 293 293 292 293 294 295 296 296 295 296 297 297 296 296 297 298 300 302 303 304 306 306 307 308 308 308
288 287 282 279 273 274 283 293 294 293 282 291 290 287 286 287 281 285 291 293 294 296 296 295 295 297 297 296 296 295 294 295 295 297 299 301 303 304 304 306 306 307 308 309
284 282 279 278 276 282 291 293 295 281 280 289 288 288 287 285 287 291 293 294 296 295 294 295 297 296 295 295 295 294 294 294 297 298 299 300 301 302 303 304 305 306 306 308
284 283 281 283 277 275 293 291 285 286 288 289 291 291 289 290 291 292 293 294 294 294 295 295 293 293 294 296 295 294 293 295 296 297 296 297 298 299 300 300 302 303 303 303
281 285 281 282 280 288 290 289 291 290 290 292 292 292 291 291 291 293 293 294 293 295 293 292 292 293 293 294 295 293 294 296 297 297 297 298 298 299 299 299 300 300 301 301
286 289 284 285 287 288 289 290 291 292 291 294 294 293 293 291 293 293 293 292 293 292 291 292 292 291 291 293 294 294 296 297 297 296 296 297 297 298 299 299 299 299 299 299
285 287 283 284 285 288 289 290 291 293 294 294 294 294 293 293 292 293 291 292 292 291 291 291 290 290 291 293 293 295 296 297 296 296 297 297 298 298 299 299 300 301 303 301
288 289 282 279 288 289 287 290 292 291 293 293 293 293 294 294 293 292 291 290 291 289 290 290 290 291 291 293 293 295 296 297 296 296 298 299 299 300 299 299 300 298 298 298

GFSCGP_sfc_thetae_099.txt.gz
Theta_e
298 296 293 295 296 295 293 292 292 295 298 295 297 297 300 303 303 303 304 306 307 309 312 313 314 315 317 322 323 330 338 347 347 345 343 344 343 345 345 348 350 349 349 348
296 293 298 297 295 294 293 292 292 295 298 296 297 296 300 301 302 304 304 306 307 309 310 312 315 316 316 321 325 326 332 343 346 346 347 347 347 347 347 347 348 349 349 350
294 296 296 295 294 293 293 292 292 292 297 297 295 294 297 300 301 303 305 306 307 307 308 311 313 315 316 317 323 326 330 338 344 348 348 343 347 345 345 346 347 348 349 350
295 299 295 294 293 295 291 296 295 294 292 289 295 286 295 299 299 302 304 306 306 307 309 310 310 313 315 316 318 323 328 332 339 347 345 344 342 340 343 346 348 350 350 349
294 294 293 293 294 295 293 296 295 295 293 292 292 289 293 296 296 300 303 305 307 306 307 307 309 312 314 316 317 321 325 329 335 343 346 345 345 345 345 347 350 349 349 349
296 299 297 297 297 297 298 296 296 293 291 285 291 290 291 295 297 300 302 303 306 307 309 310 311 313 314 317 318 319 321 327 329 337 342 346 346 344 336 338 340 342 344 346
295 296 299 298 295 299 297 293 286 285 285 285 294 290 293 298 300 301 301 304 306 307 308 309 309 309 314 318 319 320 320 321 325 328 336 341 345 343 339 336 337 335 333 333
289 288 294 298 296 295 295 293 287 281 283 286 293 287 293 300 301 303 304 305 305 305 307 308 310 311 312 315 319 319 320 321 323 324 329 336 338 338 338 336 334 332 331 333
290 289 297 298 299 297 294 290 296 290 291 286 289 293 298 300 300 301 302 303 303 304 306 307 309 312 313 314 316 318 318 320 322 323 328 332 333 333 331 333 332 330 331 328
295 289 296 298 299 300 296 298 289 290 282 281 287 289 290 296 297 299 300 301 302 304 305 307 309 311 313 314 315 316 317 318 319 322 325 327 327 327 327 327 326 327 327 328
296 292 292 296 293 293 294 292 293 292 290 283 283 288 298 297 298 297 299 300 302 304 306 308 310 311 311 313 313 314 316 317 319 319 321 321 320 320 321 323 325 327 329 329
296 293 288 290 297 299 296 293 293 287 286 288 288 288 298 299 298 299 300 302 304 304 306 309 309 309 310 310 311 311 313 312 315 319 320 320 321 321 322 322 323 326 328 329
295 290 285 287 292 295 292 294 294 292 288 286 284 288 298 299 299 300 300 302 302 303 306 307 308 308 308 308 308 307 308 311 314 314 317 319 320 321 322 324 325 326 325 328
296 291 288 284 287 291 288 290 291 289 285 286 287 289 293 295 295 298 301 302 302 301 302 303 306 307 307 307 307 307 307 307 309 310 313 315 317 318 317 320 322 325 324 325
293 286 288 289 290 290 288 288 289 286 288 283 286 287 291 294 296 299 300 300 299 299 299 300 303 304 304 304 305 305 304 306 308 308 309 311 315 316 317 316 320 323 324 324
295 287 288 286 289 288 286 288 288 288 288 288 289 288 296 298 298 297 297 297 297 298 298 299 301 302 301 302 303 303 303 303 305 305 306 309 310 313 314 317 318 320 320 322
290 288 285 281 287 286 283 288 288 289 291 290 287 293 297 297 297 296 296 296 296 297 297 298 299 300 301 301 302 302 302 303 303 304 305 305 308 309 311 314 315 318 319 322
289 287 286 282 285 276 289 296 294 291 294 296 296 297 298 296 296 296 298 296 296 297 297 298 299 300 301 302 302 304 302 303 302 303 303 303 304 306 308 310 312 316 318 320
292 288 283 281 282 286 288 293 292 290 290 296 295 296 295 296 295 296 300 299 296 297 298 299 300 301 302 301 301 302 302 302 301 301 301 302 303 304 306 307 311 314 315 316
291 291 285 283 279 278 288 295 296 295 286 294 294 294 294 293 286 292 298 298 297 298 298 298 299 300 300 300 302 300 300 300 300 300 301 302 303 303 304 306 308 312 313 314
284 285 282 282 282 286 293 295 296 284 287 295 295 294 293 290 292 295 297 297 298 299 299 298 298 297 297 299 300 298 297 297 300 301 301 302 303 303 305 306 307 308 310 312
286 284 283 284 281 280 296 294 289 294 296 296 295 295 293 294 293 293 294 295 296 296 297 297 296 297 297 299 297 296 296 299 300 300 300 300 301 302 302 303 303 305 307 308
286 290 287 289 289 294 297 296 298 297 295 295 295 294 294 293 293 294 294 294 295 296 295 295 295 295 296 297 297 296 297 299 299 299 299 300 302 302 303 302 303 303 305 304
291 294 291 290 292 294 295 297 297 298 296 296 296 295 295 293 294 293 294 294 295 294 293 293 294 292 293 295 295 296 297 298 297 296 297 298 298 299 300 301 301 300 301 302
290 292 290 291 294 294 295 297 296 295 296 295 295 295 294 294 293 294 293 294 294 293 292 292 292 291 292 294 294 296 296 297 295 296 296 297 297 298 298 299 299 299 300 301
293 291 289 289 294 292 294 296 297 295 295 295 294 294 295 295 294 294 293 294 293 291 290 291 291 291 292 292 293 294 296 296 295 294 295 296 297 298 298 298 299 297 297 297

GFSCGP_sfc_thetae_102.txt.gz
Theta_e
304 300 297 300 301 300 298 296 296 299 302 301 300 301 304 307 307 307 308 309 310 312 315 317 319 321 322 326 330 333 335 351 355 353 352 351 349 351 351 352 353 352 349 350
300 296 301 302 301 298 297 296 297 300 302 301 301 300 304 306 307 308 308 309 310 312 314 315 317 319 322 325 329 332 336 339 350 351 352 350 349 350 352 353 354 352 351 351
298 299 301 300 299 297 297 296 297 297 300 302 300 298 301 305 307 308 309 310 311 311 312 314 316 318 321 323 326 329 334 338 341 351 349 351 352 352 350 351 351 352 352 352
300 303 300 299 297 299 295 300 299 298 297 293 301 291 299 303 304 306 308 309 311 312 313 314 315 317 319 320 323 327 330 335 337 344 347 355 347 343 346 350 351 352 352 351
297 298 297 297 298 300 297 300 299 298 297 297 297 294 298 304 301 304 307 309 311 312 312 314 316 318 319 321 322 325 329 333 336 339 346 345 348 342 343 345 355 357 357 352
300 304 301 301 301 301 302 299 300 300 298 291 296 295 296 300 303 305 308 308 309 311 313 314 317 318 318 320 322 326 329 330 333 336 338 345 349 349 341 344 345 348 352 354
299 300 303 303 299 302 301 297 291 290 291 290 299 296 298 303 305 306 306 308 310 310 311 312 314 315 317 319 322 325 327 328 331 332 333 335 343 350 354 353 345 350 347 347
293 291 299 302 300 298 299 299 292 285 287 291 298 293 298 304 306 307 308 309 309 309 310 311 312 314 316 318 320 321 324 326 329 330 331 332 334 335 341 348 344 344 344 346
293 293 300 300 302 301 298 296 300 294 295 291 294 299 303 305 305 305 306 306 307 309 310 310 312 314 315 317 319 320 322 325 328 329 331 332 332 334 338 348 349 346 350 342
297 291 300 302 303 302 299 302 293 294 286 285 292 293 295 299 300 303 304 304 306 309 309 310 311 313 315 316 318 320 321 321 324 326 328 330 332 334 339 342 343 343 341 340
298 295 295 299 296 295 296 295 296 295 294 287 286 291 301 301 303 303 303 305 307 307 308 309 311 313 315 316 316 318 319 319 319 322 326 327 330 330 334 336 338 335 334 331
299 295 291 294 301 302 300 297 296 289 290 294 292 291 304 304 304 304 304 306 307 308 308 309 311 313 313 314 315 316 317 316 318 320 321 324 326 326 326 327 329 331 332 331
298 292 288 290 296 299 296 298 298 296 292 288 287 291 302 302 303 304 303 304 306 307 308 308 309 310 312 313 314 315 315 315 315 316 317 320 323 326 327 328 329 328 329 331
298 294 292 286 291 294 291 294 296 294 287 289 290 294 298 300 299 301 303 305 306 306 306 307 307 308 310 311 311 312 313 314 314 314 313 315 316 319 323 327 327 328 327 326
296 287 292 292 293 293 292 292 294 291 292 287 292 292 296 298 299 302 304 305 305 304 305 306 306 306 308 308 309 309 310 311 312 311 312 312 315 317 318 321 324 325 323 323
296 290 291 289 292 291 289 292 292 292 292 293 293 292 299 301 303 303 304 303 302 303 303 304 305 305 305 306 307 307 308 309 310 309 308 311 313 314 317 320 320 322 320 322
293 291 288 285 290 290 287 292 293 294 295 294 290 295 301 300 300 302 302 302 302 303 303 303 303 304 305 306 307 307 308 309 308 308 307 308 310 311 313 316 318 320 322 323
291 290 288 286 288 280 292 298 297 295 296 297 297 299 300 300 302 302 303 303 303 303 303 303 304 304 305 306 306 307 307 307 306 306 307 308 309 309 310 312 315 318 320 322
295 290 287 284 284 289 292 294 295 294 294 299 299 300 300 301 301 300 303 304 304 303 304 304 304 304 304 304 305 303 303 304 303 305 307 308 308 308 308 309 312 315 316 319
295 292 288 287 281 280 292 297 300 299 289 300 299 298 296 298 289 295 302 303 302 303 303 300 301 302 301 302 303 302 302 301 301 303 304 306 306 307 307 309 310 312 314 315
288 288 286 285 285 289 296 298 299 287 290 299 298 298 297 294 296 300 300 298 299 299 299 302 301 299 300 302 301 300 300 300 303 304 304 304 306 307 308 308 310 310 311 313
287 286 286 287 285 282 299 298 291 298 301 299 300 299 295 295 296 296 298 298 298 299 299 302 299 299 300 301 299 299 299 303 303 303 302 301 302 303 305 307 308 310 310 310
287 291 290 291 292 298 302 300 303 303 298 300 299 299 296 295 295 297 297 297 298 298 300 299 298 297 300 299 298 297 299 301 301 301 300 301 302 302 304 304 305 305 307 306
294 297 292 293 296 298 300 302 301 300 301 300 300 298 296 294 296 296 296 297 299 298 296 297 296 295 294 296 297 298 299 299 298 297 298 300 300 300 302 303 304 304 304 305
293 295 293 293 296 298 298 300 301 301 301 299 299 298 298 297 295 296 296 296 296 295 295 294 293 293 292 294 295 297 298 296 294 296 296 297 297 298 299 301 302 302 305 305
296 294 293 290 296 297 297 301 302 300 298 299 298 295 295 297 295 295 294 294 293 293 293 291 291 291 292 292 293 294 296 295 294 293 294 295 296 297 297 298 298 297 297 296

GFSCGP_sfc_thetae_105.txt.gz
Theta_e
307 302 299 302 304 303 302 300 299 302 305 302 303 303 306 309 309 309 310 311 313 314 317 319 320 322 323 327 328 333 336 352 356 354 352 353 351 353 353 355 361 361 358 357
303 299 304 306 305 302 301 298 299 302 305 304 303 302 306 308 309 310 310 311 312 314 315 317 319 321 322 325 329 332 335 343 348 347 355 354 354 350 351 352 359 359 359 361
301 303 305 303 302 300 300 299 299 299 303 304 302 300 303 307 309 310 311 312 313 313 314 316 317 319 321 322 326 332 337 342 346 350 348 358 356 353 347 347 350 357 359 359
304 306 303 302 299 301 297 303 301 299 298 294 303 293 302 305 307 308 310 311 312 313 315 316 317 319 321 322 324 326 331 338 340 349 343 348 343 342 342 343 345 354 361 359
301 302 300 299 300 303 299 303 301 300 299 298 298 296 300 306 304 307 310 311 313 314 315 315 316 319 321 322 323 326 333 334 337 342 348 339 342 337 341 344 351 356 359 361
302 306 303 303 304 303 304 301 301 301 299 293 298 298 298 302 305 308 311 312 313 313 314 316 317 319 320 321 323 326 329 333 335 336 340 346 347 346 340 341 342 345 350 355
299 301 304 305 300 304 303 299 292 291 292 291 301 298 301 306 308 309 309 311 314 314 313 313 315 316 318 320 321 323 325 328 332 333 334 336 342 346 350 347 340 341 343 347
294 293 301 304 301 299 300 299 291 285 288 292 300 295 301 309 310 310 310 311 312 312 314 313 314 315 316 318 320 321 322 323 327 330 333 335 337 333 334 340 340 342 338 342
294 295 304 304 305 303 299 296 301 295 297 293 296 300 306 309 309 309 309 310 310 311 312 313 314 315 316 317 319 320 321 323 324 326 330 333 335 337 336 342 344 342 348 346
298 293 301 303 305 306 301 303 293 295 287 287 292 296 297 303 305 307 307 308 310 311 312 313 313 315 316 318 319 320 320 321 322 323 326 328 331 334 336 341 342 344 349 351
301 297 296 300 299 297 298 296 297 297 295 289 288 292 304 303 305 307 307 307 308 309 311 312 313 314 315 316 316 318 319 318 319 322 324 325 328 330 333 336 338 343 347 347
300 297 293 296 302 303 301 298 297 290 291 294 293 293 307 306 308 307 307 307 309 310 310 311 311 312 312 314 315 316 318 318 318 319 320 322 326 329 329 331 334 338 339 340
302 295 290 293 299 302 297 299 299 298 297 292 289 293 305 306 305 306 306 307 307 308 310 310 310 310 311 312 314 314 315 315 317 318 318 319 321 324 329 330 330 331 333 333
300 296 291 288 293 295 292 296 297 296 292 292 293 294 299 301 304 305 306 305 307 308 309 309 310 310 311 311 312 312 313 313 314 315 316 317 319 320 322 324 324 324 328 329
298 291 294 294 294 295 295 294 295 292 294 290 294 294 297 302 303 303 305 306 306 306 307 308 308 309 310 310 310 310 311 312 313 312 312 314 317 319 319 321 319 319 318 326
300 290 294 291 294 294 292 295 295 295 295 294 295 295 302 304 303 303 304 303 304 305 306 307 308 308 308 309 309 310 310 310 312 311 311 312 313 314 316 318 322 318 316 321
294 291 291 288 293 293 288 293 295 295 297 296 291 297 301 301 302 303 304 304 304 305 306 306 307 308 309 309 310 309 309 311 310 310 310 310 311 311 313 316 317 317 316 317
292 292 291 288 290 282 294 300 298 296 298 299 299 300 301 302 303 304 305 304 304 305 305 306 307 307 308 307 307 309 308 307 306 306 307 309 309 310 311 313 315 320 323 321
299 293 287 286 287 291 294 297 297 295 295 301 299 301 301 302 302 302 305 306 305 305 305 305 306 305 306 306 306 305 306 305 305 304 305 306 307 308 310 311 316 318 319 322
299 296 289 288 284 283 294 298 302 301 291 301 300 300 300 301 294 298 303 303 304 304 303 304 304 303 304 304 305 303 303 302 302 303 304 306 306 307 309 312 315 316 317 317
291 290 285 287 286 291 299 300 301 289 291 300 300 301 300 297 299 302 303 302 302 302 302 302 302 302 302 303 305 302 301 300 303 303 305 305 306 305 307 309 313 315 314 314
290 289 288 290 286 284 302 300 293 298 303 302 302 302 300 301 301 301 301 301 301 300 301 302 300 302 302 303 302 301 299 303 303 302 304 304 304 305 305 306 305 309 312 314
290 294 290 291 293 300 302 302 302 302 301 301 302 302 301 300 300 300 299 300 299 299 299 299 299 298 299 299 300 298 300 301 300 301 301 301 303 304 304 303 304 304 307 307
296 299 293 293 298 298 302 302 303 302 301 304 303 302 302 299 299 298 298 298 299 298 297 296 296 294 295 296 298 298 298 298 298 298 299 300 299 299 303 303 302 302 302 304
295 296 294 294 297 300 301 302 302 302 304 303 302 302 300 299 298 298 298 298 297 295 295 294 292 292 293 294 294 296 296 296 295 296 297 296 296 296 298 300 302 301 303 304
297 295 293 293 299 298 298 302 303 303 301 301 301 299 300 300 298 298 297 297 295 293 292 290 290 290 290 291 292 293 294 294 293 293 294 295 296 295 296 297 298 297 296 296

GFSCGP_sfc_thetae_108.txt.gz
Theta_e
306 300 297 300 302 302 301 300 299 303 306 303 302 302 305 308 308 308 310 311 313 314 317 322 324 328 331 331 334 341 343 346 351 358 356 357 355 356 356 357 358 357 357 357
302 298 304 305 305 303 302 299 298 302 304 303 302 301 305 307 308 309 310 311 313 315 316 318 323 328 330 333 337 338 340 350 347 345 357 357 356 353 356 356 356 360 356 356
299 302 306 304 302 300 300 299 298 298 302 304 302 299 302 306 308 310 311 313 314 314 315 319 321 327 329 332 333 336 343 345 351 347 343 346 354 352 349 350 353 355 358 357
302 306 304 303 300 301 296 303 301 300 298 293 302 292 301 305 306 309 310 311 312 313 316 318 320 325 326 327 331 337 342 345 342 348 346 344 340 343 344 347 350 352 355 354
300 302 302 300 301 303 299 303 301 300 298 297 297 294 298 304 303 306 310 312 314 315 316 317 318 322 323 327 329 334 340 340 344 348 348 340 339 337 339 342 346 347 354 354
301 305 304 303 304 304 304 301 300 300 297 291 295 295 296 300 304 308 311 313 313 314 315 316 318 320 322 324 327 332 334 339 341 344 344 342 342 340 339 340 342 344 342 354
298 299 303 304 300 303 302 298 290 289 290 290 299 296 300 307 309 310 310 311 313 314 314 314 315 315 321 323 326 325 332 331 335 336 338 340 342 343 341 338 338 340 338 339
294 292 300 305 301 298 299 298 291 284 287 290 299 293 299 309 311 312 313 312 314 313 314 314 314 316 315 320 324 326 327 325 330 329 333 339 342 335 335 337 336 335 335 335
294 294 304 305 306 304 298 294 300 294 295 291 294 299 304 308 309 310 310 311 312 313 314 313 314 316 318 321 325 327 327 327 327 325 327 333 337 336 335 338 337 334 336 337
299 293 301 303 305 305 301 303 292 294 286 285 291 294 296 301 304 308 308 309 311 313 312 313 313 317 319 320 326 325 326 325 325 325 326 325 327 328 335 336 336 337 339 338
302 298 296 300 298 297 298 296 298 297 294 287 286 291 305 304 306 307 309 309 310 311 311 312 312 315 314 315 315 317 322 322 322 323 325 324 324 325 327 330 333 336 337 339
302 298 293 295 301 303 302 298 299 291 290 294 292 291 306 307 307 308 308 309 310 310 310 310 311 312 311 313 314 315 321 320 319 320 320 324 325 323 324 325 329 333 333 335
302 296 289 290 295 301 297 298 299 298 297 290 288 291 305 306 304 306 307 308 309 309 308 309 310 311 311 312 313 313 314 315 316 316 315 317 323 323 322 323 325 329 328 326
302 296 291 286 290 295 292 295 296 294 287 290 292 294 299 302 303 305 307 308 308 308 309 309 310 310 311 312 312 312 313 314 314 314 313 314 316 320 321 321 321 325 326 325
298 291 294 294 294 294 293 293 294 293 294 290 293 293 297 301 303 304 305 306 306 307 308 309 309 309 310 311 312 312 312 312 313 312 311 313 315 316 317 318 320 321 323 322
299 291 294 291 294 294 292 295 295 295 295 295 295 294 302 303 304 303 305 305 304 305 306 307 309 309 310 310 310 311 312 312 313 311 311 312 313 313 313 314 315 318 322 322
296 293 290 286 293 293 289 294 295 296 298 296 291 297 301 301 301 302 303 303 303 304 305 306 307 308 309 309 310 309 310 311 310 309 309 309 310 309 310 312 313 313 317 322
295 293 290 286 289 281 293 301 300 297 297 299 299 300 301 302 303 303 304 303 303 303 303 305 305 306 306 307 308 308 308 308 308 306 306 307 307 307 307 307 310 313 315 319
299 294 288 285 286 290 293 297 296 293 294 301 299 301 301 302 302 301 305 304 304 304 304 304 305 305 305 305 306 305 304 305 305 304 305 305 305 304 305 305 308 308 311 314
299 298 288 288 283 281 294 299 302 299 289 301 301 300 300 300 293 297 304 304 304 305 304 304 304 304 303 303 306 303 303 303 302 302 303 304 303 304 303 305 306 307 308 311
291 291 286 285 284 289 298 301 303 288 291 301 301 300 300 298 300 303 304 304 305 304 304 304 304 302 302 302 302 299 301 301 303 304 304 303 303 303 304 304 307 307 306 307
291 289 287 289 285 283 301 300 294 298 303 302 301 301 300 301 302 302 303 302 302 301 302 302 301 300 300 300 299 297 296 299 302 303 302 301 301 302 303 304 304 305 306 305
290 294 291 293 292 300 302 302 305 304 301 301 302 302 301 300 300 300 300 300 300 302 301 300 298 296 297 297 298 293 297 299 299 298 298 298 299 301 302 302 302 301 302 303
296 299 295 293 297 299 301 303 304 304 302 303 303 301 301 299 299 299 299 300 299 300 299 299 296 293 292 293 293 294 294 295 295 295 295 296 297 299 301 301 301 301 301 301
295 296 294 294 297 300 301 301 303 303 303 303 302 301 300 300 299 299 298 298 299 299 298 295 293 291 290 291 291 292 292 293 292 293 294 294 295 296 298 299 299 299 301 301
296 295 293 291 298 298 299 302 303 302 301 301 301 300 301 300 299 299 297 299 298 296 294 291 290 289 289 289 290 290 292 291 291 291 291 292 293 294 296 296 296 295 295 296

GFSCGP_sfc_thetae_111.txt.gz
Theta_e
300 293 289 293 296 297 296 295 293 296 300 297 295 296 299 301 300 300 302 304 304 306 309 310 314 313 316 317 316 318 319 321 331 331 346 347 348 349 351 352 351 347 348 347
296 291 298 301 300 298 297 294 293 297 300 297 295 295 299 301 300 301 302 303 304 306 308 310 311 312 315 317 317 320 322 327 324 330 331 343 345 347 351 351 352 351 345 349
293 297 303 301 299 297 295 293 294 294 298 298 296 293 296 301 302 303 304 304 305 306 307 308 310 312 314 317 320 320 322 323 332 327 326 328 330 339 341 344 347 349 348 347
296 301 301 299 298 298 292 299 298 297 293 288 295 286 292 298 299 302 304 303 303 306 307 309 311 311 313 315 317 321 322 325 326 328 330 328 327 328 331 332 339 346 343 336
296 298 297 296 299 300 295 300 297 297 292 288 291 286 289 297 297 299 301 305 305 305 306 311 311 312 312 313 318 318 320 322 326 326 326 325 325 327 330 333 332 335 340 330
298 303 301 299 302 302 302 297 295 293 289 284 289 288 289 294 297 300 307 307 308 310 309 309 310 310 311 312 315 314 318 317 319 322 325 327 326 325 327 328 330 331 333 336
296 297 301 303 297 299 297 290 283 281 282 282 292 291 290 300 304 307 305 306 307 308 307 307 307 308 308 310 311 313 315 314 319 318 319 321 324 328 328 328 327 326 328 328
291 290 299 304 300 295 296 292 285 279 280 285 294 287 293 303 308 307 308 307 307 307 307 306 307 307 307 309 311 312 312 311 315 316 315 317 321 324 324 326 326 327 328 329
290 293 303 304 304 302 296 291 297 289 290 285 289 294 299 304 305 306 308 308 307 307 306 306 307 307 307 308 310 312 311 311 314 314 312 315 317 317 319 324 328 330 329 332
296 289 299 302 303 302 299 301 290 291 284 280 287 290 291 299 301 305 305 306 307 306 306 306 306 307 308 307 308 310 311 313 313 313 312 315 313 315 317 319 319 322 327 330
297 293 293 298 294 293 293 291 294 293 290 284 279 285 300 299 302 302 304 306 306 305 306 306 306 305 305 305 305 306 308 310 311 313 313 313 312 314 314 316 318 321 323 324
298 293 288 291 298 299 296 293 295 288 288 289 288 287 302 302 301 302 303 305 307 306 305 305 305 306 306 304 305 306 307 309 310 310 309 309 314 313 313 313 316 318 320 322
296 289 282 285 289 297 294 294 295 294 293 288 286 287 303 304 303 304 303 304 307 306 306 304 303 304 305 305 305 306 306 306 308 308 306 306 307 310 311 312 314 314 316 318
300 290 286 280 286 290 289 292 294 293 286 287 288 290 296 299 301 301 302 302 301 303 304 303 303 303 304 304 305 306 305 306 306 306 305 305 305 307 309 310 311 312 314 317
293 285 289 291 293 293 291 291 291 288 290 286 289 291 295 298 298 299 299 302 303 303 304 303 303 303 303 305 305 305 305 305 305 305 304 304 305 307 307 308 309 311 312 313
296 285 290 288 292 292 290 293 293 293 293 292 292 292 298 299 300 299 299 301 302 300 301 301 302 302 302 302 303 304 304 303 305 304 303 305 306 307 306 306 306 306 308 310
291 288 287 282 290 289 283 290 292 294 296 294 288 293 297 297 297 296 297 298 298 299 299 299 299 299 299 299 301 300 302 303 303 302 304 305 304 304 303 303 303 302 302 304
292 288 288 283 285 277 289 297 298 295 296 298 298 298 300 300 298 298 298 296 297 298 299 298 297 298 298 299 299 300 301 301 301 301 302 303 303 303 303 302 301 301 302 303
295 290 286 280 279 286 290 296 295 293 292 298 297 297 298 298 296 295 300 299 296 297 297 297 299 299 298 298 299 299 300 300 301 301 301 302 303 302 302 301 300 300 301 301
297 295 288 282 279 278 290 299 300 298 285 298 298 296 295 295 289 293 297 298 298 297 297 297 298 299 297 297 298 297 297 297 297 298 301 303 303 303 302 302 301 301 301 301
289 289 285 285 283 285 297 300 301 287 287 297 297 295 295 292 293 295 298 297 297 297 297 298 298 295 296 297 297 295 295 294 296 299 299 300 302 303 302 302 301 301 300 301
288 286 284 286 282 280 300 299 292 296 298 298 297 296 295 294 295 296 297 296 296 296 297 296 296 296 296 297 296 295 294 295 296 294 296 298 300 301 302 301 300 300 301 302
286 291 289 290 288 298 300 297 300 299 298 297 296 299 295 294 294 296 296 296 296 295 296 297 296 295 296 295 295 292 292 293 293 294 293 296 297 299 299 298 298 298 301 301
293 298 292 292 295 296 298 300 300 301 300 299 297 295 296 294 295 296 296 295 294 295 296 296 295 294 292 292 292 292 292 292 291 291 291 292 293 294 295 297 298 298 299 299
292 295 291 290 295 297 298 299 300 300 300 299 298 297 296 296 296 295 294 294 295 295 295 294 292 291 290 290 290 290 290 290 289 289 290 290 291 292 294 295 296 298 300 300
293 292 288 287 295 295 296 299 301 299 298 297 297 296 297 296 295 294 294 294 294 293 292 292 290 289 289 288 287 288 289 289 289 288 289 289 290 291 292 292 293 295 295 295

GFSCGP_sfc_thetae_114.txt.gz
Theta_e
298 292 288 292 293 294 293 291 290 294 298 294 292 294 296 298 297 297 299 300 302 304 307 307 309 310 317 326 333 332 326 327 327 328 343 344 345 345 347 348 349 345 342 343
293 289 295 297 296 295 294 291 290 293 298 295 293 294 296 298 297 299 300 300 301 302 303 306 307 309 315 316 321 318 318 323 322 320 327 341 342 341 345 347 347 346 346 345
290 294 300 298 296 295 294 291 291 292 296 295 293 290 293 297 299 301 301 301 302 302 303 304 306 307 312 313 314 316 318 320 321 323 324 325 326 328 332 333 338 341 345 346
293 298 297 296 295 296 292 297 296 294 291 285 293 283 289 294 296 299 300 299 300 302 304 305 308 310 314 314 317 320 322 322 324 328 326 323 321 320 323 325 330 331 336 342
293 295 295 294 295 297 293 298 295 295 289 286 288 283 288 293 294 296 298 301 303 304 303 307 308 310 312 314 314 316 319 322 323 323 321 320 319 320 323 323 323 326 331 338
296 300 298 297 300 299 300 295 292 290 287 281 286 285 285 289 292 296 300 304 305 303 306 306 307 310 311 311 313 312 314 314 317 318 318 319 320 321 322 323 324 323 322 327
294 294 297 301 296 299 296 288 282 280 280 281 291 288 287 294 302 303 302 303 304 303 303 304 305 306 308 308 311 311 311 313 314 314 314 313 315 319 320 320 321 321 322 322
288 288 297 302 297 293 293 289 282 278 278 282 292 285 291 302 305 306 306 303 304 303 303 303 303 304 307 308 309 310 309 311 311 312 312 312 317 317 316 317 318 320 322 325
288 291 301 302 302 298 294 290 293 286 287 282 286 291 296 302 303 305 304 304 302 303 303 304 305 305 305 307 307 308 308 308 311 311 311 311 313 311 313 314 316 317 318 324
294 287 297 300 300 300 295 298 287 286 278 278 284 287 289 297 299 303 303 303 302 303 303 305 305 306 304 303 304 305 307 308 311 310 309 310 311 310 311 312 313 314 316 319
295 291 292 296 293 290 290 288 291 291 290 283 280 284 296 296 299 300 302 304 305 305 304 303 304 305 305 304 304 305 305 308 309 310 309 309 311 310 311 310 311 313 316 316
295 291 286 290 296 297 293 290 291 285 286 290 288 287 298 299 299 301 301 303 305 306 307 306 306 305 306 306 305 302 303 306 308 309 310 308 309 310 310 310 311 312 313 314
294 287 281 283 287 292 291 292 292 292 289 286 285 285 301 301 299 302 301 302 305 306 305 305 304 303 302 302 302 303 303 303 304 305 305 304 304 306 310 308 309 311 311 310
298 288 285 279 283 287 287 290 291 291 285 285 287 288 293 296 299 300 301 302 302 302 302 301 299 300 301 303 303 302 302 303 303 304 303 302 302 303 303 306 307 308 308 309
291 283 287 288 290 291 290 290 290 287 287 284 287 288 292 295 295 297 299 300 299 298 299 299 298 298 299 299 300 300 301 303 302 302 301 301 302 303 304 304 305 306 307 309
291 283 288 287 291 291 288 290 290 291 291 290 290 290 296 298 297 297 296 297 297 298 298 299 299 299 298 299 299 300 300 301 301 300 300 302 303 303 303 303 303 303 303 304
288 286 283 281 288 287 282 287 289 291 294 292 287 290 296 296 296 293 294 296 295 297 297 298 298 298 297 297 299 298 299 300 300 300 302 302 302 302 302 303 303 301 300 301
288 286 287 282 283 276 286 295 298 295 296 296 296 298 298 297 299 299 295 292 295 296 296 296 296 295 295 296 297 297 298 299 299 299 300 301 301 301 302 301 302 301 299 298
293 289 284 279 277 284 288 295 293 290 290 297 296 297 297 296 295 294 297 296 294 294 294 294 294 295 296 295 296 296 296 297 297 297 297 298 299 298 298 299 301 301 298 297
293 294 287 284 279 276 288 298 300 297 285 299 298 294 293 293 286 290 296 296 295 295 294 294 295 294 294 296 296 295 295 296 295 296 296 297 297 297 299 300 302 302 298 299
289 288 285 285 282 285 295 298 301 282 285 298 298 294 292 290 292 294 295 294 294 294 294 294 293 293 293 295 295 295 295 294 295 297 296 295 297 295 295 296 298 302 301 300
286 285 284 285 283 281 298 297 290 292 295 297 295 294 293 292 293 294 294 294 294 293 293 293 292 294 296 296 296 294 293 294 294 294 293 293 293 295 295 296 298 300 300 299
281 287 287 288 288 297 299 296 297 297 295 296 293 294 292 292 292 293 293 293 292 292 293 295 294 294 294 295 294 291 292 293 292 291 291 291 292 293 293 293 295 297 298 298
290 296 291 290 294 296 297 298 297 297 296 299 296 293 293 292 293 293 293 291 293 293 293 293 292 291 292 292 291 292 291 291 289 289 289 290 290 290 291 293 293 293 294 294
288 290 289 289 293 294 297 298 297 298 300 297 296 295 294 293 292 293 292 292 292 292 292 292 290 291 290 290 289 289 289 289 287 288 288 288 289 289 290 291 292 294 296 297
288 287 285 284 293 292 293 297 299 297 298 298 295 294 294 294 293 293 291 291 291 291 290 289 290 289 288 288 287 288 288 288 286 286 286 287 288 289 290 290 291 293 293 293

GFSCGP_sfc_thetae_117.txt.gz
Theta_e
297 292 289 292 293 293 292 290 289 293 296 293 292 292 295 298 296 295 296 298 300 300 304 304 305 309 321 328 333 335 331 331 333 332 330 334 338 342 345 345 343 339 340 341
292 289 294 296 295 294 292 289 289 292 295 292 292 292 295 296 296 295 296 297 299 299 302 304 304 306 315 326 331 331 331 327 326 324 337 340 340 340 341 341 340 344 344 341
289 293 298 296 293 293 291 289 289 290 294 293 291 289 292 296 297 298 298 298 299 300 300 302 303 305 311 319 323 326 322 323 321 318 323 324 324 325 327 327 329 332 334 339
291 296 295 293 293 293 288 295 295 293 289 284 291 282 288 292 294 296 298 297 298 299 301 302 302 304 310 311 313 316 318 318 319 320 320 318 316 316 320 321 325 327 332 334
291 293 293 292 293 296 292 296 294 293 288 285 286 283 286 290 292 293 297 299 300 303 303 301 302 307 309 313 314 317 317 320 322 321 319 318 317 318 320 321 320 321 325 332
294 298 296 295 298 298 299 293 290 287 285 280 285 284 283 288 290 298 301 302 302 302 303 305 308 311 310 311 312 314 316 315 318 318 318 318 317 318 319 320 319 319 320 322
292 292 295 299 293 298 293 286 280 279 279 279 288 285 287 293 301 301 300 300 301 302 304 306 306 307 308 308 310 311 313 312 312 313 312 312 313 317 319 317 316 316 317 319
287 286 295 300 296 292 291 287 281 277 277 280 289 283 289 300 303 302 302 301 301 301 300 301 303 305 306 307 308 308 310 310 310 310 310 310 314 314 313 315 315 316 316 319
288 291 301 301 301 299 293 288 290 285 285 282 284 289 295 300 301 303 303 302 301 301 301 301 303 303 304 305 307 307 306 307 309 310 309 309 312 311 311 312 313 314 316 320
294 287 296 299 299 298 294 297 287 285 279 277 282 285 286 294 297 301 301 302 303 304 304 302 301 303 304 305 306 306 307 307 307 310 309 309 310 310 310 310 311 312 313 317
293 289 290 294 291 289 289 287 288 287 285 278 278 283 292 295 296 297 298 302 304 307 309 308 306 303 304 302 302 303 304 306 308 309 308 308 308 309 309 308 309 310 312 314
294 290 285 288 293 295 291 289 288 280 281 287 288 285 297 296 295 296 297 299 300 302 304 306 306 304 303 301 303 303 304 303 303 304 306 306 306 306 307 308 308 309 311 312
293 286 280 281 285 291 289 291 291 288 285 283 279 283 297 297 297 298 298 299 300 302 301 300 300 302 302 302 302 302 301 301 302 303 302 301 301 301 302 305 306 306 308 310
297 287 283 278 281 286 285 288 290 287 282 281 284 286 291 294 295 296 298 298 298 298 299 299 297 297 299 300 300 300 299 300 301 302 301 300 300 301 301 302 303 304 306 306
290 283 286 287 289 290 288 288 288 285 285 282 285 286 290 291 293 295 295 296 296 297 298 298 297 296 297 297 297 299 298 299 300 300 300 299 300 301 301 302 303 304 305 306
289 283 286 285 290 289 287 289 289 288 289 288 288 287 293 294 293 293 293 294 294 295 296 297 298 298 297 297 297 298 298 299 299 298 299 300 300 301 301 301 301 301 302 303
287 285 282 280 287 286 281 286 287 288 290 289 286 290 294 295 295 293 292 294 296 295 296 295 296 295 295 295 297 296 297 297 297 297 299 300 301 301 300 301 301 300 300 300
286 283 281 279 281 275 285 292 295 292 295 295 294 294 295 294 296 295 298 293 294 294 294 294 294 293 293 294 294 294 296 297 298 297 298 299 299 298 299 299 299 299 300 300
290 286 284 278 276 283 287 294 292 288 289 296 294 296 297 295 293 293 296 294 293 293 294 293 293 293 292 292 294 296 296 297 297 297 297 297 297 296 296 296 295 296 296 299
291 293 287 284 279 277 285 296 299 295 284 296 296 295 294 291 286 289 294 295 294 295 294 293 293 293 292 294 294 294 295 295 295 296 297 296 295 296 295 294 297 296 296 299
282 284 284 284 282 284 292 297 300 282 282 294 296 295 293 289 291 292 293 293 294 293 293 293 292 291 292 294 294 293 294 294 296 295 295 295 294 293 293 293 294 293 294 295
283 284 284 285 283 280 298 296 289 290 293 295 295 294 292 292 292 292 293 293 293 292 292 292 291 293 294 294 293 292 292 293 293 293 293 292 292 292 293 292 292 293 294 296
281 285 281 283 283 293 299 297 298 297 295 294 294 294 293 291 292 292 292 292 292 291 291 292 292 292 292 292 292 291 291 291 291 290 289 289 290 291 291 290 290 290 291 291
288 293 287 289 290 293 297 299 299 297 297 299 296 293 292 291 292 291 291 291 290 291 291 292 291 290 289 291 291 290 291 290 289 288 287 288 288 288 289 290 291 290 291 291
286 287 286 286 290 293 295 297 297 298 298 297 294 293 293 292 291 291 291 290 290 291 291 291 289 289 289 290 289 289 289 289 287 287 287 286 287 287 288 289 290 290 292 293
286 285 282 281 289 291 292 297 298 296 295 294 293 292 292 292 291 291 290 289 290 290 290 289 289 288 289 288 288 288 288 288 286 284 285 286 286 287 288 288 289 291 291 292

GFSCGP_sfc_thetae_120.txt.gz
Theta_e
294 290 288 291 293 293 291 289 289 292 295 291 290 290 294 296 296 296 298 296 297 299 303 303 305 306 307 313 331 335 334 333 334 333 333 335 342 344 343 339 340 339 339 341
291 288 294 295 295 293 291 289 288 292 294 291 291 291 294 296 295 296 297 297 296 298 301 303 303 305 316 319 328 333 335 331 336 336 334 334 336 340 342 345 345 345 342 341
289 292 296 295 292 291 289 288 289 290 293 292 291 288 291 295 296 297 298 298 298 299 300 301 302 303 306 315 324 331 334 331 330 326 331 327 326 327 327 329 332 333 337 342
289 294 294 292 292 292 286 293 294 292 289 284 289 281 287 291 293 295 297 299 299 300 300 301 302 302 304 310 319 324 323 323 322 322 323 323 318 318 322 323 327 329 333 334
289 291 292 290 292 294 291 295 292 292 287 284 285 282 286 290 291 293 299 301 301 302 302 303 303 302 305 310 312 317 319 321 322 323 320 319 318 319 322 323 323 325 327 329
292 296 295 294 297 296 297 291 289 286 284 279 283 283 283 287 291 298 300 299 300 300 303 306 308 309 309 311 314 317 319 319 321 321 320 320 320 320 320 321 320 321 323 325
290 291 294 297 291 296 291 285 280 279 279 279 286 285 286 291 299 299 297 298 299 300 300 301 304 307 308 310 312 314 315 315 315 316 316 317 318 320 319 320 318 318 319 320
285 283 293 298 293 291 289 286 280 276 277 279 287 283 287 299 300 301 301 301 302 300 299 301 301 303 305 307 308 310 311 311 312 313 313 313 314 316 318 318 316 316 317 319
287 289 298 299 298 295 291 286 287 283 283 281 283 287 294 299 300 301 302 303 303 303 303 302 303 302 303 305 306 307 308 310 311 311 311 311 312 314 314 316 316 316 317 319
294 288 296 298 297 297 292 295 286 284 278 277 281 284 285 294 295 297 297 297 300 303 304 304 306 305 303 303 303 303 304 305 307 309 310 311 310 313 313 313 314 315 316 317
293 289 290 294 290 288 289 286 287 286 283 278 278 282 291 294 296 295 295 297 298 300 303 305 307 305 305 303 303 304 304 304 305 305 307 309 310 310 311 311 311 311 313 315
292 289 285 287 291 293 290 288 286 280 281 284 286 284 296 295 295 295 295 297 298 299 301 302 300 301 301 302 302 303 303 303 304 306 305 306 305 306 306 307 309 311 311 312
292 285 280 280 286 290 288 289 288 286 283 284 280 282 296 296 295 295 295 296 298 299 299 298 298 299 300 300 300 301 301 301 303 303 303 303 303 303 304 304 305 306 307 309
296 286 283 278 279 285 284 287 288 285 282 280 281 284 290 293 293 295 295 296 295 297 298 297 296 296 297 299 299 299 299 300 300 301 301 301 302 302 302 303 304 305 306 307
289 283 284 285 287 288 287 287 287 284 284 281 283 286 288 291 292 293 294 295 296 295 296 297 296 296 297 297 297 298 298 299 299 299 300 300 301 301 302 302 303 304 305 306
287 283 285 284 288 288 286 288 288 287 287 286 287 286 293 294 293 292 293 294 295 295 296 297 297 297 296 296 296 297 297 297 298 298 298 300 301 301 301 302 302 303 303 304
286 284 282 280 285 285 280 284 286 286 288 287 283 287 294 293 294 293 293 294 295 295 295 295 296 295 295 295 297 295 296 296 297 298 299 299 300 300 300 301 301 301 301 302
285 283 280 278 281 275 284 290 292 289 292 294 293 294 295 294 295 295 296 296 295 295 295 295 294 293 294 294 294 295 296 297 297 297 297 298 298 298 299 298 298 297 298 298
288 283 278 276 276 282 286 292 291 287 288 295 293 295 296 294 293 293 299 296 295 294 294 294 294 294 293 293 294 295 295 296 296 296 296 297 298 298 297 296 295 296 297 296
290 288 281 282 274 276 284 294 298 294 283 294 296 294 293 291 286 289 295 295 295 295 295 295 294 293 292 293 294 294 294 294 294 294 296 297 295 295 294 295 294 295 294 294
282 282 279 283 281 284 291 296 298 281 283 293 294 294 292 289 291 293 293 293 294 294 294 294 293 291 292 294 294 293 293 292 294 296 294 293 294 294 294 292 293 293 293 293
283 285 284 285 283 279 296 295 288 289 292 295 295 295 294 292 293 292 293 293 293 293 293 292 290 293 294 295 293 291 291 293 294 292 292 291 291 292 292 291 290 291 291 291
281 284 281 283 282 290 295 295 297 296 295 296 293 294 293 292 292 292 292 292 293 292 291 292 292 292 292 292 292 290 291 292 291 289 289 289 290 290 290 289 288 288 289 289
286 290 286 287 288 292 294 296 297 298 296 298 297 294 292 291 292 291 291 291 292 291 291 292 291 290 289 291 291 291 291 290 288 288 288 288 287 288 289 289 289 288 288 289
285 285 285 285 288 290 293 294 296 297 299 298 296 293 293 292 291 291 291 291 290 290 291 291 289 288 289 290 289 290 289 289 287 287 287 286 286 287 287 288 288 289 290 290
285 284 281 280 287 288 289 293 296 296 295 294 293 292 292 292 291 291 291 290 290 289 290 289 289 288 288 288 288 288 288 287 286 284 284 285 285 285 286 286 287 290 290 290